[[{"header":{"parameterUnit":"m.s-1","parameterCategory":1,"la1":30.6,"la2":28.766,"lo1":-90.7593,"lo2":-88.6598,"dx":0.0162,"dy":0.0183,"nx":116,"ny":114,"refTime":"2022-12-03T18:00:00:Z","depth":0,"parameterNumber":2,"parameterNumberName":"U-component_of_WINDS"},"data":[0.0,0.0,0.0,0.0,0.0,0.0,0.0,0.0,0.0,0.0,0.0,0.0,0.0,0.0,0.0,0.0,0.0,0.0,0.0,0.0,0.0,0.0,0.0,0.0,0.0,0.0,0.0,0.0,0.0,0.0,0.0,0.0,0.0,0.0,0.0,0.0,0.0,0.0,0.0,0.0,0.0,0.0,0.0,0.0,0.0,0.0,0.0,0.0,0.0,0.0,0.0,0.0,0.0,0.0,0.0,0.0,0.0,0.0,0.0,0.0,0.0,0.0,0.0,0.0,0.0,0.0,0.0,0.0,0.0,0.0,0.0,0.0,0.0,0.0,0.0,0.0,0.0,0.0,0.0,0.0,0.0,0.0,0.0,0.0,0.0,0.0,0.0,0.0,0.0,0.0,0.0,0.0,0.0,0.0,0.0,0.0,0.0,0.0,0.0,0.0,0.0,0.0,0.0,0.0,0.0,0.0,0.0,0.0,0.0,0.0,0.0,0.0,0.0,0.0,0.0,0.0,0.0,0.0,0.0,0.0,0.0,0.0,0.0,0.0,0.0,0.0,0.0,0.0,0.0,0.0,0.0,0.0,0.0,0.0,0.0,0.0,0.0,0.0,0.0,0.0,0.0,0.0,0.0,0.0,0.0,0.0,0.0,0.0,0.0,0.0,0.0,0.0,0.0,0.0,0.0,0.0,0.0,0.0,0.0,0.0,0.0,0.0,0.0,0.0,0.0,0.0,0.0,0.0,0.0,0.0,0.0,0.0,0.0,0.0,0.0,0.0,0.0,0.0,0.0,0.0,0.0,0.0,0.0,0.0,0.0,0.0,0.0,0.0,0.0,0.0,0.0,0.0,0.0,0.0,0.0,0.0,0.0,0.0,0.0,0.0,0.0,0.0,0.0,0.0,0.0,0.0,0.0,0.0,0.0,0.0,0.0,0.0,0.0,0.0,0.0,0.0,0.0,0.0,0.0,0.0,0.0,0.0,0.0,0.0,0.0,0.0,0.0,0.0,0.0,0.0,0.0,0.0,0.0,0.0,0.0,0.0,0.0,0.0,0.0,0.0,0.0,0.0,0.0,0.0,0.0,0.0,0.0,0.0,0.0,0.0,0.0,0.0,0.0,0.0,0.0,0.0,0.0,0.0,0.0,0.0,0.0,0.0,0.0,0.0,0.0,0.0,0.0,0.0,0.0,0.0,0.0,0.0,0.0,0.0,0.0,0.0,0.0,0.0,0.0,0.0,0.0,0.0,0.0,0.0,0.0,0.0,0.0,0.0,0.0,0.0,0.0,0.0,0.0,0.0,0.0,0.0,0.0,0.0,0.0,0.0,0.0,0.0,0.0,0.0,0.0,0.0,0.0,0.0,0.0,0.0,0.0,0.0,0.0,0.0,0.0,0.0,0.0,0.0,0.0,0.0,0.0,0.0,0.0,0.0,0.0,0.0,0.0,0.0,0.0,0.0,0.0,0.0,0.0,0.0,0.0,0.0,0.0,0.0,0.0,0.0,0.0,0.0,0.0,0.0,0.0,0.0,0.0,0.0,0.0,0.0,0.0,0.0,0.0,0.0,0.0,0.0,0.0,0.0,0.0,0.0,0.0,0.0,0.0,0.0,0.0,0.0,0.0,0.0,0.0,0.0,0.0,0.0,0.0,0.0,0.0,0.0,0.0,0.0,0.0,0.0,0.0,0.0,0.0,0.0,0.0,0.0,0.0,0.0,0.0,0.0,0.0,0.0,0.0,0.0,0.0,0.0,0.0,0.0,0.0,0.0,0.0,0.0,0.0,0.0,0.0,0.0,0.0,0.0,0.0,0.0,0.0,0.0,0.0,0.0,0.0,0.0,0.0,0.0,0.0,0.0,0.0,0.0,0.0,0.0,0.0,0.0,0.0,0.0,0.0,0.0,0.0,0.0,0.0,0.0,0.0,0.0,0.0,0.0,0.0,0.0,0.0,0.0,0.0,0.0,0.0,0.0,0.0,0.0,0.0,0.0,0.0,0.0,0.0,0.0,0.0,0.0,0.0,0.0,0.0,0.0,0.0,0.0,0.0,0.0,0.0,0.0,0.0,0.0,0.0,0.0,0.0,0.0,0.0,0.0,0.0,0.0,0.0,0.0,0.0,0.0,0.0,0.0,0.0,0.0,0.0,0.0,0.0,0.0,0.0,0.0,0.0,0.0,0.0,0.0,0.0,0.0,0.0,0.0,0.0,0.0,0.0,0.0,0.0,0.0,0.0,0.0,0.0,0.0,0.0,0.0,0.0,0.0,0.0,0.0,0.0,0.0,0.0,0.0,0.0,0.0,0.0,0.0,0.0,0.0,0.0,0.0,0.0,0.0,0.0,0.0,0.0,0.0,0.0,0.0,0.0,0.0,0.0,0.0,0.0,0.0,0.0,0.0,0.0,0.0,0.0,0.0,0.0,0.0,0.0,0.0,0.0,0.0,0.0,0.0,0.0,0.0,0.0,0.0,0.0,0.0,0.0,0.0,0.0,0.0,0.0,0.0,0.0,0.0,0.0,0.0,0.0,0.0,0.0,0.0,0.0,0.0,0.0,0.0,0.0,0.0,0.0,0.0,0.0,0.0,0.0,0.0,0.0,0.0,0.0,0.0,0.0,0.0,0.0,0.0,0.0,0.0,0.0,0.0,0.0,0.0,0.0,0.0,0.0,0.0,0.0,0.0,0.0,0.0,0.0,0.0,0.0,0.0,0.0,0.0,0.0,0.0,0.0,0.0,0.0,0.0,0.0,0.0,0.0,0.0,0.0,0.0,0.0,0.0,0.0,0.0,0.0,0.0,0.0,0.0,0.0,0.0,0.0,0.0,0.0,0.0,0.0,0.0,0.0,0.0,0.0,0.0,0.0,0.0,0.0,0.0,0.0,0.0,0.0,0.0,0.0,0.0,0.0,0.0,0.0,0.0,0.0,0.0,0.0,0.0,0.0,0.0,0.0,0.0,0.0,0.0,0.0,0.0,0.0,0.0,0.0,0.0,0.0,0.0,0.0,0.0,0.0,0.0,0.0,0.0,0.0,0.0,0.0,0.0,0.0,0.0,0.0,0.0,0.0,0.0,0.0,0.0,0.0,0.0,0.0,0.0,0.0,0.0,0.0,0.0,0.0,0.0,0.0,0.0,0.0,0.0,0.0,0.0,0.0,0.0,0.0,0.0,0.0,0.0,0.0,0.0,0.0,0.0,0.0,0.0,0.0,0.0,0.0,0.0,0.0,0.0,0.0,0.0,0.0,0.0,0.0,0.0,0.0,0.0,0.0,0.0,0.0,0.0,0.0,0.0,0.0,0.0,0.0,0.0,0.0,0.0,0.0,0.0,0.0,0.0,0.0,0.0,0.0,0.0,0.0,0.0,0.0,0.0,0.0,0.0,0.0,0.0,0.0,0.0,0.0,0.0,0.0,0.0,0.0,0.0,0.0,0.0,0.0,0.0,0.0,0.0,0.0,0.0,0.0,0.0,0.0,0.0,0.0,0.0,0.0,0.0,0.0,0.0,0.0,0.0,0.0,0.0,0.0,0.0,0.0,0.0,0.0,0.0,0.0,0.0,0.0,0.0,0.0,0.0,0.0,0.0,0.0,0.0,0.0,0.0,0.0,0.0,0.0,0.0,0.0,0.0,0.0,0.0,0.0,0.0,0.0,0.0,0.0,0.0,0.0,0.0,0.0,0.0,0.0,0.0,0.0,0.0,0.0,0.0,0.0,0.0,0.0,0.0,0.0,0.0,0.0,0.0,0.0,0.0,0.0,0.0,0.0,0.0,0.0,0.0,0.0,0.0,0.0,0.0,0.0,0.0,0.0,0.0,0.0,0.0,0.0,0.0,0.0,0.0,0.0,0.0,0.0,0.0,0.0,0.0,0.0,0.0,0.0,0.0,0.0,0.0,0.0,0.0,0.0,0.0,0.0,0.0,0.0,0.0,0.0,0.0,0.0,0.0,0.0,0.0,0.0,0.0,0.0,0.0,0.0,0.0,0.0,0.0,0.0,0.0,0.0,0.0,0.0,0.0,0.0,0.0,0.0,0.0,0.0,0.0,0.0,0.0,0.0,0.0,0.0,0.0,0.0,0.0,0.0,0.0,0.0,0.0,0.0,0.0,0.0,0.0,0.0,0.0,0.0,0.0,0.0,0.0,0.0,0.0,0.0,0.0,0.0,0.0,0.0,0.0,0.0,0.0,0.0,0.0,0.0,0.0,0.0,0.0,0.0,0.0,0.0,0.0,0.0,0.0,0.0,0.0,0.0,0.0,0.0,0.0,0.0,0.0,0.0,0.0,0.0,0.0,0.0,0.0,0.0,0.0,0.0,0.0,0.0,0.0,0.0,0.0,0.0,0.0,0.0,0.0,0.0,0.0,0.0,0.0,0.0,0.0,0.0,0.0,0.0,0.0,0.0,0.0,0.0,0.0,0.0,0.0,0.0,0.0,0.0,0.0,0.0,0.0,0.0,0.0,0.0,0.0,0.0,0.0,0.0,0.0,0.0,0.0,0.0,0.0,0.0,0.0,0.0,0.0,0.0,0.0,0.0,0.0,0.0,0.0,0.0,0.0,0.0,0.0,0.0,0.0,0.0,0.0,0.0,0.0,0.0,0.0,0.0,0.0,0.0,0.0,0.0,0.0,0.0,0.0,0.0,0.0,0.0,0.0,0.0,0.0,0.0,0.0,0.0,0.0,0.0,0.0,0.0,0.0,0.0,0.0,0.0,0.0,0.0,0.0,0.0,0.0,0.0,0.0,0.0,0.0,0.0,0.0,0.0,0.0,0.0,0.0,0.0,0.0,0.0,0.0,0.0,0.0,0.0,0.0,0.0,0.0,0.0,0.0,0.0,0.0,0.0,0.0,0.0,0.0,0.0,0.0,0.0,0.0,0.0,0.0,0.0,0.0,0.0,0.0,0.0,0.0,0.0,0.0,0.0,0.0,0.0,0.0,0.0,0.0,0.0,0.0,0.0,0.0,0.0,0.0,0.0,0.0,0.0,0.0,0.0,0.0,0.0,0.0,0.0,0.0,0.0,0.0,0.0,0.0,0.0,0.0,0.0,0.0,0.0,0.0,0.0,0.0,0.0,0.0,0.0,0.0,0.0,0.0,0.0,0.0,0.0,0.0,0.0,0.0,0.0,0.0,0.0,0.0,0.0,0.0,0.0,0.0,0.0,0.0,0.0,0.0,0.0,0.0,0.0,0.0,0.0,0.0,0.0,0.0,0.0,0.0,0.0,0.0,0.0,0.0,0.0,0.0,0.0,0.0,0.0,0.0,0.0,0.0,0.0,0.0,0.0,0.0,0.0,0.0,0.0,0.0,0.0,0.0,0.0,0.0,0.0,0.0,0.0,0.0,0.0,0.0,0.0,0.0,0.0,0.0,0.0,0.0,0.0,0.0,0.0,0.0,0.0,0.0,0.0,0.0,0.0,0.0,0.0,0.0,0.0,0.0,0.0,0.0,0.0,0.0,0.0,0.0,0.0,0.0,0.0,0.0,0.0,0.0,0.0,0.0,0.0,0.0,0.0,0.0,0.0,0.0,0.0,0.0,0.0,0.0,0.0,0.0,0.0,0.0,0.0,0.0,0.0,0.0,0.0,0.0,0.0,0.0,0.0,0.0,0.0,0.0,0.0,0.0,0.0,0.0,0.0,0.0,0.0,0.0,0.0,0.0,0.0,0.0,0.0,0.0,0.0,0.0,0.0,0.0,0.0,0.0,0.0,0.0,0.0,0.0,0.0,0.0,0.0,0.0,0.0,0.0,0.0,0.0,0.0,0.0,0.0,0.0,0.0,0.0,0.0,0.0,0.0,0.0,0.0,0.0,0.0,0.0,0.0,0.0,0.0,0.0,0.0,0.0,0.0,0.0,0.0,0.0,0.0,0.0,0.0,0.0,0.0,0.0,0.0,0.0,0.0,0.0,0.0,0.0,0.0,0.0,0.0,0.0,0.0,0.0,0.0,0.0,0.0,0.0,0.0,0.0,0.0,0.0,0.0,0.0,0.0,0.0,0.0,0.0,0.0,0.0,0.0,0.0,0.0,0.0,0.0,0.0,0.0,0.0,0.0,0.0,0.0,0.0,0.0,0.0,0.0,0.0,0.0,0.0,0.0,0.0,-0.4393,-0.339,0.0,0.0,0.0,0.0,0.0,0.0,0.0,0.0,0.0,0.0,0.0,0.0,0.0,0.0,0.0,0.0,0.0,0.0,0.0,0.0,0.0,0.0,0.0,0.9728,0.9698,0.9698,0.9698,0.0,0.0,0.0,0.0,0.0,0.0,0.0,0.0,0.0,0.5383,0.6578,0.6987,0.8169,1.0015,0.8718,0.7659,0.684,0.0,0.0,0.0,0.0,0.0,0.0,0.0,0.0,0.0,0.0,0.0,0.0,0.0,0.0,0.0,0.0,0.0,0.0,0.0,0.0,0.0,0.0,0.0,0.0,0.0,0.0,0.0,0.0,0.0,0.0,0.0,0.0,0.0,0.0,0.0,0.0,0.0,0.0,0.0,0.0,0.0,0.0,0.0,0.0,0.0,0.0,0.0,0.0,0.0,0.0,0.0,0.0,0.0,0.0,0.0,0.0,0.0,0.0,0.0,0.0,0.0,0.0,0.0,0.0,0.0,0.0,0.0,0.0,0.0,0.0,-0.5158,-0.4349,0.0,0.0,0.0,0.0,0.0,0.0,0.0,0.0,0.0,0.0,0.0,0.0,0.0,0.0,0.0,0.0,0.0,0.0,0.0,0.0,0.0,0.9802,1.0023,0.9854,0.9839,1.0123,0.9879,0.9753,0.99,0.9772,0.0,0.0,0.0,0.0,0.528,0.5098,0.624,0.8727,0.9367,1.0647,1.2471,1.2464,1.1663,1.0157,0.8298,0.0,0.0,0.0,0.0,0.0,0.0,0.0,0.0,0.0,0.0,0.0,0.0,0.0,0.0,0.0,0.0,0.0,0.0,0.0,0.0,0.0,0.0,0.0,0.0,0.0,0.0,0.0,0.0,0.0,0.0,0.0,0.0,0.0,0.0,0.0,0.0,0.0,0.0,0.0,0.0,0.0,0.0,0.0,0.0,0.0,0.0,0.0,0.0,0.0,0.0,0.0,0.0,0.0,0.0,0.0,0.0,0.0,0.0,0.0,0.0,0.0,0.0,0.0,-0.8789,-0.8194,-0.7741,-0.7068,-0.6712,-0.6569,-0.5643,-0.5069,-0.4665,-0.3265,0.0,0.0,0.0,0.0,0.0,0.0,0.0,0.0,0.0,0.0,0.0,0.0,0.0,0.0,0.0,0.0,0.0,0.0,0.0,1.0105,1.0936,1.0274,1.0368,1.1834,1.0568,0.9992,1.0691,1.0094,0.0,0.0,0.0,0.7231,0.706,0.6265,0.7086,0.9629,1.2837,1.482,1.5585,1.5503,1.5193,1.46,1.1246,0.9725,0.9505,0.0,0.0,0.0,0.0,0.0,0.0,0.0,0.0,0.0,0.0,0.0,0.0,0.0,0.0,0.0,0.0,0.0,0.0,0.0,0.0,0.0,0.0,0.0,0.0,0.0,0.0,0.0,0.0,0.0,0.0,0.0,0.0,0.0,0.0,0.0,0.0,0.0,0.0,0.0,0.0,0.0,0.2147,0.0841,0.0,0.0,0.0,0.0,0.0,0.0,0.0,0.0,0.0,0.0,0.0,0.0,0.0,-0.9053,-0.8465,-0.9744,-1.0015,-0.9265,-1.0398,-1.049,-0.9616,-0.8668,-0.8078,-0.7762,-0.6154,0.0,-0.4577,-0.4087,0.0,0.0,0.0,0.0,0.0,0.0,0.0,0.0,0.0,0.0,0.0,0.0,0.0,0.0,0.0,0.0,0.0,0.0,0.0,0.0,0.0,1.2196,1.2551,1.4223,1.3033,1.1981,1.1486,1.1056,0.0,0.0,0.7452,0.7081,0.6617,0.7143,0.929,1.312,1.5982,1.7447,1.7541,1.7336,1.7082,1.6745,1.4755,1.2709,1.0693,0.9771,0.0,0.0,0.0,0.0,0.0,0.0,0.0,0.0,0.0,0.0,0.0,0.0,0.0,0.0,0.0,0.0,0.0,0.0,0.0,0.0,0.0,0.0,0.0,0.0,0.0,0.0,0.0,0.0,0.0,0.0,0.0,0.0,0.0,0.0,0.0,0.0,0.0,0.0,0.0,0.1949,-0.0022,-0.009,-0.238,-0.3831,0.0,0.0,0.0,0.0,0.0,0.0,0.0,0.0,0.0,-0.9602,-0.9579,-0.9865,-1.0555,-1.0678,-1.0453,-0.987,-1.0289,-1.0168,-0.9516,-0.8593,-0.7886,-0.7322,-0.6567,-0.5787,-0.5036,-0.397,-0.3353,-0.3028,0.0,0.0,0.0,0.0,-0.4724,-0.62,0.0,0.0,0.0,0.0,0.0,0.0,0.0,0.0,0.0,0.0,0.0,0.0,1.3927,1.3917,1.4456,1.6132,1.4934,1.3813,1.3088,1.2174,1.0631,0.8357,0.7801,0.728,0.668,0.8906,1.1966,1.5828,1.7886,1.8752,1.8489,1.8229,1.7992,1.7794,1.7219,1.5346,1.2576,1.2109,1.0575,0.8311,0.0,0.0,0.0,0.0,0.0,0.0,0.0,0.0,0.0,0.0,0.0,0.0,0.0,0.0,0.0,0.0,0.0,0.0,0.0,0.0,0.0,0.0,0.0,0.0,0.0,0.0,0.0,0.0,0.0,0.0,0.0,0.0,0.0,0.0,0.0,0.0,0.0,0.1189,-0.0806,-0.1254,-0.445,-0.6029,0.0,0.0,0.0,0.0,0.0,0.0,-0.7358,-0.7294,-0.7584,-0.8372,-0.8396,-0.869,-0.9298,-0.9355,-0.9702,-1.032,-0.9627,-0.9011,-0.8376,-0.753,-0.6905,-0.6456,-0.6493,-0.6266,-0.5737,-0.4448,-0.4108,-0.437,-0.4106,-0.4496,-0.529,-0.5982,-0.7514,-0.9672,0.0,0.0,0.0,0.0,0.0,0.0,0.0,0.0,0.0,0.0,0.0,1.2923,1.4734,1.4691,1.5232,1.6909,1.5244,1.4687,1.6087,1.3254,1.1464,1.1376,0.9377,0.8322,0.8461,1.2297,1.491,1.6165,1.7807,1.8489,1.8208,1.7949,1.7811,1.7811,1.7755,1.7253,1.6296,1.4398,1.312,1.2168,0.9357,0.0,0.0,0.0,0.0,0.0,0.0,0.0,0.0,0.0,0.0,0.0,0.0,0.0,0.0,0.0,0.0,0.0,0.0,0.0,0.0,0.0,0.0,0.0,0.0,0.0,0.0,0.0,0.0,0.0,0.0,0.0,0.0,0.0,0.0,0.0,0.0,0.0,0.0,-0.2219,-0.5671,0.0,0.0,0.0,0.0,-0.7899,-0.797,-0.8755,-1.0667,-1.028,-0.8421,-0.4969,-0.5231,-0.4327,-0.2054,-0.4314,-0.7042,-1.0102,-0.8686,-0.7372,-0.6242,-0.5473,-0.5301,-0.5568,-0.5681,-0.6154,-0.68,-0.6334,-0.6124,-0.6206,-0.7359,-0.8327,-0.9239,-1.1103,-1.2124,-1.2796,0.0,0.0,0.0,0.9768,0.9798,0.9838,0.9869,0.9904,1.0055,1.0416,1.2053,1.3853,1.5589,1.6511,1.7671,1.933,1.7957,1.683,1.6435,1.3722,1.2183,1.2305,1.0311,1.0366,1.2855,1.4698,1.6326,1.7753,1.8148,1.829,1.8187,1.7927,1.7811,1.7811,1.7992,1.7924,1.7601,1.6389,1.5025,1.3531,1.2036,1.0122,0.0,0.0,0.0,0.0,0.0,0.0,0.0,0.0,0.0,0.0,0.0,0.0,0.0,0.0,0.0,0.0,0.0,0.0,0.0,0.0,0.0,0.0,0.0,0.0,0.0,0.0,0.0,0.0,0.0,0.0,0.0,0.0,0.0,0.0,0.0,0.0,0.0,-0.2782,-0.6426,0.0,-0.7639,-0.7915,-0.8677,-0.9965,-1.0352,-1.1008,-1.2038,-1.1916,-1.11,-0.9531,-0.6789,-0.3474,0.0406,-0.0567,-0.1972,-0.3729,-0.3456,-0.3119,-0.2688,-0.3108,-0.3611,-0.4326,-0.6253,-0.7706,-0.8776,-0.9953,-0.9873,-0.9113,-1.0052,-1.1204,-1.2476,-1.3682,-1.4726,-1.5671,0.0,0.0,0.0,0.9838,0.9882,0.9904,0.9933,0.9962,1.0331,1.1191,1.2895,1.4787,1.6772,1.798,1.9078,2.021,1.927,1.8285,1.756,1.4854,1.3194,1.3036,1.1059,1.1704,1.5382,1.5954,1.6887,1.833,1.8249,1.8146,1.8078,1.7883,1.7811,1.7811,1.8082,1.8249,1.8316,1.7925,1.6831,1.5266,1.4065,1.2234,1.0044,0.0,0.0,0.0,0.0,0.0,0.0,0.0,0.0,0.0,0.0,0.0,0.0,0.0,0.0,0.0,0.0,0.0,0.0,0.0,0.0,0.0,0.0,0.0,0.0,0.0,0.0,0.0,0.0,0.0,0.0,0.0,0.0,0.0,0.0,-0.5731,-0.7264,-0.502,-0.8142,-0.9974,-0.8659,-0.9972,-1.1298,-1.2289,-1.2654,-1.2961,-1.3233,-1.2701,-1.1479,-0.9495,-0.601,-0.1325,0.4626,0.2567,0.1767,0.2187,-0.0455,-0.0468,0.175,-0.0086,-0.1688,-0.311,-0.6454,-0.8863,-1.0629,-1.2615,-1.3373,-1.3241,-1.3306,-1.4149,-1.541,-1.5989,-1.6881,-1.7848,0.0,0.0,0.9899,0.9899,0.9899,0.9927,0.9987,0.9997,1.0924,1.3525,1.4357,1.5657,1.8181,1.8957,1.9289,1.9289,1.886,1.8886,1.9591,1.6553,1.4414,1.3702,1.1792,1.2349,1.5791,1.6115,1.6754,1.7811,1.8078,1.804,1.7811,1.7811,1.7811,1.7833,1.8082,1.8371,1.8623,1.8896,1.8515,1.7541,1.5408,1.41,1.3059,0.0,0.0,0.0,0.0,0.0,0.0,0.0,0.0,0.0,0.0,0.0,0.0,0.0,0.0,0.0,0.0,0.0,0.0,0.0,0.0,0.0,0.0,0.0,0.0,0.0,0.0,0.0,0.0,0.0,0.0,0.0,0.0,0.0,-0.8758,-0.9665,-0.9931,-0.9003,-1.0847,-1.1787,-1.0784,-1.1937,-1.3302,-1.4686,-1.4732,-1.4576,-1.4348,-1.2787,-0.958,-0.45,-0.2795,0.2018,1.0311,0.4818,0.3608,0.6642,-0.0261,0.0044,0.6588,0.323,0.04,-0.2087,-0.6163,-0.9486,-1.2149,-1.4095,-1.6315,-1.8294,-1.7075,-1.7201,-1.8075,-1.821,-1.8682,-1.9269,0.9805,0.9893,0.9962,0.9962,1.0001,1.0052,1.007,1.0074,1.0774,1.2772,1.3997,1.546,1.7426,1.8628,1.9227,1.9102,1.8789,1.8444,1.8054,1.488,1.2986,1.298,1.4964,1.6547,1.7527,1.7418,1.7497,1.7811,1.7861,1.7861,1.7811,1.7811,1.7905,1.8103,1.8371,1.8641,1.8896,1.8966,1.8857,1.8496,1.6733,1.5108,1.356,0.0,0.0,0.0,0.0,0.0,0.0,0.0,0.0,0.0,0.0,0.0,0.0,0.0,0.0,0.0,0.0,0.0,0.0,0.0,0.0,0.0,0.0,0.0,0.0,0.0,0.0,0.0,0.0,0.0,0.0,0.0,-0.8632,-0.9548,-0.8748,-0.956,-1.0387,-1.0858,-1.1655,-1.2381,-1.2816,-1.319,-1.3737,-1.4506,-1.4585,-1.4626,-1.4806,-1.4364,-1.341,-1.1881,-0.7808,-0.4137,-0.0949,-0.037,0.0037,0.0232,-0.1339,-0.1279,0.0205,0.0986,-0.0475,-0.3806,-0.7223,-1.0066,-1.2439,-1.4427,-1.6703,-1.8891,-1.8626,-1.9021,-1.9759,-1.9841,-1.9865,-1.9856,0.9893,0.9962,1.0029,1.0029,1.0074,1.0094,1.0094,1.0094,1.0966,1.3352,1.4268,1.5608,1.8004,1.8879,1.923,1.9018,1.9055,1.8423,1.6905,1.4311,1.3349,1.4443,1.6214,1.7466,1.8018,1.7883,1.7811,1.7811,1.7811,1.7811,1.7811,1.7811,1.7949,1.8208,1.8469,1.8697,1.8825,1.8949,1.8878,1.8536,1.6972,1.5766,1.4745,1.3272,1.1987,1.0895,1.0338,1.0141,1.0159,1.0255,0.0,0.0,0.0,0.0,0.0,0.0,0.0,0.0,0.0,0.0,0.0,0.0,0.0,0.0,0.0,0.0,0.0,0.0,0.0,0.0,0.0,0.0,0.0,0.0,-1.0354,-1.0391,-1.022,-1.0576,-1.121,-1.2135,-1.2771,-1.3471,-1.422,-1.4292,-1.4493,-1.5015,-1.4721,-1.4676,-1.5016,-1.488,-1.4679,-1.444,-1.1571,-0.9365,-0.7916,-0.6269,-0.5456,-0.5506,-0.5231,-0.5263,-0.5596,-0.4215,-0.4261,-0.5539,-0.8626,-1.1191,-1.3311,-1.4643,-1.6503,-1.8562,0.0,0.0,0.0,0.0,-2.0041,-1.9985,0.9997,1.0042,1.0094,1.0094,1.0094,1.0094,1.0094,1.0094,1.1273,1.4599,1.4828,1.5961,1.925,1.9409,1.9164,1.8966,1.939,1.8643,1.6234,1.4762,1.4848,1.676,1.6323,1.6564,1.7777,1.7811,1.7811,1.7811,1.7811,1.7811,1.7811,1.7811,1.7949,1.8208,1.8469,1.8585,1.8622,1.8843,1.866,1.8087,1.6649,1.6133,1.6043,1.4395,1.3484,1.2897,1.1503,1.0998,1.0911,1.0483,0.0,0.0,0.0,0.0,0.0,0.0,0.0,0.0,0.0,0.0,0.0,0.0,0.0,0.0,0.0,0.0,0.0,0.0,0.0,0.0,0.0,0.0,0.0,0.0,-1.1469,-1.1206,-1.2253,-1.2148,-1.2246,-1.3081,-1.3969,-1.469,-1.5134,-1.5165,-1.5359,-1.577,-1.5043,-1.4721,-1.5074,-1.4721,0.0,0.0,0.0,-1.3373,-1.1756,-1.1916,-1.1516,-1.0511,-1.0399,-1.0357,-1.0449,-1.0318,-0.9148,-0.7404,-0.9967,-1.2221,-1.408,-1.4541,-1.5927,-1.7807,-1.8715,-1.9375,-1.981,-1.9619,-1.9692,-1.9865,1.0025,1.0042,1.0094,1.0094,1.0094,1.0094,1.0094,1.0094,1.132,1.4724,1.4887,1.5995,1.9385,1.9346,1.8966,1.8715,1.9094,1.8581,1.67,1.6426,1.6205,1.5877,1.6855,1.7529,1.7772,1.7811,1.7811,1.7811,1.7811,1.7811,1.7811,1.7811,1.7949,1.8208,1.8469,1.8585,1.8604,1.8659,1.8489,1.8101,1.7,1.6223,1.5581,1.4174,1.3574,1.3491,1.351,1.3403,1.3352,1.4005,1.2975,1.1546,1.2115,1.0904,0.0,0.0,0.0,0.0,0.0,0.0,0.0,0.0,0.0,0.0,0.0,0.0,0.0,0.0,0.0,0.0,0.0,0.0,0.0,-1.184,-1.2086,-1.1899,-1.2348,-1.2726,-1.3246,-1.4101,-1.4387,-1.4814,-1.558,-1.5668,-1.5712,-1.5799,-1.5285,-1.5013,-1.5104,-1.4721,-1.447,-1.4406,-1.4429,-1.4259,-1.3899,-1.3952,-1.3854,-1.3638,-1.2762,0.0,-1.2448,-1.0735,-0.981,-0.9566,-0.9672,-1.0776,-1.2601,-1.344,-1.5381,-1.7958,-1.8993,-1.9649,-2.0035,-1.9994,-2.0078,-2.0202,1.0104,1.0136,1.0156,1.0156,1.0113,1.0094,1.0094,1.0094,1.1153,1.4061,1.4673,1.5763,1.8188,1.8244,1.7781,1.7021,1.6641,1.6551,1.6789,1.6502,1.6427,1.6695,1.7422,1.7811,1.7811,1.7811,1.7811,1.7811,1.7811,1.7811,1.7811,1.7811,1.7949,1.8208,1.833,1.8391,1.8391,1.8391,1.833,1.8097,1.7092,1.6399,1.5817,1.4657,1.4011,1.378,1.4078,1.4136,1.4136,1.471,1.4083,1.3124,1.3564,1.2409,1.0723,0.0,0.0,0.0,0.0,0.0,0.0,0.0,0.0,0.0,0.0,0.0,0.0,0.0,0.0,-0.0731,-0.3292,0.0,-0.8016,-1.2476,-1.2343,-1.1832,-1.2381,-1.2482,-1.2906,-1.4052,-1.4214,-1.4533,-1.5359,-1.5448,-1.5551,-1.577,-1.558,-1.5448,-1.5448,-1.5419,-1.5286,-1.5048,-1.5448,-1.5448,-1.5048,-1.5286,-1.5196,-1.4783,-1.4028,-1.3638,-1.3437,-1.1895,-1.1131,-1.0987,-1.0406,-1.0845,-1.2083,-1.3604,-1.542,-1.73,-1.823,-1.9122,-1.9922,-2.0046,-2.0176,-2.0305,1.0201,1.0205,1.0198,1.0198,1.0156,1.0113,1.0094,1.0094,1.0914,1.3208,1.4068,1.5043,1.65,1.6637,1.6226,1.5311,1.449,1.4848,1.6787,1.6336,1.6559,1.776,1.7811,1.7811,1.7811,1.7811,1.7811,1.7811,1.7811,1.7811,1.7811,1.7811,1.7905,1.8125,1.8166,1.8187,1.8187,1.8187,1.8229,1.818,1.7175,1.6595,1.6198,1.5275,1.4485,1.3927,1.4136,1.4201,1.4208,1.4422,1.4368,1.4277,1.4434,1.3578,1.2347,1.1499,1.0408,0.0,0.0,0.0,0.0,0.0,0.0,0.0,0.0,-0.0372,-0.0253,-0.2777,-0.363,-0.4792,-0.7645,-0.7757,-0.8784,-1.3057,-1.2468,-1.1707,-1.2401,-1.2102,-1.227,-1.3488,-1.3789,-1.42,-1.5013,-1.5255,-1.5492,-1.587,-1.5955,-1.5983,-1.5983,-1.6246,-1.6227,-1.5846,-1.6454,-1.648,-1.5846,-1.6145,-1.5966,-1.533,-1.4845,-1.4406,-1.4,-1.3148,-1.2461,-1.192,-1.1468,-1.1568,-1.2211,-1.4187,-1.553,-1.6406,-1.7266,-1.8324,-1.9398,-1.9824,-2.008,-2.0188,1.0193,1.0205,1.0207,1.019,1.0194,1.0175,1.0113,1.0094,1.0748,1.257,1.2693,1.325,1.4953,1.4736,1.4584,1.4923,1.5314,1.5946,1.6855,1.7305,1.7642,1.7772,1.7811,1.7811,1.7811,1.7811,1.7811,1.7811,1.7811,1.7811,1.7811,1.7811,1.7811,1.7856,1.8082,1.8187,1.8187,1.8187,1.833,1.8457,1.7474,1.6763,1.6231,1.5565,1.4731,1.3927,1.4136,1.4165,1.4149,1.4404,1.4451,1.4396,1.4469,1.4247,1.3869,1.3412,1.155,0.9463,0.8507,0.4496,0.0426,-0.0235,-0.2016,-0.3111,0.0,-0.1499,-0.2512,-0.374,-0.5678,-0.7799,-0.9882,-1.1815,-1.3199,-1.3551,-1.2716,-1.2136,-1.2448,-1.2102,-1.2029,-1.2603,-1.3336,-1.4146,-1.5029,-1.5754,-1.6176,-1.6246,-1.6528,-1.6686,-1.6686,-1.6712,-1.6712,-1.667,-1.6763,-1.6763,-1.667,-1.6421,-1.6258,-1.6148,-1.5389,-1.4814,-1.4406,-1.3954,-1.3251,-1.2437,-1.2354,-1.2567,-1.306,-1.4439,-1.5286,-1.5801,-1.6856,-1.7611,-1.8215,-1.9207,-1.9653,-1.9829,1.0202,1.0196,1.0205,1.019,1.0205,1.0194,1.0156,1.0133,1.0528,1.1733,1.2198,1.2657,1.3328,1.2695,1.1949,1.1245,1.2875,1.4258,1.4986,1.6379,1.7354,1.7794,1.7811,1.7811,1.7811,1.7811,1.7811,1.7811,1.7811,1.7811,1.7811,1.7811,1.7811,1.7811,1.7905,1.7971,1.7971,1.8125,1.8351,1.8567,1.8137,1.7719,1.7243,1.6366,1.5586,1.4912,1.4598,1.4154,0.0,1.4509,1.4332,1.3916,1.4455,1.4121,1.3412,1.2562,1.0804,0.8512,0.5676,0.238,-0.0696,-0.2494,-0.2906,-0.3573,-0.6262,-0.6396,-0.6723,-0.9366,-1.069,-1.1582,-1.2321,-1.2833,-1.3255,-1.3648,-1.2675,-1.2013,-1.2425,-1.2102,-1.1957,-1.2425,-1.3452,-1.4332,-1.4972,-1.5564,-1.6102,-1.6554,-1.6712,-1.6789,-1.6789,-1.6977,-1.7101,-1.7101,-1.7288,-1.7288,-1.7101,-1.7136,-1.7086,-1.6861,-1.6155,-1.5719,-1.5517,-1.48,-1.3949,-1.2936,-1.2639,-1.2591,-1.2834,-1.416,-1.4927,-1.5345,-1.63,-1.7028,-1.7662,-1.867,-1.9325,-1.9743,1.02,1.0201,1.0215,1.0215,1.0033,0.9864,0.984,1.0002,1.0232,1.0565,1.1283,1.1724,1.161,1.0785,0.9848,0.892,1.098,1.2643,1.3357,1.5328,1.6689,1.7168,1.7388,1.7507,1.7507,1.7507,1.7507,1.7507,1.7304,1.7202,1.7202,1.7202,1.7202,1.7202,1.7202,1.7267,1.7398,1.7504,1.7781,1.8128,1.8039,1.7796,1.7348,1.6577,1.5764,1.4982,1.4516,1.397,1.3505,1.3752,1.3536,1.3205,1.3495,1.2957,1.1962,1.0656,0.8364,0.5326,0.1075,-0.1306,-0.3258,-0.6083,-0.5891,-0.6288,-1.1239,-1.1241,-1.0986,-1.3654,-1.4258,-1.4186,-1.3878,-1.3519,-1.3395,-1.3838,-1.2969,-1.2314,-1.2624,-1.2162,-1.2043,-1.2718,-1.3754,-1.4726,-1.5487,-1.5936,-1.6412,-1.6994,-1.7134,-1.7199,-1.7199,-1.7344,-1.7455,-1.7455,-1.7681,-1.7681,-1.7439,-1.7688,-1.7678,-1.7423,-1.6808,-1.6438,-1.6261,-1.5335,-1.4498,-1.37,-1.3168,-1.2997,-1.3185,-1.4105,-1.4724,-1.5092,-1.5881,-1.6565,-1.7263,-1.8089,-1.8873,-1.9561,1.0198,1.0201,1.0215,1.0293,0.959,0.9016,0.8941,0.9659,0.9886,0.9,0.9522,0.9932,0.9802,0.9055,0.8865,0.9606,1.0925,1.199,1.2585,1.4691,1.586,1.5683,1.636,1.6733,1.6733,1.6733,1.6733,1.6733,1.6018,1.5663,1.5663,1.5663,1.5663,1.5663,1.5663,1.5914,1.634,1.6079,1.6355,1.6922,1.667,1.624,1.5766,1.5747,1.4756,1.3382,1.3419,1.3514,1.3347,1.1757,1.1791,1.2337,1.1183,1.0438,0.9667,0.7937,0.3933,-0.0874,-0.5163,-0.7555,-0.9543,-1.2558,-1.3946,-1.4647,-1.4924,-1.4891,-1.4736,-1.4538,-1.4739,-1.4756,-1.4023,-1.457,-1.4912,-1.4279,-1.3827,-1.3448,-1.3116,-1.2342,-1.2248,-1.3415,-1.4231,-1.5306,-1.6873,-1.7405,-1.7648,-1.767,-1.7984,-1.8166,-1.8166,-1.7927,-1.7789,-1.7789,-1.7789,-1.7789,-1.7789,-1.7792,-1.7773,-1.7789,-1.7309,-1.6801,-1.6261,-1.5335,-1.4864,-1.4814,-1.4299,-1.4264,-1.4625,-1.4542,-1.4752,-1.5134,-1.5639,-1.6219,-1.6876,-1.7428,-1.8216,-1.9132,1.0194,1.0197,1.0206,1.0235,0.9522,0.8931,0.8897,0.9115,0.9157,0.8839,0.9403,0.0,0.0,0.0,0.0,0.0,0.9374,1.0695,1.1925,1.3555,1.4704,1.5176,1.583,1.6167,1.6167,1.603,1.5967,1.5967,1.5714,1.5595,1.5595,1.5595,1.5673,1.579,1.579,1.5974,1.6253,1.6284,1.6427,1.6642,1.6733,1.6657,1.6568,1.7232,1.5755,1.334,0.0,1.2501,1.1101,1.1255,1.0973,1.058,1.0616,0.9595,0.7518,0.3134,-0.0976,-0.484,-0.816,-1.0549,-1.2484,-1.416,-1.5208,-1.5605,-1.4875,-1.4963,-1.4992,-1.4253,-1.4154,-1.41,-1.3764,-1.4413,-1.4781,-1.4116,-1.4069,-1.4028,-1.3683,-1.3361,-1.3437,-1.4046,-1.5168,-1.6192,-1.7025,-1.7613,-1.8059,-1.8278,-1.8232,-1.8187,-1.8187,-1.7949,-1.7811,-1.7811,-1.7811,-1.7811,-1.7811,-1.8237,-1.8473,-1.8461,-1.7992,-1.7306,-1.641,-1.5741,-1.5417,-1.5392,-1.4865,-1.4914,-1.5362,-1.5108,-1.5324,-1.5787,-1.5773,-1.6219,-1.6876,-1.7349,-1.8162,-1.9082,1.0194,1.0208,1.0202,1.0197,0.9475,0.0,0.0,0.0,0.0,0.0,0.0,0.0,0.0,0.0,0.0,0.0,0.0,0.9501,1.0756,1.2219,1.3229,1.3728,1.4357,1.4708,1.4708,1.459,1.4639,1.4893,1.4674,1.4674,1.4877,1.4877,1.4949,1.5072,1.5072,1.5192,1.5388,1.5641,1.596,1.6242,1.5864,1.5709,1.569,1.574,1.4024,0.0,1.1419,1.01,0.8513,0.9286,0.9247,0.8832,0.8581,0.6646,0.354,-0.1313,-0.4848,-0.7809,-1.0586,-1.2443,-1.3841,-1.4823,-1.5378,-1.5516,-1.4987,-1.4743,-1.4574,-1.4284,-1.38,-1.34,-1.3341,-1.4226,-1.4769,-1.4115,-1.4622,-1.4914,-1.4259,-1.4172,-1.4351,-1.4732,-1.5895,-1.6873,-1.7457,-1.8049,-1.8513,-1.8734,-1.8489,-1.8351,-1.8351,-1.7992,-1.7811,-1.7811,-1.7811,-1.7811,-1.7811,-1.8221,-1.855,-1.875,-1.8309,-1.7747,-1.7063,-1.6312,-1.5994,-1.5957,-1.5404,-1.5569,-1.6184,-1.579,-1.607,-1.6617,-1.6278,-1.6545,-1.7187,-1.7432,-1.8137,-1.9091,1.0171,1.019,1.019,0.0,0.0,0.0,0.0,0.0,0.0,0.0,0.0,0.0,0.0,0.0,0.0,0.0,0.0,0.0,0.9144,1.0607,1.1435,1.1411,1.2117,1.2529,1.2564,1.255,1.2863,1.3487,1.2903,1.2931,1.3496,1.3496,1.3496,1.3511,1.3511,1.3631,1.3831,1.4162,1.4825,1.5521,1.4062,1.3405,1.3138,1.1639,0.9972,0.8332,0.7598,0.6672,0.5846,0.6113,0.6736,0.7068,0.5129,0.1875,-0.1837,-0.5026,-0.7526,-0.9812,-1.2394,-1.3368,-1.3848,-1.4745,-1.491,-1.4925,-1.5331,-1.4492,-1.3825,-1.4553,-1.3619,-1.2698,-1.2729,-1.3987,-1.4812,-1.4202,-1.5323,-1.59,-1.4799,-1.4673,-1.4902,-1.5489,-1.6362,-1.7271,-1.8153,-1.8697,-1.9002,-1.9002,-1.8734,-1.8566,-1.8566,-1.8082,-1.7811,-1.7811,-1.7811,-1.7811,-1.7811,-1.7825,-1.8125,-1.8634,-1.8276,-1.8106,-1.8027,-1.6993,-1.6522,-1.6484,-1.5998,-1.631,-1.7119,-1.66,-1.6913,-1.7667,-1.701,-1.7193,-1.7786,-1.7609,-1.8155,-1.9085,0.0,0.0,0.0,0.0,0.0,0.0,0.0,0.0,0.0,0.0,0.0,0.0,0.0,0.0,0.0,0.0,0.0,0.0,0.7676,0.8718,0.955,1.0131,1.0765,1.1397,1.199,1.1859,1.1859,1.2047,1.1786,1.1799,1.2026,1.1933,1.2013,1.227,1.2317,1.2446,1.2658,1.2831,1.2676,1.2294,1.1892,1.1315,1.077,1.1699,1.0174,0.7672,0.8803,0.718,0.4652,0.5816,0.5556,0.4442,0.2589,-0.0171,-0.3104,-0.493,-0.75,-1.0024,-1.1421,-1.29,-1.4157,-1.4593,-1.5536,-1.6001,-1.4745,-1.4935,-1.4932,-1.3464,-1.2871,-1.2463,-1.1864,-1.298,-1.3694,-1.2788,-1.391,-1.4707,-1.41,-1.4557,-1.5239,-1.6129,-1.6986,-1.7821,-1.8716,-1.8734,-1.8789,-1.8984,-1.8566,-1.831,-1.831,-1.7992,-1.7811,-1.7811,-1.7811,-1.7811,-1.7811,-1.8302,-1.8393,-1.81,-1.8086,-1.7907,-1.7463,-1.6795,-1.6522,-1.6509,-1.6767,-1.725,-1.783,-1.7593,-1.7853,-1.8388,-1.7697,-1.7578,-1.7861,-1.8299,-1.8673,-1.9085,0.0,0.0,0.0,0.0,0.0,0.0,0.0,0.0,0.0,0.0,0.0,0.0,0.0,0.0,0.0,0.0,0.0,0.0,0.0,0.7414,0.8109,0.8621,0.8967,0.9362,0.9824,0.9708,0.9963,1.0585,1.0239,1.0426,1.111,1.0667,1.0568,1.0753,1.0793,1.0874,1.1033,1.1256,1.1281,0.0,0.0,0.9803,0.9326,0.9559,0.8127,0.6131,0.696,0.5331,0.2787,0.2876,0.2181,0.1129,0.0438,-0.1186,-0.3116,-0.4659,-0.6194,-0.7832,-0.9811,-1.1371,-1.2686,-1.3735,-1.4501,-1.4776,-1.3908,-1.3804,-1.3548,-1.2358,-1.1792,-1.1293,-1.0638,-1.1942,-1.2812,-1.1806,-1.3544,-1.4874,-1.4465,-1.521,-1.6044,-1.6701,-1.7496,-1.8186,-1.8604,-1.8604,-1.8566,-1.8469,-1.831,-1.8187,-1.8187,-1.7949,-1.7811,-1.7811,-1.7811,-1.7726,-1.7572,-1.8383,-1.8532,-1.8026,-1.8083,-1.7947,-1.7626,-1.6837,-1.6522,-1.6522,-1.7076,-1.7585,-1.8104,-1.8002,-1.8286,-1.8729,-1.8047,-1.7864,-1.8083,-1.8616,-1.9218,-1.9812,0.0,0.0,0.0,0.0,0.0,0.0,0.0,0.0,0.0,0.92,0.7517,0.6277,0.6255,0.5529,0.0,0.0,0.0,0.0,0.0,0.0,0.6881,0.7103,0.7114,0.7175,0.7303,0.7303,0.7895,0.9125,0.8574,0.8956,1.014,0.943,0.9114,0.9135,0.9143,0.9178,0.926,0.9571,1.0058,1.0536,0.914,0.8459,0.8115,0.0,0.5311,0.4362,0.3725,0.2338,0.0539,-0.1111,-0.1795,-0.1852,-0.1296,-0.1557,-0.2363,-0.384,-0.3998,-0.4348,-0.7236,-0.8545,-0.954,-1.1343,-1.1505,-1.1375,-1.2115,-1.1388,-1.0722,-1.127,-1.0734,-1.0003,-0.9493,-1.0957,-1.1986,-1.1204,-1.361,-1.5494,-1.523,-1.6174,-1.7019,-1.7256,-1.7962,-1.8404,-1.8313,-1.845,-1.8351,-1.7883,-1.8121,-1.8249,-1.8146,-1.7927,-1.7811,-1.7811,-1.7811,-1.7635,-1.7248,-1.8194,-1.8478,-1.813,-1.8012,-1.8023,-1.8066,-1.6993,-1.6522,-1.6522,-1.7146,-1.7585,-1.7903,-1.806,-1.8289,-1.8553,-1.8007,-1.7969,-1.8238,-1.8674,-1.9577,-2.0562,0.0,0.0,0.0,0.0,0.0,0.0,0.0,0.0,0.0,0.0,0.9225,0.7212,0.0,0.0,0.0,0.0,0.0,0.0,0.0,0.0,0.0,0.6119,0.6197,0.6557,0.7285,0.7303,0.7421,0.7665,0.7439,0.7531,0.7861,0.7678,0.7635,0.7757,0.7805,0.7841,0.7857,0.8035,0.7774,0.7232,0.6951,0.6327,0.5532,0.5101,0.0,0.0,0.2088,0.0223,-0.1582,-0.305,-0.274,-0.1821,-0.2188,-0.1904,-0.1383,-0.1028,-0.1034,-0.1303,-0.211,-0.2826,-0.3528,-0.4322,-0.4174,-0.4463,-0.6867,-0.7312,-0.7908,-1.0283,-1.0592,-1.0218,-0.9528,-1.0196,-1.0847,-1.0861,-1.2853,-1.4546,-1.4984,-1.6492,-1.771,-1.8126,-1.8422,-1.8643,-1.8843,-1.8508,-1.8229,-1.8125,-1.8534,-1.8506,-1.7895,-1.7833,-1.7811,-1.7811,-1.7811,-1.7519,-1.6892,-1.7604,-1.7905,-1.7779,-1.7454,-1.757,-1.8066,-1.6993,-1.6522,-1.6552,-1.7544,-1.7502,-1.6874,-1.7735,-1.7619,-1.6937,-1.7139,-1.739,-1.7749,-1.8636,-1.9281,-1.9771,0.0,0.0,0.0,0.0,0.0,0.0,0.0,1.2022,1.2574,1.5586,1.4126,1.1939,0.9629,0.8158,0.7136,0.0,0.0,0.0,0.0,0.0,0.0,0.5957,0.5982,0.5997,0.6002,0.6002,0.6218,0.6672,0.0,0.6214,0.6715,0.6255,0.6081,0.6157,0.6181,0.6226,0.6251,0.6312,0.608,0.5663,0.5677,0.5337,0.4819,0.4545,0.0,0.0,0.0606,-0.1178,-0.2839,-0.3826,-0.4193,-0.405,-0.2906,-0.1975,-0.0945,0.0789,0.1348,0.1297,0.095,0.0503,-0.0176,-0.1393,-0.1462,-0.1999,-0.4991,-0.5628,-0.6317,-0.8952,-0.9715,-0.9663,-0.8958,-0.9697,-1.0339,-1.016,-1.2589,-1.4644,-1.5002,-1.6895,-1.8377,-1.8682,-1.886,-1.893,-1.8807,-1.8547,-1.829,-1.8014,-1.8557,-1.8572,-1.7845,-1.7811,-1.7811,-1.7811,-1.7811,-1.7566,-1.7052,-1.7556,-1.7867,-1.7941,-1.7363,-1.7435,-1.8066,-1.6993,-1.6522,-1.6552,-1.7353,-1.7384,-1.697,-1.7484,-1.7383,-1.6905,-1.6817,-1.7159,-1.7773,-1.8452,-1.9418,-2.0374,0.0,0.0,0.0,0.0,0.0,0.0,0.0,1.4338,1.5266,1.9049,1.8453,1.642,1.3034,1.0339,0.844,0.0,0.0,0.0,0.0,0.0,0.0,0.0,0.0,0.0,0.4811,0.0,0.0,0.5833,0.5218,0.0,0.0,0.0,0.0,0.0,0.5015,0.5048,0.5099,0.5077,0.5045,0.0,0.0,0.4846,0.4554,0.0,0.0,0.0,0.0,-0.2344,-0.3749,-0.4687,-0.5633,-0.6024,-0.3836,-0.2391,-0.0936,0.1986,0.3294,0.3786,0.3723,0.3716,0.3293,0.1663,0.1647,0.1077,-0.2576,-0.3395,-0.441,-0.7941,-0.9004,-0.9135,-0.8641,-0.9424,-1.0089,-0.9869,-1.2409,-1.4604,-1.5176,-1.7101,-1.8603,-1.8963,-1.9134,-1.9049,-1.8566,-1.8508,-1.842,-1.8149,-1.8824,-1.8948,-1.8318,-1.8262,-1.8217,-1.8048,-1.8048,-1.7763,-1.7199,-1.7464,-1.7688,-1.7854,-1.734,-1.7356,-1.7873,-1.7053,-1.6595,-1.6522,-1.7076,-1.7164,-1.6977,-1.7086,-1.6967,-1.6728,-1.6309,-1.6793,-1.7773,-1.8073,-1.9354,-2.0877,0.0,0.0,0.0,0.0,0.0,0.0,0.0,1.3906,1.567,2.0619,1.9196,1.7542,1.7157,1.4776,1.192,0.0,0.0,0.0,0.0,0.0,0.0,0.0,0.0,0.0,0.0,0.0,0.0,0.5002,0.4998,0.0,0.0,0.0,0.0,0.0,0.0,0.5093,0.5095,0.5044,0.0,0.0,0.0,0.0,0.0,0.0,0.0,0.0,0.0,-0.3512,-0.4537,-0.6602,-0.6614,-0.5731,-0.5421,-0.3886,-0.1437,0.2544,0.4801,0.6257,0.7377,0.8415,0.8968,0.8122,0.9062,0.8843,0.3622,0.1733,-0.0859,-0.7805,-0.9265,-0.9304,-0.9294,-0.9505,-0.9957,-1.0807,-1.2008,-1.3493,-1.5469,-1.672,-1.7819,-1.8888,-1.9036,-1.8825,-1.829,-1.8229,-1.8506,-1.9204,-1.994,-2.0175,-1.9824,-1.9799,-1.9478,-1.8826,-1.8792,-1.8169,-1.6866,-1.6879,-1.6886,-1.6832,-1.6891,-1.7022,-1.7191,-1.7223,-1.6951,-1.6522,-1.7076,-1.6736,-1.5878,-1.6375,-1.5997,-1.512,-1.4941,-1.5798,-1.7199,-1.7407,-1.8603,-2.0123,0.0,0.0,0.0,0.0,0.0,0.0,1.4801,1.4597,1.6141,2.2268,2.13,2.0024,1.9996,1.7694,1.4329,0.9792,0.0,0.0,0.0,0.0,0.0,0.0,0.0,0.0,0.0,0.0,0.5695,0.5735,0.6302,0.0,0.0,0.0,0.0,0.0,0.0,0.4947,0.4781,0.4647,0.0,0.0,0.0,0.0,0.0,0.0,0.0,0.0,0.0,0.0,-0.5466,-0.6487,-0.7198,-0.7446,-0.6035,-0.5696,-0.4905,-0.0367,0.2425,0.4233,0.5268,0.7177,0.8744,0.8206,0.8851,0.8031,0.1988,0.0488,-0.1492,-0.8108,-0.9383,-0.935,-0.9547,-0.9231,-0.9275,-1.0339,-1.1273,-1.2324,-1.3578,-1.493,-1.6299,-1.7633,-1.7615,-1.7819,-1.859,-1.8391,-1.8625,-1.9686,-2.0489,-2.1063,-2.138,-2.0491,-1.9647,-1.891,-1.8894,-1.8235,-1.6815,-1.6789,-1.6968,-1.7309,-1.704,-1.717,-1.7669,-1.7397,-1.6993,-1.6522,-1.671,-1.6358,-1.5679,-1.6241,-1.5844,-1.4862,-1.5106,-1.5966,-1.7114,-1.737,-1.8536,-2.0034,0.0,0.0,0.0,0.0,0.0,1.0407,1.505,1.5201,1.6657,2.1919,2.1798,2.111,2.0821,1.827,1.512,1.1492,1.0413,0.0,0.0,0.0,0.0,0.0,0.0,0.0,0.0,0.0,0.6639,0.668,0.7327,0.7331,0.0,0.0,0.6027,0.5311,0.0,0.0,0.0,0.0,0.0,0.0,0.0,0.0,0.0,0.0,0.0,0.0,0.0,0.0,0.0,0.0,0.0,-0.8756,-0.7265,-0.7562,-0.7615,-0.3385,-0.0713,0.1017,0.1615,0.3607,0.5374,0.5016,0.5365,0.435,-0.1276,-0.2127,-0.3229,-0.8507,-0.9479,-0.9463,-0.9698,-0.9324,-0.9225,-0.9982,-1.0615,-1.1428,-1.259,-1.3497,-1.4661,-1.6356,-1.63,-1.6687,-1.8036,-1.8669,-1.9273,-1.9942,-2.1028,-2.1854,-2.2276,-2.1049,-2.001,-1.9249,-1.9232,-1.8476,-1.6968,-1.6952,-1.7054,-1.7287,-1.7104,-1.7265,-1.7734,-1.7566,-1.7194,-1.6752,-1.6752,-1.6311,-1.569,-1.6262,-1.5842,-1.4865,-1.5338,-1.6146,-1.7141,-1.7394,-1.855,-2.0034,0.0,0.0,0.0,0.0,0.0,0.0,1.3503,1.5474,1.7182,1.8925,1.9825,2.0005,1.9202,1.6012,1.3948,1.3963,1.1531,0.0,0.0,0.0,0.0,0.0,0.0,0.0,0.0,0.0,0.7589,0.7589,0.7652,0.769,0.7664,0.6795,0.6222,0.5831,0.0,0.0,0.0,0.0,0.0,0.0,0.0,0.0,0.0,0.0,0.0,0.0,0.0,0.0,0.0,0.0,0.0,0.0,0.0,-0.9439,-0.8724,-0.5888,-0.4059,-0.294,-0.2931,-0.1937,-0.0986,-0.1331,-0.0949,-0.1468,-0.511,-0.5278,-0.5605,-0.8916,-0.9599,-0.964,-0.9768,-0.9963,-1.0094,-1.0094,-1.0103,-1.0933,-1.3263,-1.2801,-1.3048,-1.5257,-1.5397,-1.5553,-1.6165,-1.9045,-2.063,-2.0035,-2.1687,-2.2573,-2.2293,-2.1583,-2.0822,-2.0002,-1.9985,-1.9135,-1.7296,-1.728,-1.6977,-1.6316,-1.697,-1.7166,-1.6947,-1.7598,-1.7692,-1.7312,-1.7312,-1.6682,-1.5743,-1.6296,-1.5869,-1.4954,-1.5335,-1.6146,-1.713,-1.7318,-1.8511,-2.0034,0.0,0.0,0.0,0.0,0.0,0.0,0.0,1.2299,1.3315,1.6138,1.6217,1.6333,1.7228,1.5266,1.3695,1.3151,1.1287,0.0,0.0,0.0,0.0,0.0,0.0,0.0,0.0,0.8181,0.904,1.0194,1.0258,1.0305,1.0259,0.8225,0.6126,0.3975,0.2243,0.0809,0.0,0.0,0.0,0.0,0.0,0.0,0.0,0.0,0.0,0.0,0.0,0.0,0.0,0.0,0.0,0.0,0.0,0.0,0.0,-0.9553,-0.7271,-0.4836,-0.4793,-0.3167,-0.1564,-0.1892,-0.1556,-0.2009,-0.5324,-0.5712,-0.6229,-0.9247,-0.981,-0.9787,-0.9963,-0.9571,-0.9752,-1.1397,-1.0711,-1.0603,-1.2459,-1.2853,-1.3417,-1.4737,-1.6624,-1.7753,-1.758,-1.9369,-2.039,-2.0027,-2.121,-2.1907,-2.1823,-2.1126,-2.0504,-2.0018,-1.9519,-1.8615,-1.732,-1.7296,-1.732,-1.7318,-1.7737,-1.7926,-1.7939,-1.8361,-1.8299,-1.7827,-1.7463,-1.6863,-1.622,-1.6421,-1.583,-1.4923,-1.5935,-1.6652,-1.7199,-1.7887,-1.8902,-1.996,0.0,0.0,0.0,0.0,0.0,0.0,0.0,1.087,1.1522,1.3599,1.3687,1.4062,1.5415,1.3716,1.252,1.27,1.1172,0.0,0.0,0.0,0.0,0.0,0.0,0.0,0.8588,0.9107,1.0386,1.242,0.9213,0.8534,1.0123,0.4585,0.1749,0.1183,-0.0976,-0.2164,0.0,0.0,0.0,0.0,0.0,0.0,-0.8203,0.0,0.0,0.0,0.0,0.0,0.0,0.0,0.0,0.0,0.0,0.0,0.0,0.0,-0.9275,-0.7439,-0.7863,-0.663,-0.5265,-0.5471,-0.5189,-0.5377,-0.7281,-0.7527,-0.7849,-0.961,-0.992,-0.9918,-1.0078,-0.9628,-0.974,-1.1217,-1.0558,-1.0533,-1.248,-1.2799,-1.3393,-1.4829,-1.6824,-1.802,-1.7899,-1.9421,-2.024,-1.9805,-2.0891,-2.1437,-2.1024,-2.0422,-1.9882,-1.9403,-1.9058,-1.8444,-1.7502,-1.7502,-1.7527,-1.7613,-1.7918,-1.8146,-1.8338,-1.8676,-1.8662,-1.838,-1.7827,-1.7167,0.0,-1.6494,-1.5807,-1.4898,-1.6198,-1.6817,-1.714,-1.8095,-1.8992,-1.983,0.0,0.0,0.0,0.0,0.0,0.0,0.0,1.0794,1.1318,1.1327,1.2021,1.2787,1.347,1.1483,1.0703,1.2202,0.0,0.0,0.0,0.0,0.0,0.0,0.0,0.0,1.0191,1.0161,1.1271,1.3576,0.5341,0.3429,0.7234,-0.2806,-0.5654,-0.2459,-0.501,-0.5421,0.0,0.0,0.0,0.0,-0.8027,-0.8446,0.0,0.0,0.0,0.0,0.0,0.0,0.0,0.0,0.0,0.0,0.0,0.0,0.0,0.0,0.0,0.0,0.0,-1.1376,-1.0922,-1.0917,-1.0749,-1.0525,-1.041,-1.0244,0.0,-0.9945,-0.9964,-1.0058,-1.0169,-1.0098,-1.0035,-1.0139,-1.0019,-1.0748,-1.3234,-1.2918,-1.3343,-1.5747,-1.6403,-1.6912,-1.7577,-1.9299,-2.0135,-1.9563,-2.0809,-2.1136,-2.0185,-1.963,-1.9077,-1.8482,-1.8691,-1.8488,-1.7811,-1.7811,-1.7635,-1.7296,-1.7652,-1.7909,-1.8161,-1.8465,-1.8691,-1.8783,-1.8229,-1.7433,-1.6547,-1.6417,-1.5785,-1.4919,-1.6173,-1.6788,-1.7077,-1.7982,-1.8867,-1.9651,0.0,0.0,0.0,0.0,0.0,0.0,0.0,0.0,0.0,0.0,0.9723,0.9626,0.916,0.9648,0.9668,0.0,0.0,0.0,0.0,0.0,0.0,0.0,0.0,0.0,1.0124,0.9732,0.9158,0.8448,0.3858,0.1171,0.0189,-0.5765,-0.7858,-0.6717,-0.8677,-0.8952,0.0,0.0,0.0,0.0,-0.9256,-0.9453,0.0,0.0,0.0,0.0,-0.9796,-0.9846,0.0,0.0,0.0,0.0,0.0,0.0,0.0,0.0,-1.0197,-1.0241,-1.0526,0.0,-1.0292,-1.0175,-1.0195,-1.021,0.0,-1.0174,-1.0174,-1.0134,-1.0146,-1.0341,-1.0983,-1.0541,-1.0684,-1.2516,-1.1624,-1.157,-1.4006,-1.5175,-1.667,-1.9091,-1.8624,-1.8624,-1.9949,-2.0079,-2.0272,-2.075,-2.0999,-2.1179,-2.1215,-1.9774,-1.9002,-1.917,-1.8449,-1.798,-1.7811,-1.7811,-1.7635,-1.7296,-1.7652,-1.7701,-1.7527,-1.78,-1.8013,-1.8071,-1.7138,-1.6864,-1.7007,-1.5783,-1.5542,-1.5953,-1.6341,-1.6886,-1.7601,-1.8383,-1.9063,-1.9632,0.0,0.0,0.0,0.0,0.0,0.0,0.0,0.0,0.0,0.0,0.0,0.7975,0.7098,0.8085,0.0,0.0,0.0,0.0,0.0,0.0,0.0,0.0,0.0,0.9384,0.8824,0.7772,0.6726,0.569,-0.087,-0.4306,-0.4867,-1.1539,-1.334,-1.0924,-1.0328,-0.9852,0.0,0.0,0.0,0.0,-0.9404,0.0,0.0,0.0,0.0,0.0,-1.0075,-1.0078,0.0,-1.0121,-1.0166,-1.0183,0.0,0.0,0.0,0.0,-1.0157,-1.0167,-1.0188,-1.0171,-1.0139,-1.0059,-1.0091,-1.0149,-1.0147,-1.0166,-1.0202,-1.0195,-1.0193,-1.0334,-1.0778,-1.1072,-1.1402,-1.1919,-1.2384,-1.3523,-1.5882,-1.7555,-1.9005,-2.0221,-1.9936,-1.9803,-2.0135,-2.0408,-2.0625,-2.0849,-2.1128,-2.1176,-2.0866,-1.9722,-1.9033,-1.895,-1.8198,-1.7811,-1.7811,-1.7811,-1.7704,-1.7526,-1.7704,-1.769,-1.7525,-1.7653,-1.763,-1.7496,-1.6648,-1.6413,-1.6507,-1.5556,-1.5522,-1.6121,-1.6634,-1.7311,-1.8051,-1.8735,-1.9246,-1.9623,0.0,0.0,0.0,0.0,0.0,0.0,0.0,0.0,0.0,0.0,0.0,0.0,0.0,0.0,0.0,0.0,0.0,0.0,0.0,0.0,0.0,0.0,0.8905,0.8164,0.6876,0.5332,0.4028,0.3003,-0.6555,-1.0622,-0.9612,-1.8129,-1.9482,-1.466,-1.1256,-0.9786,-0.9801,0.0,0.0,0.0,-0.9217,0.0,0.0,0.0,0.0,0.0,0.0,0.0,0.0,-1.0166,-1.0177,-1.0173,-1.011,0.0,0.0,0.0,0.0,0.0,-1.0325,-1.0376,-1.0349,-1.0234,-1.0209,-1.0209,-1.0187,-1.0187,-1.0178,-1.0176,-1.0171,-1.031,-1.0695,-1.1633,-1.2076,-1.1138,-1.3289,-1.5769,-1.7688,-1.9323,-2.0327,-2.0355,-2.0575,-2.0481,-1.9894,-2.067,-2.1086,-2.0792,-2.1295,-2.1229,-2.0402,-1.9747,-1.9164,-1.8658,-1.8111,-1.7811,-1.7811,-1.7811,-1.7743,-1.7652,-1.7643,-1.7586,-1.748,-1.7364,-1.7122,-1.6795,-1.6201,-1.5811,-1.557,-1.5325,-1.5475,-1.5883,-1.6918,-1.7716,-1.8377,-1.9016,-1.9397,-1.9649,0.0,0.0,0.0,0.0,0.0,0.0,0.0,0.0,0.0,0.0,0.0,0.0,0.0,0.0,0.0,0.0,0.0,0.0,0.0,0.0,0.0,0.7099,0.7537,0.6862,0.4801,0.384,0.1011,-0.3799,-0.9812,-1.4176,-1.6967,-2.2302,-2.2037,-1.6949,-1.3357,-1.1112,-1.0055,-0.9924,0.0,-1.0102,-0.9834,0.0,0.0,0.0,0.0,0.0,0.0,0.0,0.0,-1.0042,-1.0074,-1.0106,-1.0098,0.0,0.0,0.0,0.0,0.0,-1.1015,-1.1211,-1.105,-1.0379,-1.0192,-1.0194,-1.0136,-1.0116,-1.0117,-1.0116,-1.0125,-1.0761,-1.293,-1.2242,-1.2256,-1.505,-1.6286,-1.6996,-1.7286,-1.8578,-1.9888,-2.1005,-2.0392,-2.049,-2.2027,-2.1575,-2.1448,-2.199,-2.1757,-2.1715,-2.191,-2.0323,-1.9502,-1.974,-1.8475,-1.7811,-1.7811,-1.7811,-1.7519,-1.6942,-1.6953,-1.6658,-1.6078,-1.5683,-1.5521,-1.5543,-1.4634,-1.4559,-1.498,-1.4402,-1.4807,-1.5857,-1.6612,-1.7466,-1.8377,-1.9096,-1.9544,-1.9774,0.0,0.0,0.0,0.0,0.0,0.0,0.0,0.0,0.0,0.0,0.0,0.0,0.0,0.0,0.0,0.0,0.0,0.0,0.0,0.0,0.5986,0.5014,0.441,0.3462,0.2117,-0.0764,-0.4674,-0.9627,-1.4281,-1.8177,-2.126,-2.1324,-1.9566,-1.6203,-1.2693,-1.0761,-1.0156,-1.0156,-1.0174,-1.0186,0.0,0.0,0.0,0.0,0.0,0.0,0.0,0.0,0.0,0.0,-1.0074,-1.0094,-1.0094,0.0,0.0,0.0,0.0,0.0,-1.0598,-1.071,-1.0706,-1.0733,-1.1505,-1.2236,-1.2123,-1.2442,-1.2478,-1.1545,-1.133,-1.1695,-1.2833,-1.31,-1.4262,-1.7623,-1.7592,-1.7572,-1.8809,-1.9957,-2.075,-2.1044,-2.1377,-2.1657,-2.1885,-2.1602,-2.1561,-2.1911,-2.1718,-2.1598,-2.1584,-2.0827,-2.0171,-1.9701,-1.8841,-1.82,-1.7811,-1.7811,-1.7549,-1.7076,-1.6892,-1.6528,-1.6067,-1.5653,-1.5262,-1.4837,-1.44,-1.4259,-1.4352,-1.4246,-1.4944,-1.6109,-1.6976,-1.7922,-1.8819,-1.9522,-1.9827,-1.989,0.0,0.0,0.0,0.0,0.0,0.0,0.0,0.0,0.0,0.0,0.0,0.0,0.0,0.0,0.0,0.0,0.0,0.0,0.0,0.0,0.3861,0.2735,0.1044,-0.0334,-0.1346,-0.528,-0.945,-1.3774,-1.7807,-2.1126,-2.3649,-1.9913,-1.7253,-1.5439,-1.2212,-1.0578,-1.0197,-1.0201,-1.0202,-1.0201,0.0,0.0,0.0,0.0,0.0,0.0,0.0,0.0,0.0,0.0,0.0,0.0,0.0,0.0,0.0,-1.0094,-1.0094,-1.0133,-1.0344,-1.0394,-1.0564,-1.1315,-1.2281,-1.3182,-1.3637,-1.4054,-1.4099,-1.3138,-1.2938,-1.298,-1.3167,-1.4604,-1.6477,-1.8671,-1.8235,-1.8305,-2.0286,-2.1103,-2.1407,-2.1182,-2.2197,-2.2478,-2.1393,-2.1491,-2.1552,-2.146,-2.1552,-2.143,-2.1023,-2.1114,-2.0646,-1.9433,-1.9069,-1.8555,-1.7811,-1.7811,-1.7635,-1.7296,-1.6952,-1.6607,-1.6301,-1.5826,-1.5255,-1.4627,-1.4533,-1.4342,-1.4084,-1.4568,-1.5345,-1.6307,-1.7497,-1.854,-1.9446,-1.9956,-2.0096,-2.0003,0.0,0.0,0.0,0.0,0.0,0.0,0.0,0.0,0.0,0.0,0.0,0.0,0.0,0.0,0.0,0.0,0.0,0.0,0.0,0.0,0.1742,0.005,-0.1753,-0.3752,-0.5973,-0.7938,-1.098,-1.5149,-1.8828,-2.1788,-2.3982,-2.0604,-1.8084,-1.6291,-1.3672,-1.166,-1.02,-1.0209,-1.0197,-1.0197,-1.0195,0.0,0.0,0.0,0.0,0.0,0.0,0.0,0.0,0.0,0.0,0.0,0.0,0.0,-1.0094,-1.0094,-1.0094,-1.0286,-1.1098,-1.1259,-1.1411,-1.2215,-1.1343,-1.0858,-1.3024,-1.2989,-1.2884,-1.4242,-1.4532,-1.4794,-1.5659,-1.7206,-1.8127,-1.7475,-1.8528,-1.9731,-2.0648,-2.0668,-2.0916,-2.1812,-2.2028,-2.1948,-2.1582,-2.1595,-2.143,-2.1055,-2.1399,-2.143,-2.1023,-2.1114,-2.0646,-1.9433,-1.9069,-1.8555,-1.7811,-1.7811,-1.7635,-1.7296,-1.6952,-1.6607,-1.6258,-1.5507,-1.5134,-1.5043,-1.4658,-1.447,-1.4519,-1.5213,-1.5775,-1.6344,-1.786,-1.9176,-2.0218,-2.0276,-2.0192,-2.0068,0.0,0.0,0.0,0.0,0.0,0.0,0.0,0.0,0.0,0.0,0.0,0.0,0.0,0.0,0.0,0.0,0.0,0.0,0.0,0.0177,-0.0694,-0.2106,-0.3616,-0.5683,-0.8369,-1.1475,-1.5004,-1.8982,-2.1001,-2.193,-2.1718,-1.8284,-1.5761,-1.4048,-1.203,-1.0792,-1.0194,-1.0205,-1.0195,-1.0193,-1.0198,-1.0186,0.0,0.0,0.0,0.0,0.0,0.0,0.0,0.0,-0.9991,-1.0048,-1.0048,-1.007,-1.0102,-1.0157,-0.9777,-0.9428,-0.9752,-1.0187,-1.0603,-1.0783,-1.1163,-1.2107,-1.4457,-1.5054,-1.5242,-1.5733,-1.5728,-1.5586,-1.5451,-1.7169,-1.8364,-1.7687,-1.8754,-1.983,-2.0313,-2.0987,-2.1491,-2.1668,-2.2133,-2.2229,-2.1639,-2.1368,-2.1039,-2.0583,-2.0715,-2.0748,-2.0583,-2.1138,-2.0804,-1.9449,-1.9521,-1.9029,-1.7805,-1.7811,-1.7743,-1.7612,-1.7272,-1.6825,-1.6301,-1.5981,-1.5565,-1.5104,-1.4937,-1.4876,-1.4907,-1.5404,-1.6076,-1.6979,-1.8562,-1.965,-2.0313,-2.0342,-2.0297,-2.0171,0.0,0.0,0.0,0.0,0.0,0.0,0.0,0.0,0.0,0.0,0.0,0.0,0.0,0.0,0.0,0.0,0.0,0.0,-0.1187,-0.1827,-0.2706,-0.3763,-0.5306,-0.7453,-1.0237,-1.3937,-1.7193,-1.9971,-2.1299,-2.1115,-1.9485,-1.6323,-1.4374,-1.3413,-1.1188,-1.0487,-1.0942,-1.0409,-1.0193,-1.0166,-1.0194,-1.0164,0.0,0.0,0.0,0.0,0.0,0.0,0.0,0.0,-0.9949,-0.9997,-0.9997,-1.0052,-1.0067,-0.9842,-0.9748,-0.9644,-0.9378,-0.9875,-1.0474,-1.059,-1.142,-1.2808,-1.5175,-1.6034,-1.6482,-1.705,-1.6672,-1.613,-1.5812,-1.6923,-1.7826,-1.7694,-1.8804,-1.9846,-2.0291,-2.1306,-2.1984,-2.189,-2.2358,-2.2405,-2.1672,-2.1244,-2.0797,-2.0348,-2.0314,-2.0187,-1.9986,-2.0764,-2.0595,-1.9094,-1.9454,-1.9063,-1.7805,-1.7811,-1.7811,-1.7811,-1.7572,-1.7175,-1.6617,-1.6394,-1.6009,-1.5477,-1.5374,-1.5374,-1.5507,-1.5849,-1.6692,-1.7879,-1.9113,-1.9871,-2.0319,-2.0347,-2.0332,-2.0257,0.0,0.0,0.0,0.0,0.0,0.0,0.0,0.0,0.0,0.0,0.0,0.0,0.0,0.0,0.0,0.0,0.0,0.0,-0.2825,-0.3439,-0.4131,-0.4875,-0.6892,-0.9181,-1.1709,-1.4907,-1.6799,-1.7338,-1.9176,-1.9252,-1.761,-1.5206,-1.4491,-1.5091,-1.1726,-1.1128,-1.2573,-1.0898,-1.0153,-1.0121,-1.0173,-1.0164,-1.009,0.0,0.0,0.0,0.0,0.0,0.0,0.0,-0.9949,-0.9992,-0.9992,-1.0052,-0.9948,-0.9131,-1.0086,-1.1203,-1.0394,-1.0684,-1.1396,-1.2175,-1.2041,-1.2353,-1.4747,-1.53,-1.5941,-1.8145,-1.7365,-1.6534,-1.7259,-1.6799,-1.6552,-1.7276,-1.869,-1.9979,-2.0781,-2.1538,-2.2177,-2.2634,-2.2695,-2.2405,-2.1672,-2.1244,-2.0797,-2.0348,-2.0314,-2.0002,-1.9239,-2.001,-1.981,-1.8346,-1.87,-1.8555,-1.7811,-1.7811,-1.7811,-1.7811,-1.7811,-1.7618,-1.7296,-1.6617,-1.6301,-1.6274,-1.5955,-1.5983,-1.6328,-1.6659,-1.7676,-1.9041,-1.937,-1.984,-2.0307,-2.0307,-2.0307,-2.027,0.0,0.0,0.0,0.0,0.0,0.0,0.0,0.0,0.0,0.0,0.0,0.0,0.0,0.0,0.0,0.0,0.0,0.0,-0.401,-0.4355,-0.4888,-0.5577,-0.678,-0.7844,-0.869,-1.1402,-1.4905,-1.9194,-1.9274,-1.7891,-1.5073,-1.3799,-1.2656,-1.1706,-1.1286,-1.1041,-1.0903,-1.0409,-1.0153,-1.0098,-1.0113,-1.011,-1.0094,0.0,0.0,0.0,0.0,0.0,0.0,0.0,0.0,0.0,-0.9916,-1.0016,-0.9952,-0.9129,-0.9251,-0.9452,-0.854,-0.9724,-1.1087,-1.0616,-1.2453,-1.4498,-1.4967,-1.5379,-1.6113,-1.7717,-1.7492,-1.6982,-1.6918,-1.7144,-1.7325,-1.7213,-1.8733,-2.0054,-2.0495,-2.1522,-2.2251,-2.2392,-2.2426,-2.2215,-2.1642,-2.1244,-2.0797,-2.0348,-2.0035,-1.9813,-1.9689,-1.9936,-1.9658,-1.875,-1.8846,-1.8555,-1.7811,-1.7811,-1.7811,-1.7811,-1.7811,-1.7618,-1.7296,-1.685,-1.6528,-1.6301,-1.6191,-1.6219,-1.6367,-1.7316,-1.8319,-1.9313,-1.9647,-1.9986,-2.0307,-2.0307,-2.0307,-2.027,0.0,0.0,0.0,0.0,0.0,0.0,0.0,0.0,0.0,0.0,-0.4306,-0.435,0.0,0.0,0.0,0.0,0.0,0.0,-0.4546,-0.4737,-0.5181,-0.5879,-0.6715,-0.7841,-0.9267,-1.0884,-1.3305,-1.6533,-1.6809,-1.5557,-1.2937,-1.3164,-1.2906,-1.2251,-1.2743,-1.2684,-1.2177,-1.1431,-1.0723,-1.0094,-1.0074,-1.0078,-1.0094,0.0,0.0,0.0,0.0,0.0,0.0,0.0,0.0,0.0,-0.9469,-0.9462,-0.9459,-0.8956,-0.9287,-0.9748,-0.949,-1.0671,-1.1991,-1.2004,-1.3606,-1.5358,-1.5974,-1.6375,-1.6795,-1.7473,-1.7315,-1.7087,-1.713,-1.7253,-1.7369,-1.7367,-1.8835,-2.0077,-2.0216,-2.1181,-2.1972,-2.2276,-2.204,-2.1754,-2.1466,-2.1175,-2.0671,-1.9798,-1.9451,-1.9208,-1.9065,-1.9076,-1.8887,-1.8481,-1.8454,-1.8251,-1.7811,-1.7811,-1.7811,-1.7811,-1.7811,-1.7681,-1.7502,-1.715,-1.6876,-1.6696,-1.6818,-1.6869,-1.6953,-1.8004,-1.8819,-1.9417,-1.9741,-2.0039,-2.0295,-2.0295,-2.0295,-2.0282,0.0,0.0,0.0,0.0,0.0,0.0,0.0,0.0,0.0,-0.4272,-0.4327,-0.4362,0.0,0.0,0.0,-0.4465,-0.449,-0.4535,-0.4587,-0.4772,-0.517,-0.582,-0.6688,-0.8641,-1.1815,-1.2024,-1.1749,-1.1028,-1.2829,-1.2793,-1.113,-1.3014,-1.4277,-1.4958,-1.4978,-1.4953,-1.4807,-1.2955,-1.1366,-1.0078,-0.9939,-0.9971,-1.009,-1.0017,0.0,0.0,0.0,0.0,0.0,0.0,0.0,0.0,-0.8853,-0.8634,-0.8651,-0.8523,-0.9711,-1.1213,-1.177,-1.2556,-1.3563,-1.5019,-1.5163,-1.5447,-1.7277,-1.7726,-1.7681,-1.7368,-1.6975,-1.6918,-1.7631,-1.7209,-1.6978,-1.7648,-1.8971,-1.99,-1.9875,-2.0627,-2.1448,-2.2124,-2.16,-2.1204,-2.1204,-2.0996,-2.0333,-1.9033,-1.8793,-1.8466,-1.788,-1.7844,-1.7825,-1.7805,-1.7811,-1.7811,-1.7811,-1.7811,-1.7811,-1.7811,-1.7811,-1.7811,-1.7789,-1.7439,-1.7296,-1.7304,-1.7597,-1.7737,-1.7847,-1.8661,-1.9172,-1.9449,-1.9693,-2.0001,-2.0312,-2.0312,-2.0312,-2.0312,0.0,0.0,0.0,0.0,0.0,0.0,0.0,0.0,-0.4169,-0.3928,-0.4009,-0.4064,-0.4017,-0.4124,0.0,-0.4415,-0.4464,-0.4511,-0.4522,-0.5195,-0.5546,-0.5436,-0.6808,-0.8176,-0.9509,-0.9268,-0.9059,-0.8952,-1.157,-1.1671,-0.9463,-1.1916,-1.2795,-1.2344,-1.2955,-1.2842,-1.2053,-1.0338,-0.9724,-0.9892,-0.9286,-0.9442,-0.9963,-0.9387,-0.9152,0.0,0.0,0.0,0.0,0.0,0.0,0.0,-0.8835,-0.8615,-0.8367,-0.711,-0.838,-1.002,-0.9286,-1.1175,-1.3534,-1.4289,-1.5653,-1.6858,-1.6978,-1.7224,-1.7392,-1.732,-1.702,-1.6898,-1.7311,-1.7299,-1.7233,-1.7382,-1.8397,-1.9033,-1.8784,-2.0159,-2.1271,-2.1414,-2.1305,-2.1204,-2.1204,-2.0307,-1.9633,-1.9323,-1.898,-1.8622,-1.8215,-1.8192,-1.807,-1.7805,-1.7811,-1.7811,-1.7811,-1.7811,-1.7811,-1.7811,-1.7811,-1.7811,-1.7789,-1.7439,-1.7296,-1.7304,-1.7597,-1.7971,-1.8452,-1.8843,-1.9283,-1.9724,-1.9778,-2.0001,-2.0312,-2.0312,-2.0312,-2.0312,0.0,0.0,0.0,0.0,0.0,0.0,0.0,0.0,-0.3956,-0.3825,-0.3883,-0.3967,-0.4037,-0.4195,0.0,0.0,-0.4475,-0.4496,-0.4496,-0.4869,-0.5287,-0.5755,-0.7291,-0.8148,-0.8219,-0.7744,-0.7341,-0.7059,-0.8682,-0.926,-0.8857,-1.1489,-1.2479,-1.2136,-1.3314,-1.2895,-1.1254,-1.0705,-1.002,-0.933,-0.9329,-0.9339,-0.9343,-0.9015,-0.8633,-0.821,-0.7694,0.0,0.0,0.0,0.0,0.0,0.0,0.0,-0.7675,-0.6915,-0.7863,-0.9289,-0.9753,-1.1501,-1.3489,-1.4701,-1.6413,-1.7648,-1.7149,-1.7296,-1.7392,-1.691,-1.6799,-1.6917,-1.7248,-1.7296,-1.7344,-1.7526,-1.831,-1.8964,-1.9144,-1.9706,-2.0391,-2.1119,-2.056,-2.0094,-2.0094,-1.9691,-1.912,-1.8456,-1.8345,-1.8177,-1.7831,-1.7823,-1.7806,-1.7789,-1.7811,-1.7811,-1.7811,-1.7811,-1.7811,-1.7811,-1.7811,-1.7811,-1.7789,-1.7618,-1.7602,-1.7743,-1.801,-1.8395,-1.8807,-1.9051,-1.9387,-1.979,-1.979,-2.0001,-2.0292,-2.0306,-2.0292,-2.0292,0.0,0.0,0.0,0.0,0.0,0.0,0.0,0.0,0.0,-0.3808,-0.3862,-0.3996,-0.4195,-0.4335,-0.4442,0.0,0.0,0.0,-0.4517,-0.448,-0.5005,-0.623,-0.7503,-0.7923,-0.7371,-0.6783,-0.6211,-0.5662,-0.5937,-0.6887,-0.854,-1.1019,-1.227,-1.2533,-1.3728,-1.3075,-1.1081,-1.12,-1.0169,-0.8508,-0.9056,-0.8949,-0.8469,-0.8455,-0.7998,-0.7342,-0.7152,-0.7114,-0.7289,-0.8071,0.0,0.0,0.0,0.0,-0.6963,-0.6791,-0.742,-0.8576,-1.0377,-1.2012,-1.3648,-1.5505,-1.712,-1.8086,-1.7392,-1.7479,-1.7432,-1.6501,-1.6554,-1.6876,-1.7175,-1.7224,-1.732,-1.7658,-1.8255,-1.8903,-1.9479,-1.9174,-1.9367,-2.0662,-1.9672,-1.8894,-1.8894,-1.9034,-1.8649,-1.7474,-1.7655,-1.7685,-1.7401,-1.7392,-1.7526,-1.7789,-1.7811,-1.7811,-1.7811,-1.7811,-1.7811,-1.7811,-1.7811,-1.7811,-1.7811,-1.7866,-1.8005,-1.8255,-1.8586,-1.8842,-1.9099,-1.9301,-1.9567,-1.9836,-1.9836,-2.0021,-2.03,-2.0302,-2.0288,-2.0311,0.0,0.0,0.0,0.0,0.0,0.0,0.0,0.0,0.0,0.0,-0.3905,-0.406,-0.4265,-0.4415,-0.4537,-0.4657,-0.462,-0.4587,-0.4587,0.0,0.0,-0.618,-0.6415,-0.6473,-0.6388,-0.5847,-0.5558,-0.5535,-0.5794,-0.6501,-0.7608,-0.9542,-1.0849,-1.1543,-1.1073,-1.0591,-1.0039,-0.7906,-0.7198,-0.7446,-0.6911,-0.7042,-0.7507,-0.6874,-0.6568,-0.6373,-0.5605,-0.5733,-0.6381,-0.7069,-0.7748,0.0,0.0,0.0,-0.6729,-0.5357,-0.6048,-0.7322,-0.7502,-1.0716,-1.4374,-1.5795,-1.7364,-1.8255,-1.7134,-1.7126,-1.7158,-1.6448,-1.6554,-1.6815,-1.6866,-1.6866,-1.6993,-1.732,-1.7679,-1.7889,-1.7697,-1.8373,-1.8978,-1.9181,-1.9029,-1.8894,-1.8894,-1.8356,-1.7946,-1.7743,-1.7782,-1.7782,-1.7743,-1.7726,-1.7749,-1.7811,-1.7811,-1.7811,-1.7811,-1.7811,-1.7811,-1.7811,-1.7811,-1.7811,-1.7811,-1.8168,-1.8332,-1.8389,-1.8889,-1.921,-1.9374,-1.962,-1.9836,-1.9964,-1.9964,-2.0106,-2.0292,-2.0308,-2.0294,-2.0295,0.0,0.0,0.0,0.0,0.0,0.0,0.0,0.0,0.0,0.0,0.0,-0.4015,-0.4232,-0.4404,-0.4522,-0.4582,-0.4562,-0.4501,-0.4375,-0.4824,-0.5206,-0.546,-0.5721,-0.5751,-0.5466,-0.5248,-0.4954,-0.461,-0.4911,-0.5767,-0.7136,-0.8125,-0.9334,-1.063,-0.9785,-0.9121,-0.8527,-0.7372,-0.6803,-0.6706,-0.6868,-0.7426,-0.8052,-0.6784,-0.6582,-0.6804,-0.548,-0.5178,-0.5606,-0.6727,-0.7281,-0.746,-0.7102,0.0,0.0,0.0,-0.5412,-0.6774,-0.8588,-1.145,-1.4303,-1.5814,-1.729,-1.8149,-1.728,-1.7199,-1.7158,-1.6686,-1.6686,-1.6866,-1.7052,-1.7076,-1.7175,-1.7526,-1.7704,-1.7901,-1.8172,-1.8266,-1.8437,-1.8843,-1.8538,-1.8285,-1.8285,-1.7997,-1.7811,-1.7811,-1.7635,-1.7526,-1.7526,-1.7337,-1.7337,-1.7526,-1.7526,-1.7612,-1.7811,-1.7811,-1.7811,-1.7811,-1.7811,-1.7883,-1.804,-1.8444,-1.8628,-1.8646,-1.9124,-1.9433,-1.9638,-1.9748,-1.988,-1.9993,-1.9993,-2.0115,-2.0292,-2.0294,-2.0296,-2.0313,0.0,0.0,0.0,0.0,0.0,0.0,0.0,0.0,0.0,0.0,0.0,-0.401,-0.4207,0.0,0.0,0.0,-0.449,-0.4387,-0.4192,-0.4539,-0.4707,-0.4627,-0.4929,-0.4928,-0.4584,-0.4604,-0.4375,-0.3869,-0.4342,-0.536,-0.6869,-0.7339,-0.845,-0.9989,-0.9176,-0.8455,-0.7794,-0.7313,-0.6762,-0.6297,-0.7407,-0.8098,-0.8421,-0.806,-0.8143,-0.8253,-0.6561,-0.5926,-0.5981,-0.6588,-0.6718,-0.6625,-0.6653,-0.6549,0.0,0.0,0.0,-0.6131,-0.9038,-1.1194,-1.3096,-1.5046,-1.6603,-1.758,-1.7339,-1.7368,-1.732,-1.7018,-1.6977,-1.7142,-1.7368,-1.7368,-1.7415,-1.7743,-1.7811,-1.7997,-1.8538,-1.8149,-1.8014,-1.8555,-1.8132,-1.7811,-1.7811,-1.7811,-1.7749,-1.7681,-1.7439,-1.7272,-1.7175,-1.7027,-1.7052,-1.728,-1.7392,-1.7549,-1.7811,-1.7811,-1.7811,-1.7811,-1.7811,-1.7949,-1.8229,-1.8663,-1.8909,-1.9005,-1.9406,-1.9711,-1.9934,-1.9934,-1.9993,-2.0078,-2.0078,-2.0161,-2.03,-2.0295,-2.0289,-2.0299,0.0,0.0,0.0,0.0,0.0,0.0,0.0,0.0,0.0,0.0,0.0,-0.4066,-0.4277,-0.4426,-0.4527,-0.4587,-0.4475,-0.4328,-0.4123,-0.4075,-0.3993,-0.3867,-0.3765,0.0,-0.367,-0.3786,-0.3832,-0.3803,-0.4649,-0.5633,-0.6725,-0.7637,-0.8685,-0.9782,-0.9177,-0.8836,-0.863,-0.7025,-0.6296,-0.6356,-0.811,-0.8327,-0.7909,-1.1131,-1.1833,-1.0878,-0.9209,-0.8605,-0.8337,-0.6562,-0.5906,-0.5845,-0.5786,-0.5709,-0.5511,0.0,0.0,0.0,-0.6736,-0.8426,-1.0369,-1.3066,-1.4933,-1.631,-1.7107,-1.7549,-1.7681,-1.7344,-1.7526,-1.7766,-1.7766,-1.7526,-1.7415,-1.7743,-1.7811,-1.7805,-1.7862,-1.7828,-1.7805,-1.7862,-1.7828,-1.7811,-1.7811,-1.7811,-1.7681,-1.7344,-1.732,-1.7175,-1.6841,-1.7101,-1.7296,-1.7296,-1.7612,-1.7789,-1.7811,-1.7811,-1.7811,-1.7811,-1.7811,-1.7949,-1.8211,-1.8812,-1.9214,-1.9496,-1.9887,-2.0137,-2.027,-2.027,-2.0282,-2.0285,-2.0285,-2.0285,-2.0312,-2.0292,-2.0301,-2.0299,0.0,0.0,0.0,0.0,0.0,0.0,0.0,0.0,0.0,0.0,0.0,0.0,0.0,-0.442,-0.4504,-0.4531,-0.4415,-0.4236,-0.3991,-0.3912,-0.3818,-0.3681,-0.3501,-0.3468,-0.3605,-0.3603,-0.3608,-0.3608,-0.4053,-0.4946,-0.6261,-0.6898,-0.801,-0.943,-0.845,-0.8317,-0.8709,-0.6479,-0.582,-0.6371,-0.7585,-0.8877,-1.0194,-1.1405,-1.2355,-1.2873,-1.1715,-0.9864,-0.8005,-0.831,-0.7307,-0.5896,-0.574,-0.5676,-0.5503,-0.472,-0.4518,-0.4899,-0.6602,-0.7761,-0.8959,-1.0981,-1.3265,-1.5114,-1.5426,-1.6525,-1.7502,-1.7595,-1.7549,-1.7549,-1.7766,-1.7704,-1.7658,-1.7789,-1.7811,-1.7811,-1.7811,-1.7811,-1.7811,-1.7811,-1.7811,-1.7811,-1.7811,-1.7811,-1.7658,-1.7344,-1.7101,-1.6825,-1.6501,-1.6394,-1.6538,-1.6952,-1.7247,-1.7636,-1.804,-1.79,-1.7811,-1.7811,-1.7971,-1.8187,-1.8471,-1.9077,-1.9525,-1.9828,-2.02,-2.0355,-2.0357,-2.0357,-2.0366,-2.036,-2.036,-2.0332,-2.0302,-2.0302,-2.0302,-2.0299,0.0,0.0,0.0,0.0,0.0,0.0,0.0,0.0,0.0,-0.3811,0.0,0.0,0.0,0.0,-0.4836,-0.4779,-0.4481,-0.4185,-0.3927,-0.3833,-0.3743,-0.3612,-0.3403,-0.3361,-0.3501,-0.3462,-0.3429,-0.3429,-0.3834,-0.4576,-0.5646,-0.6269,-0.7252,-0.8451,-0.7444,-0.7701,-0.8747,-0.7088,-0.6348,-0.6503,-0.8848,-1.0125,-1.0844,-1.2829,-1.3751,-1.3924,-1.3346,-1.1653,-0.9798,-1.0531,-0.9629,-0.8036,-0.7003,-0.6042,-0.5186,-0.4663,-0.4534,-0.4805,-0.593,-0.6702,-0.7623,-0.9386,-1.1213,-1.2958,-1.4383,-1.5454,-1.6384,-1.7283,-1.7384,-1.7368,-1.7595,-1.7726,-1.7811,-1.7811,-1.7811,-1.7811,-1.7811,-1.7811,-1.7811,-1.7811,-1.7811,-1.7811,-1.7811,-1.7811,-1.7612,-1.7175,-1.6942,-1.6659,-1.6328,-1.6191,-1.6485,-1.7256,-1.7518,-1.7847,-1.8187,-1.8035,-1.7883,-1.7811,-1.8061,-1.8356,-1.8681,-1.9268,-1.9735,-2.0089,-2.0402,-2.0506,-2.0432,-2.0432,-2.0425,-2.041,-2.041,-2.0352,-2.0307,-2.0307,-2.0295,-2.0302,0.0,0.0,0.0,0.0,0.0,0.0,0.0,0.0,-0.3928,-0.3913,0.0,0.0,0.0,0.0,0.0,-0.5343,-0.4716,-0.4217,-0.395,-0.3847,-0.3743,-0.3612,-0.3411,-0.3306,-0.3306,-0.3306,-0.3306,-0.3306,-0.4086,-0.4614,-0.4907,-0.5836,-0.6487,-0.6857,-0.6293,-0.7027,-0.8719,-0.8768,-0.7844,-0.6778,-1.186,-1.1953,-0.9701,-1.5582,-1.6309,-1.4157,-1.418,-1.4111,-1.3919,-1.3097,-1.2669,-1.2011,-0.9328,-0.6654,-0.4508,-0.4499,-0.4587,-0.467,0.0,0.0,0.0,-0.8272,-0.8768,-0.9842,-1.3952,-1.4292,-1.4293,-1.6312,-1.6979,-1.7238,-1.7304,-1.7572,-1.7811,-1.7811,-1.7811,-1.7811,-1.7811,-1.7811,-1.7811,-1.7811,-1.7811,-1.7811,-1.7811,-1.7789,-1.7502,-1.6841,-1.6789,-1.6633,-1.6328,-1.6633,-1.7256,-1.8187,-1.8469,-1.8469,-1.8208,-1.8208,-1.8078,-1.7811,-1.8082,-1.8419,-1.8836,-1.9367,-1.983,-2.0203,-2.0472,-2.0563,-2.0508,-2.0508,-2.0453,-2.0414,-2.0414,-2.0357,-2.0294,-2.0294,-2.0295,-2.0258,0.0,0.0,0.0,0.0,0.0,-0.422,-0.3776,-0.4356,-0.4633,0.0,0.0,0.0,-0.469,-0.5224,-0.5711,-0.6004,-0.5408,-0.4891,-0.4576,-0.4079,-0.3741,-0.3612,-0.349,-0.345,-0.345,-0.3349,-0.3306,-0.3306,-0.352,-0.4002,-0.47,-0.5142,-0.5797,-0.6613,-0.6691,-0.6744,-0.675,-0.6287,-0.6535,-0.7368,-0.8809,-1.0709,-1.2901,-1.5155,-1.6748,-1.7831,-1.8378,-1.697,-1.494,-1.5312,-1.2987,-0.9447,-0.6706,-0.5261,-0.4557,-0.4513,-0.4564,-0.4606,-0.4518,0.0,0.0,0.0,0.0,0.0,-0.9487,-1.0755,-1.2338,-1.4589,-1.5154,-1.572,-1.7356,-1.7743,-1.7811,-1.7811,-1.7811,-1.7811,-1.7811,-1.7811,-1.7811,-1.7811,-1.7811,-1.7811,-1.7811,-1.7572,-1.7248,0.0,-1.6581,-1.6394,-1.6285,-1.7028,-1.7725,-1.8329,-1.8513,-1.8566,-1.8489,-1.829,-1.8078,-1.7811,-1.827,-1.8607,-1.8836,-1.9517,-1.9964,-2.0203,-2.0431,-2.0541,-2.0565,-2.0565,-2.0563,-2.0541,-2.0541,-2.0477,-2.0366,-2.0366,-1.9945,-1.936,0.0,0.0,-0.3453,-0.3781,-0.4552,-0.5013,-0.4687,-0.522,-0.546,0.0,0.0,0.0,-0.5762,-0.6462,-0.6896,-0.676,-0.5813,-0.5106,-0.4859,-0.418,-0.3734,-0.3612,-0.3536,-0.3475,-0.3412,-0.334,-0.3306,-0.3306,-0.3306,-0.3585,-0.4143,-0.4391,-0.4843,-0.5464,-0.5773,-0.5705,-0.5359,-0.5038,-0.554,-0.6738,-0.925,-1.1149,-1.2759,-1.5426,-1.6905,-1.7715,-1.8847,-1.7527,-1.5546,-1.7467,-1.4722,-1.0195,-0.8573,-0.6724,-0.5097,-0.467,-0.483,-0.5047,-0.4641,-0.4518,-0.4571,-0.489,0.0,0.0,-0.8718,-0.9854,-1.134,-1.4351,-1.52,-1.5769,-1.6946,-1.7502,-1.7721,-1.7432,-1.7344,-1.7456,-1.776,-1.7811,-1.7811,-1.7811,-1.7811,-1.7811,-1.7811,-1.7502,-1.7224,-1.7027,-1.6712,-1.6617,-1.6878,-1.7648,-1.8243,-1.8627,-1.8824,-1.8807,-1.8604,-1.845,-1.8166,-1.7811,-1.8229,-1.8552,-1.8819,-1.9445,-1.9896,-2.0173,-2.0371,-2.0506,-2.0563,-2.0563,-2.0565,-2.0605,-2.0565,-2.0486,-2.0406,-2.0361,-1.9784,-1.902,0.0,0.0,-0.3842,-0.4307,-0.5173,-0.5811,-0.5826,-0.6157,-0.6315,0.0,-0.6223,-0.6794,-0.7882,-0.8391,-0.8365,-0.7655,-0.6139,-0.5166,-0.5012,-0.4257,-0.3734,-0.3612,-0.3536,-0.345,-0.3323,-0.3315,-0.3306,-0.3306,-0.3306,-0.3378,-0.35,-0.3704,-0.3861,-0.3993,-0.4272,-0.434,-0.4264,-0.4625,-0.4985,-0.5833,-1.1369,-1.2407,-1.1151,-1.6014,-1.7031,-1.6074,-1.7574,-1.7138,-1.6288,-1.9052,-1.6939,-1.3012,-1.2381,-0.9613,-0.6356,-0.5101,-0.5409,-0.5973,-0.5097,-0.48,-0.4886,-0.5457,-0.5019,0.0,-0.9515,-0.9874,-1.0402,-1.4096,-1.5329,-1.5742,-1.5702,-1.6424,-1.6831,-1.6233,-1.6243,-1.6661,-1.7659,-1.7726,-1.771,-1.7839,-1.7789,-1.7726,-1.7726,-1.7408,-1.7207,-1.7248,-1.7027,-1.7142,-1.7715,-1.8336,-1.877,-1.9018,-1.9182,-1.9048,-1.8604,-1.8566,-1.829,-1.7766,-1.8018,-1.8342,-1.8733,-1.9188,-1.9635,-2.0046,-2.0277,-2.0402,-2.048,-2.0486,-2.054,-2.0586,-2.0419,-2.0314,-2.0266,-2.0186,-1.9548,-1.8743,-0.2553,-0.3197,-0.3892,-0.4779,-0.5804,-0.6383,-0.6024,-0.6609,-0.6831,-0.6094,-0.619,-0.706,-0.9038,-0.8356,-0.8031,-0.8721,-0.7054,-0.5879,-0.5641,-0.4479,-0.3734,-0.3612,-0.3536,-0.3484,-0.3467,-0.3349,-0.3306,-0.3306,-0.3306,-0.3378,-0.35,-0.3704,-0.384,-0.3933,-0.4195,-0.3704,-0.2733,-0.4016,-0.5696,-0.7704,-1.0068,-1.1944,-1.3604,-1.6035,-1.8006,-1.9539,-1.986,-1.974,-1.9188,-1.7811,-1.6675,-1.5108,-1.0876,-0.9912,-0.9733,-0.6568,-0.6682,-0.7634,-0.6709,-0.6358,-0.6165,-0.5714,-0.5749,0.0,-0.5613,-0.5725,-0.6481,-0.8607,-0.9143,-0.9786,-1.1612,-1.2108,-1.2191,-1.2074,-1.3089,-1.4776,-1.7371,-1.7236,-1.7203,-1.8013,-1.7693,-1.7392,-1.7392,-1.685,-1.6607,-1.6892,-1.7287,-1.7653,-1.8004,-1.8587,-1.9017,-1.9227,-1.9117,-1.8913,-1.8604,-1.8391,-1.798,-1.7392,-1.7682,-1.7906,-1.8093,-1.8623,-1.9129,-1.9635,-2.0,-2.0211,-2.0264,-2.0428,-2.054,-2.0527,-1.9758,-1.9441,-1.9437,-1.9352,-1.8332,-1.7093,-0.2178,-0.3254,-0.4298,-0.4896,-0.6159,-0.6982,-0.665,-0.7223,-0.758,-0.7279,-0.7836,-0.856,-0.94,-0.8842,-0.8451,-0.8585,-0.7089,-0.6064,-0.587,-0.4634,-0.3811,-0.3612,-0.3536,-0.3467,-0.3404,-0.3332,-0.3272,-0.3194,-0.3194,-0.3241,-0.3302,-0.3468,-0.3998,-0.4767,-0.431,-0.4172,-0.4302,-0.4554,-0.5369,-0.6794,-1.001,-1.2792,-1.5294,-1.7582,-1.9241,-2.0357,-2.0429,-2.0451,-2.0135,-1.8015,-1.6406,-1.4981,-1.3125,-1.1635,-1.0095,-0.7806,-0.7703,-0.7997,-0.6671,-0.6146,-0.5996,-0.5996,-0.5854,0.0,0.0,-0.5923,-0.6386,-0.847,-0.8833,-0.9198,-1.0466,-1.0801,-1.0793,-1.0463,-1.1546,-1.2888,-1.4119,-1.5356,-1.6292,-1.6669,-1.6287,-1.6147,-1.6515,-1.5961,-1.5909,-1.6747,-1.7522,-1.8073,-1.8338,-1.8771,-1.9084,-1.9289,-1.9101,-1.8878,-1.8604,-1.8173,-1.7726,-1.7296,-1.7263,-1.7363,-1.7584,-1.8056,-1.8587,-1.9133,-1.9552,-1.9906,-2.016,-2.0263,-2.0393,-2.0463,-1.9557,-1.9183,-1.9158,-1.9109,-1.8248,-1.717,-0.1787,-0.3232,-0.4523,-0.4774,-0.621,-0.7261,-0.7073,-0.7548,-0.8019,-0.827,-0.9253,-0.9859,-0.9646,-0.977,-0.9645,-0.9123,-0.808,-0.7144,-0.6446,-0.5347,-0.45,-0.4038,-0.366,-0.3542,-0.3701,-0.3442,-0.3238,-0.31,-0.3127,-0.3127,-0.31,-0.3238,-0.3988,-0.5224,-0.485,-0.5032,-0.5625,-0.5492,-0.5963,-0.7097,-1.0501,-1.296,-1.5003,-1.8272,-1.9522,-1.9603,-2.0227,-2.0466,-2.0263,-1.8574,-1.6557,-1.4827,-1.5218,-1.321,-1.0405,-0.8843,-0.8667,-0.8612,-0.6842,-0.6175,-0.6069,-0.6373,-0.5995,-0.582,0.0,0.0,0.0,-0.8706,-0.9004,-0.8972,-0.9139,-0.9344,-0.9322,-0.8801,-0.9781,-1.0472,-1.0062,-1.2471,0.0,-1.4457,-1.4502,-1.4658,-1.5002,-1.4856,-1.5206,-1.6317,-1.753,-1.8261,-1.8373,-1.8806,-1.9101,-1.9246,-1.9034,-1.8753,-1.8432,-1.7825,-1.7332,-1.6978,-1.6612,-1.6606,-1.6905,-1.7339,-1.7882,-1.8538,-1.9032,-1.9519,-1.9944,-2.0057,-2.0144,-2.0138,-1.9461,-1.9061,-1.8873,-1.8857,-1.8177,-1.7266,-0.2035,-0.3082,-0.4031,-0.4466,-0.5752,-0.6665,-0.6504,-0.6952,-0.7379,-0.7587,-0.8388,-0.9344,-1.0355,-1.1304,-1.2072,-1.2566,-1.2425,-1.1139,-0.8376,-0.7621,-0.6757,-0.56,-0.4121,-0.3904,-0.5145,-0.3943,-0.3238,-0.31,-0.322,-0.3212,-0.31,-0.3238,-0.3404,-0.3685,-0.629,-0.5727,-0.3074,-0.6336,-1.0026,-1.3473,-1.1181,-1.0047,-1.0258,-1.5218,-1.7102,-1.7396,-1.9746,-2.0586,-2.0312,-1.8592,-1.7764,-1.6804,-1.3039,-1.3036,-1.3602,-0.95,-0.9824,-1.1083,-0.9216,-0.8596,-0.82,-0.6967,-0.6906,-0.6667,-0.485,0.0,-0.4887,-0.4468,0.0,-0.4353,-0.4383,0.0,0.0,-0.4485,-0.5757,-0.6758,-0.6819,-0.8361,-1.0071,-1.164,-1.3055,-1.348,-1.2436,-1.3661,-1.4652,-1.4913,-1.7029,-1.8097,-1.7648,-1.8667,-1.9198,-1.9035,-1.8789,-1.8375,-1.7803,-1.7149,-1.6481,-1.5803,-1.5403,-1.5403,-1.5788,-1.6075,-1.6792,-1.7838,-1.8485,-1.8977,-1.9351,-1.9879,-1.9696,-1.9084,-1.9177,-1.8729,-1.8022,-1.7967,-1.6948,-1.5686,-0.1697,-0.281,-0.3745,-0.3937,-0.4951,-0.5809,-0.6013,-0.7196,-0.8023,-0.7921,-0.8694,-0.9547,-1.0301,-1.0697,-1.1359,-1.24,-1.2418,-1.1473,-0.9392,-0.8346,-0.7346,-0.6305,-0.4475,-0.3995,-0.5081,-0.3917,-0.3238,-0.31,-0.3035,-0.2685,-0.2069,-0.2627,-0.277,-0.268,-0.5768,-0.6952,-0.6654,-0.7061,-0.9039,-1.1744,-1.0059,-1.069,-1.3108,-1.714,-1.8749,-1.8995,-2.0174,-2.0565,-2.0423,-1.9696,-1.8052,-1.6348,-1.6383,-1.4718,-1.2552,-1.1596,-1.0986,-1.0318,-0.9,-0.9165,-0.9414,-0.8228,-0.8004,-0.7476,-0.5115,-0.4294,-0.402,-0.3913,0.0,0.0,0.0,0.0,0.0,0.0,-0.4953,-0.5682,0.0,0.0,-0.9146,0.0,0.0,0.0,-1.0613,-1.298,-1.447,-1.4397,-1.5591,-1.6669,-1.7453,-1.7981,-1.8374,-1.8646,-1.8283,-1.773,-1.701,-1.6381,-1.5788,-1.5257,-1.4866,-1.4925,-1.5316,-1.5872,-1.6588,-1.7455,-1.8272,-1.8838,-1.9243,-1.9726,-1.9799,-1.9568,-1.926,-1.8623,-1.7909,-1.7864,-1.7096,-1.6091,-0.1266,-0.2409,-0.331,-0.3259,-0.4137,-0.503,-0.5553,-0.6932,-0.7894,-0.7872,-0.8744,-0.9657,-1.0467,-1.1097,-1.1947,-1.3184,-1.3715,-1.3204,-1.1353,-0.9784,-0.8804,-0.8506,-0.5578,-0.4674,-0.6189,-0.4549,-0.352,-0.3182,-0.2816,-0.2221,-0.1427,-0.198,-0.2241,-0.2378,-0.5373,-0.7874,-0.9845,-0.958,-1.0239,-1.1478,-1.1918,-1.3956,-1.6951,-1.8552,-1.9687,-2.0438,-2.0539,-2.0537,-2.0397,-1.9924,-1.8022,0.0,-1.809,-1.5784,-1.2601,-1.3467,-1.2567,-1.0948,-0.9344,-0.9741,-1.0223,-0.8493,-0.8145,-0.7616,-0.5193,-0.4212,-0.3846,-0.399,-0.3825,0.0,0.0,0.0,0.0,0.0,0.0,-0.503,0.0,-0.6089,0.0,0.0,0.0,0.0,0.0,-1.1267,-1.2839,-1.3187,0.0,-1.5021,-1.6976,-1.7365,-1.7719,-1.8181,-1.7778,-1.7115,-1.6276,-1.5602,-1.5079,-1.4682,-1.4315,-1.4406,-1.4968,-1.5578,-1.636,-1.7252,-1.8101,-1.8717,-1.9172,-1.958,-1.9874,-1.9988,-1.9312,-1.8585,-1.7868,-1.7655,-1.7017,-1.6272,-0.0849,-0.1846,-0.2571,-0.2375,-0.3386,-0.446,-0.5111,-0.5611,-0.6158,-0.6942,-0.8012,-0.9413,-1.1255,-1.366,-1.5514,-1.6465,-1.8385,-1.8211,-1.5037,-1.2783,-1.2097,-1.3231,-0.7878,-0.6332,-0.9476,-0.6328,-0.4241,-0.3383,-0.2601,-0.2039,-0.168,-0.1451,-0.1885,-0.2989,-0.5748,-0.8211,-1.0568,-1.4921,-1.6321,-1.5874,-1.8901,-2.0166,-1.999,0.0,-1.8331,-2.0506,-2.0508,0.0,0.0,-1.8459,-1.7771,0.0,0.0,0.0,-1.5543,-1.4569,-1.4774,-1.4603,-1.1316,-1.0935,-1.0609,-0.7067,-0.6774,-0.67,-0.4299,-0.417,-0.4426,-0.3914,-0.4206,-0.4556,-0.4593,0.0,0.0,0.0,0.0,0.0,0.0,0.0,0.0,0.0,0.0,0.0,0.0,0.0,0.0,0.0,-1.169,0.0,-1.5923,-1.6976,-1.757,-1.7725,-1.7326,-1.6651,-1.5634,-1.4854,-1.4274,-1.3921,-1.3446,-1.3682,-1.4533,-1.4866,-1.5826,-1.7235,-1.7838,-1.8457,-1.9035,-1.9442,-1.9724,-1.984,-1.9162,-1.8492,-1.781,-1.7035,-1.6195,-1.543,-0.1064,-0.133,-0.1593,-0.1971,-0.2647,-0.3546,-0.4749,-0.6253,-0.7444,-0.7983,-0.9399,-1.101,-1.2767,-1.4507,-1.6049,-1.7273,-1.8096,-1.7749,-1.5901,-1.3556,-1.2653,-1.3596,-0.8655,-0.6899,-0.9059,-0.6217,-0.434,-0.3593,-0.3057,-0.2786,-0.2751,-0.2432,-0.2489,-0.2907,-0.4642,-0.7298,-1.0575,-1.1667,-1.4628,-1.8687,-1.9933,-1.9764,-1.8776,0.0,-1.9721,-2.0438,-2.0482,-2.0467,0.0,-1.9713,-1.8658,-1.7658,-1.8135,-1.682,-1.526,-1.6057,-1.5625,-1.4655,0.0,0.0,-1.3578,-0.8444,-0.9299,-1.0068,-0.4982,-0.4436,-0.4813,-0.4193,-0.4386,-0.4447,-0.3731,0.0,0.0,0.0,0.0,0.0,0.0,0.0,0.0,0.0,0.0,0.0,0.0,0.0,0.0,0.0,0.0,0.0,0.0,-1.5077,-1.545,-1.5903,-1.5794,-1.5155,-1.3969,-1.4017,-1.3696,-1.2988,-1.3433,-1.3967,-1.4533,-1.5389,-1.6318,-1.7252,-1.8063,-1.8643,-1.9018,-1.9427,-1.9688,-1.9777,-1.9096,-1.8424,-1.7738,-1.6983,-1.615,-1.5408,-0.104,-0.0954,-0.1002,-0.1643,-0.2487,-0.3458,-0.4621,-0.6684,-0.8316,-0.8876,-1.0539,-1.2256,-1.3806,-1.5262,-1.6583,-1.7739,-1.8179,-1.7796,-1.6356,-1.4368,-1.363,-1.4477,-1.0488,-0.9093,-1.0934,-0.7974,-0.5951,-0.5027,-0.4066,-0.3499,-0.3298,-0.3026,-0.2872,-0.2849,-0.3892,-0.6997,-1.1427,-1.0899,-1.415,-1.9684,-2.0176,-1.9721,0.0,0.0,-2.0068,-1.9607,0.0,-2.0438,-2.0357,-2.0357,-1.9471,-1.8573,-1.9601,-1.8329,-1.6649,-1.7689,-1.7188,-1.6078,-1.5228,-1.5762,0.0,-1.0901,-1.1084,-1.1179,-0.6593,-0.6157,-0.638,-0.516,-0.4839,-0.4876,0.0,0.0,0.0,0.0,0.0,0.0,0.0,-0.3713,0.0,0.0,0.0,0.0,0.0,0.0,0.0,0.0,0.0,0.0,0.0,0.0,-1.4166,-1.4697,-1.4761,-1.4342,-1.339,-1.3742,-1.3589,-1.3022,-1.3756,-1.4392,-1.4911,-1.579,-1.6636,-1.7432,-1.8258,-1.8752,-1.9036,-1.9368,-1.9612,-1.97,-1.8668,-1.8082,-1.7711,-1.6956,-1.6132,-1.5391,-0.0788,-0.0745,-0.0821,-0.1459,-0.2866,-0.4109,-0.4733,-0.6805,-0.8624,-0.9601,-1.1395,-1.3114,-1.4538,-1.607,-1.7302,-1.8082,-1.8804,-1.8445,-1.6598,-1.5296,-1.5038,-1.6008,-1.3221,-1.2654,-1.4827,-1.1304,-0.8769,-0.7411,-0.542,-0.4068,-0.3336,-0.3168,-0.3001,-0.2855,-0.3555,-0.7176,-1.2737,-1.262,-1.5068,-1.9128,-1.9967,-2.0243,-2.0197,-2.0346,-1.9344,-1.8117,-1.9875,-2.0418,-2.0294,-2.0288,-2.0165,-1.9973,-1.9824,-1.9707,-1.9541,-1.935,-1.9305,-1.8809,-1.65,-1.6347,-1.6279,-1.4132,-1.2165,0.0,0.0,-0.9187,-0.9034,-0.68,-0.5688,-0.5897,0.0,0.0,0.0,0.0,0.0,0.0,0.0,0.0,0.0,0.0,0.0,0.0,0.0,0.0,0.0,0.0,0.0,0.0,0.0,0.0,-1.3616,-1.4038,-1.4186,-1.4097,-1.3743,-1.3835,-1.3881,-1.3848,-1.4347,-1.4941,-1.5634,-1.6068,-1.6788,-1.7737,-1.8336,-1.8752,-1.9036,-1.923,-1.9467,-1.9594,-1.7975,-1.7501,-1.7636,-1.6823,-1.6045,-1.5391,-0.0872,-0.0852,-0.1202,-0.2399,-0.3242,-0.4084,-0.5086,-0.6854,-0.8928,-1.1294,-1.2908,-1.4681,-1.6927,-1.7756,-1.8323,-1.8726,-1.8372,-1.789,-1.7384,-1.5629,-1.5299,-1.6915,-1.3856,-1.2908,-1.4587,-1.0523,-0.816,-0.7701,-0.5061,-0.3803,-0.3882,-0.3348,-0.3127,-0.3177,-0.3377,-0.559,-0.9332,-1.1163,-1.4947,-1.9785,-2.0148,-1.9521,-1.8513,0.0,-1.9284,-1.8041,-1.9795,-2.0391,-2.0357,-2.0205,-2.002,-1.9824,-1.9695,-1.9523,-1.9365,-1.932,-1.9305,-1.9161,-1.8537,-1.8383,-1.7814,-1.5373,-1.5349,-1.5035,0.0,0.0,0.0,0.0,0.0,0.0,0.0,0.0,0.0,0.0,0.0,0.0,0.0,0.0,0.0,0.0,0.0,0.0,0.0,0.0,0.0,0.0,0.0,0.0,0.0,0.0,0.0,-1.1953,-1.22,-1.2076,-1.1594,-1.2935,-1.3429,-1.3112,-1.4892,-1.5874,-1.6068,-1.6735,-1.7271,-1.7737,-1.8336,-1.8752,-1.9036,-1.923,-1.9119,-1.8787,-1.8364,-1.7644,-1.6731,-1.5929,-1.552,-1.5402,-0.0606,-0.1016,-0.175,-0.3181,-0.4065,-0.5003,-0.6256,-0.7649,-0.9291,-1.1329,-1.3479,-1.5203,-1.625,-1.7799,-1.8789,-1.8825,-1.8375,-1.7759,-1.7004,-1.6342,-1.6143,-1.6537,-1.5079,-1.48,-1.593,-1.2685,-1.0383,-0.9158,-0.7182,-0.5421,-0.3861,-0.3073,-0.2925,-0.3306,-0.3357,-0.4412,-0.6468,-1.1365,-1.5583,-1.9028,-1.9945,-1.9715,0.0,-1.9935,-1.9713,-1.9026,-1.9993,-2.0352,-2.0337,-2.0159,-1.9974,-1.9786,-1.9649,-1.9471,-1.9305,-1.9305,-1.9305,-1.9305,-1.9305,-1.915,-1.8625,-1.7059,-1.7092,-1.6724,-1.3718,-1.279,-1.2103,0.0,-0.9468,-0.8694,0.0,0.0,0.0,0.0,0.0,0.0,0.0,0.0,0.0,0.0,0.0,0.0,0.0,0.0,0.0,0.0,0.0,0.0,0.0,0.0,0.0,-1.0946,-1.1235,-1.1416,-1.1492,-1.2567,-1.3329,-1.3785,-1.5259,-1.6218,-1.6684,-1.7118,-1.7469,-1.7766,-1.8232,-1.8566,-1.8807,-1.8651,-1.8555,-1.8448,-1.7843,-1.6919,-1.5878,-1.5414,-1.5297,-1.5362,-0.0232,-0.1368,-0.2582,-0.3818,-0.5147,-0.6562,-0.8044,-0.9123,-1.0162,-1.1324,-1.398,-1.551,-1.4819,-1.7227,-1.8789,-1.8566,-1.8489,-1.7794,-1.6264,-1.7063,-1.7064,-1.5873,-1.645,-1.7117,-1.7789,-1.5759,-1.3531,-1.1226,-1.0088,-0.7543,-0.3692,-0.2777,-0.2716,-0.3378,-0.3365,-0.3939,-0.5384,-1.2627,-1.6554,-1.8043,-1.9646,-2.0312,-2.03,-2.0302,-2.0295,-2.0295,-2.0295,-2.0301,-2.0276,-2.0108,-1.9945,-1.9774,-1.9604,-1.9442,-1.9305,-1.9305,-1.9305,-1.9305,-1.9305,-1.915,-1.8931,-1.8678,-1.7922,-1.6801,-1.5161,-1.3681,-1.2522,-1.2072,-1.0446,-0.9703,0.0,0.0,0.0,0.0,0.0,0.0,0.0,0.0,0.0,0.0,0.0,0.0,0.0,0.0,0.0,0.0,0.0,0.0,0.0,0.0,0.0,-1.0693,-1.0936,-1.1415,-1.2156,-1.2546,-1.3433,-1.4829,-1.5503,-1.6353,-1.7296,-1.7344,-1.7502,-1.7749,-1.8061,-1.8351,-1.8551,-1.8072,-1.8041,-1.8192,-1.6823,-1.5824,-1.5177,-1.5177,-1.5226,-1.5303,-0.0262,-0.2496,-0.4246,-0.4172,-0.6294,-0.8635,-1.049,-1.1582,-1.301,-1.5347,-1.6525,-1.7394,-1.8084,-1.8267,-1.833,-1.827,-1.781,-1.7399,-1.708,-1.7003,-1.6963,-1.7004,-1.6872,-1.7117,-1.7789,-1.5286,-1.3648,-1.2958,-1.0055,-0.7157,-0.4314,-0.3491,-0.3351,-0.3759,-0.2952,-0.5452,-1.049,-1.415,0.0,-1.9471,-2.0056,-2.0312,-2.0292,-2.0308,-2.0296,-2.0296,-2.0296,-2.0308,-2.0257,-1.9955,-1.9836,-1.9743,-1.9448,-1.932,-1.9305,-1.9305,-1.9305,-1.9305,-1.9305,-1.915,-1.8931,-1.8678,-1.8305,-1.7714,-1.6574,-1.5942,-1.5366,-1.4689,-1.3855,-1.2926,-1.1835,0.0,0.0,0.0,0.0,0.0,0.0,0.0,0.0,0.0,0.0,0.0,0.0,0.0,0.0,0.0,0.0,0.0,0.0,0.0,0.0,0.0,-1.0835,0.0,0.0,0.0,-1.3579,-1.3876,-1.5664,-1.6809,-1.732,-1.7572,-1.7595,-1.7415,-1.7958,-1.8351,-1.8604,-1.8717,-1.8225,-1.7198,-1.5753,-1.5114,-1.5035,-1.5035,-1.512,-1.5226,-0.0878,-0.2127,-0.3498,-0.5113,-0.7436,-1.0046,-1.299,-1.4471,-1.532,-1.5535,-1.636,-1.6919,-1.6934,-1.7692,-1.8146,-1.8014,-1.7732,-1.7549,-1.7549,-1.7408,-1.7384,-1.7549,-1.7224,-1.7296,-1.7789,-1.6365,-1.4483,-1.2166,-0.9805,-0.7129,-0.4182,-0.3684,-0.3565,-0.3802,-0.5265,-0.7613,-1.0697,0.0,0.0,-1.8655,-1.9726,-2.0205,-2.0312,-2.0312,-2.0241,-2.0161,-2.0249,-2.0195,-2.0021,-1.985,-1.975,-1.9656,-1.9394,-1.9305,-1.9305,-1.9305,-1.9305,-1.9305,-1.9305,-1.9049,-1.8663,-1.8163,-1.772,-1.7308,-1.6804,-1.629,-1.5854,-1.5572,-1.4966,-1.3873,-1.1819,-0.995,0.0,0.0,0.0,0.0,0.0,0.0,0.0,0.0,0.0,0.0,0.0,0.0,0.0,0.0,0.0,0.0,0.0,0.0,0.0,0.0,0.0,0.0,-1.113,0.0,-1.3569,-1.4451,-1.5976,-1.7002,-1.7549,-1.7726,-1.7704,-1.7572,-1.8018,-1.8351,-1.857,-1.8193,-1.7154,-1.5777,-1.5151,-1.4919,-1.495,-1.495,-1.5011,-1.5114,-0.1428,-0.2115,-0.3286,-0.5963,-0.8611,-1.1434,-1.4585,-1.6514,-1.7089,-1.565,-1.6289,-1.6567,-1.5765,-1.7192,-1.8061,-1.7726,-1.7766,-1.7766,-1.7704,-1.7766,-1.7766,-1.7704,-1.7439,-1.7415,-1.7681,-1.7455,-1.5745,-1.2564,-1.0102,-0.707,-0.353,-0.3382,-0.3833,-0.4912,-0.77,0.0,0.0,0.0,-1.6589,-1.7989,-1.943,-2.0087,-2.0241,-2.0241,-2.0143,-2.0022,-2.0143,-2.0001,-1.9762,-1.9762,-1.9695,-1.9555,-1.9365,-1.9305,-1.9305,-1.9305,-1.9305,-1.9305,-1.9305,-1.8947,-1.8427,-1.7684,-1.7103,-1.6665,-1.6512,-1.6157,-1.5845,-1.5873,-1.5206,-1.4066,-1.2235,-1.0764,0.0,0.0,0.0,0.0,0.0,0.0,0.0,0.0,0.0,0.0,0.0,0.0,0.0,0.0,0.0,0.0,0.0,0.0,0.0,0.0,0.0,-1.0228,-1.1157,0.0,-1.3524,-1.4761,-1.5992,-1.6936,-1.7589,-1.7658,-1.7681,-1.7704,-1.804,-1.8266,-1.836,-1.7624,-1.636,-1.4908,-1.5028,-1.4973,-1.4868,-1.4868,-1.49,-1.5007,-0.1373,-0.4053,-0.6178,-0.6135,-0.9904,-1.3252,-1.4161,-1.6433,-1.8169,-1.8517,-1.8485,-1.8262,-1.7937,-1.8087,-1.7958,-1.7392,-1.7618,-1.7681,-1.7368,-1.7635,-1.7658,-1.7368,-1.732,-1.732,-1.7344,-1.732,-1.739,-1.7611,-1.1809,-0.6722,-0.2362,-0.2349,-0.4605,-0.8654,0.0,0.0,0.0,-1.5561,-1.7181,-1.9425,-1.9844,-2.0012,-2.0031,-2.0031,-2.0022,-1.9993,-1.988,-1.9757,-1.9609,-1.9609,-1.9609,-1.9555,-1.9365,-1.9305,-1.9305,-1.9305,-1.9305,-1.9305,-1.9305,-1.8947,-1.8427,-1.7684,-1.7103,-1.6529,-1.5849,-1.6174,-1.6509,-1.6209,-1.5206,-1.4155,-1.3593,-1.2943,-1.1839,0.0,0.0,0.0,0.0,0.0,0.0,0.0,0.0,0.0,0.0,0.0,0.0,0.0,0.0,0.0,0.0,0.0,0.0,-0.989,-0.9561,-0.938,-0.9437,-1.2138,-1.3436,-1.3337,-1.5314,-1.6464,-1.6917,-1.7199,-1.7344,-1.7392,-1.7958,-1.803,-1.7796,-1.7936,-1.7059,-1.5607,-1.5619,-1.5251,-1.4727,-1.4727,-1.4804,-1.4919,-0.1796,-0.462,-0.698,-0.7508,-1.0118,-1.2798,-1.4628,-1.6297,-1.7455,-1.7791,-1.8162,-1.8252,-1.7924,-1.7766,-1.7365,-1.6709,-1.6986,-1.7035,-1.6658,-1.7166,-1.7439,-1.732,-1.7502,-1.7595,-1.7595,-1.7595,-1.716,-1.6255,-1.3397,-0.9157,-0.3756,-0.6669,-0.9475,-1.2079,0.0,-1.3413,-1.5492,-1.7179,-1.8607,-1.9726,-1.9836,-2.0002,-2.0161,-2.006,-1.9963,-1.988,-1.9813,-1.9553,-1.9277,-1.9513,-1.9513,-1.9413,-1.932,-1.938,-1.9456,-1.9335,-1.9398,-1.9438,-1.9335,-1.8947,-1.8321,-1.7133,-1.6773,-1.6394,-1.5206,-1.5707,-1.6293,-1.5973,-1.5019,-1.4155,-1.3855,-1.3423,-1.2807,-1.1985,0.0,0.0,0.0,0.0,0.0,0.0,0.0,0.0,0.0,0.0,0.0,0.0,0.0,0.0,0.0,0.0,0.0,-0.8253,0.0,-1.0642,-1.0157,-1.3134,-1.4554,-1.4426,-1.5879,-1.6767,-1.7101,-1.7248,-1.7585,-1.8056,-1.7825,-1.7523,-1.7198,-1.6808,-1.6004,-1.4976,-1.4976,-1.4828,-1.4589,-1.4589,-1.4666,-1.4841,-0.1926,-0.4118,-0.6256,-0.7809,-0.9825,-1.2034,-1.4471,-1.5768,-1.6616,-1.7107,-1.7609,-1.7854,-1.7597,-1.7406,-1.6953,-1.6095,-1.6507,-1.6628,-1.6219,-1.6903,-1.7296,-1.7296,-1.7526,-1.7612,-1.7519,-1.7612,-1.7063,-1.5836,-1.4795,-1.2109,-0.7964,-1.0573,-1.2705,0.0,-1.489,-1.5607,-1.6517,-1.8465,-1.9462,-1.9738,-1.9767,-1.9931,-2.0144,-2.0002,-1.9858,-1.9738,-1.967,-1.9419,-1.9117,-1.9427,-1.9427,-1.9305,-1.9305,-1.9442,-1.9555,-1.935,-1.9438,-1.9541,-1.9274,-1.8913,-1.8214,-1.6675,-1.6318,-1.6004,-1.4513,-1.4964,-1.5665,-1.557,-1.4845,-1.4186,-1.4078,-1.3631,-1.3218,-1.3025,0.0,0.0,0.0,-1.1775,0.0,0.0,-1.1937,-1.1499,-1.1299,0.0,0.0,0.0,0.0,0.0,0.0,0.0,0.0,0.0,0.0,0.0,-1.0718,-1.3672,-1.5093,-1.5019,-1.6119,-1.6841,-1.715,-1.7344,-1.7876,-1.8567,-1.8002,-1.7426,-1.6872,-1.6536,-1.5655,-1.4524,-1.4756,-1.4719,-1.4488,-1.4488,-1.4567,-1.4757,-0.1574,-0.2495,-0.3881,-0.6469,-0.9009,-1.1335,-1.3233,-1.4711,-1.6025,-1.7142,-1.732,-1.732,-1.732,-1.7296,-1.6837,-1.5719,-1.6331,-1.6628,-1.6219,-1.6903,-1.7296,-1.7296,-1.7304,-1.715,-1.6815,-1.715,-1.7557,-1.8052,-1.5993,-1.5151,-1.5415,-1.2757,-1.2816,-1.5196,-1.5196,-1.6599,-1.8965,-1.9196,-1.9427,-1.9609,-1.975,-1.979,-1.9821,-1.979,-1.9713,-1.9569,-1.938,-1.9305,-1.9289,-1.9305,-1.9305,-1.9305,-1.9305,-1.9442,-1.9555,-1.935,-1.9438,-1.9513,-1.9119,-1.8807,-1.8176,-1.6429,-1.5826,-1.5223,-1.3752,-1.3988,-1.4658,-1.5122,-1.4674,-1.4239,-1.4381,-1.3904,-1.313,-1.1989,0.0,0.0,0.0,-1.0296,0.0,-1.2921,-1.1366,-1.1156,-1.3797,0.0,0.0,0.0,0.0,0.0,0.0,0.0,0.0,-0.9445,-1.0283,0.0,-1.0521,-1.3346,-1.4651,-1.4326,-1.5662,-1.6474,-1.6815,-1.7479,-1.8082,-1.8585,-1.8585,-1.7928,-1.6963,-1.7766,-1.6665,-1.4579,-1.538,-1.5197,-1.4488,-1.4488,-1.4488,-1.4651,-0.1879,-0.394,-0.609,-0.7249,-0.9601,-1.1742,-1.3015,-1.4363,-1.5564,-1.6433,-1.6793,-1.7052,-1.7272,-1.7296,-1.6953,-1.6095,-1.648,-1.6628,-1.6219,-1.6903,-1.7296,-1.7296,-1.7526,-1.7572,-1.7479,-1.7589,-1.7915,-1.8434,0.0,0.0,-1.537,-1.4367,-1.5098,-1.7252,-1.7435,-1.8021,-1.8892,-1.9313,-1.965,-1.9869,-1.9813,-1.9858,-1.9922,-1.9726,-1.9636,-1.9569,-1.9365,-1.9214,-1.9135,-1.9243,-1.9214,-1.9117,-1.9261,-1.9504,-1.9676,-1.9394,-1.9504,-1.9638,-1.9134,-1.8807,-1.83,-1.7056,-1.6167,-1.5303,-1.4143,-1.3883,-1.3877,-1.3828,-1.3956,-1.395,-1.363,-1.369,-1.3746,-1.3659,-1.3932,0.0,-1.3244,0.0,-1.3236,-1.4057,-1.328,-1.312,0.0,-1.4137,0.0,0.0,0.0,0.0,0.0,0.0,0.0,0.0,-1.107,0.0,-1.1406,-1.412,-1.5551,-1.5662,-1.6111,-1.6607,-1.7175,-1.7783,-1.827,-1.8586,-1.8164,-1.7878,-1.7642,-1.6812,-1.6004,-1.5288,-1.4995,-1.4738,-1.4488,-1.4488,-1.4488,-1.4628,-0.2642,-0.4443,-0.6349,-0.699,-0.9119,-1.1202,-1.2549,-1.3945,-1.5241,-1.6305,-1.6628,-1.6993,-1.7455,-1.7502,0.0,-1.6273,-1.656,-1.668,-1.6407,-1.6953,-1.7368,-1.7462,-1.7681,-1.7726,-1.7595,-1.7822,0.0,-1.8397,-1.7135,-1.6574,-1.6682,-1.6342,-1.6971,-1.8351,-1.8528,-1.8735,-1.8988,-1.9419,-1.975,-2.0003,-1.9858,-1.9847,-1.9912,-1.9682,-1.9555,-1.9471,-1.9335,-1.923,-1.9134,-1.9259,-1.923,-1.915,-1.9353,-1.9599,-1.9731,-1.939,-1.9526,-1.9651,-1.9014,-1.8734,-1.8334,-1.7235,-1.626,-1.5286,-1.4111,-1.3792,-1.373,-1.3705,-1.3848,-1.396,-1.3887,-1.3878,-1.4051,-1.4504,-1.4589,-1.4537,-1.4398,-1.4119,-1.4089,0.0,0.0,0.0,0.0,-1.4323,-1.3696,0.0,0.0,0.0,0.0,0.0,0.0,-0.8899,-1.2237,-1.3563,-1.2568,-1.4837,-1.608,-1.6301,-1.6554,-1.6885,-1.7304,-1.7538,-1.7815,-1.8108,-1.7468,-1.7173,-1.7124,-1.6114,-1.5509,-1.5197,-1.4701,-1.4488,-1.4488,-1.4488,-1.4488,-1.4628,-0.3598,-0.4208,-0.5058,-0.6029,-0.7941,-1.001,-1.2025,-1.3566,-1.5047,-1.6591,-1.6789,-1.7068,-1.7743,-1.7811,-1.7399,-1.6407,0.0,0.0,-1.6795,-1.7142,-1.7479,-1.7789,-1.7833,-1.7681,-1.7368,-1.7936,-1.8214,-1.8165,-1.8735,-1.8984,-1.8949,-1.845,-1.833,-1.8566,-1.8604,-1.8842,-1.9228,-1.9504,-1.9786,-2.0012,-1.9858,-1.979,-1.9767,-1.9649,-1.9471,-1.9305,-1.9305,-1.9305,-1.9305,-1.9305,-1.9305,-1.9335,-1.9527,-1.9682,-1.9719,-1.9405,-1.9559,-1.9607,-1.8824,-1.8585,-1.8313,-1.7082,-1.617,-1.5187,-1.3735,-1.3689,-1.4018,-1.4336,-1.4172,-1.4159,-1.4786,-1.4373,-1.41,-1.4627,-1.4717,-1.4717,-1.4707,-1.3887,-1.3577,-1.4341,0.0,0.0,0.0,-1.4839,-1.4719,0.0,0.0,0.0,0.0,0.0,-0.9745,-1.1674,-1.3624,-1.4374,-1.3835,-1.5487,-1.6355,-1.6367,-1.7027,-1.7344,-1.7311,-1.6913,-1.6984,-1.7435,-1.6674,-1.6163,-1.5857,-1.5747,-1.5252,-1.4579,-1.4524,-1.4488,-1.4488,-1.4488,-1.4488,-1.4598,-0.3414,-0.4456,-0.5626,-0.7052,-0.8771,-1.0698,-1.3074,-1.4049,-1.5047,-1.6591,-1.6789,-1.7068,-1.7743,-1.7811,-1.7704,-1.7422,-1.7502,-1.7566,-1.7532,-1.7618,-1.7704,-1.7811,-1.7992,-1.8061,-1.798,-1.833,-1.8604,-1.8789,-1.8931,-1.8896,-1.8697,-1.8351,-1.8229,-1.831,-1.8627,-1.8986,-1.9388,-1.9745,-2.0022,-2.0197,-1.992,-1.979,-1.9767,-1.9476,-1.9335,-1.9305,-1.9305,-1.9305,-1.9305,-1.9305,-1.9305,-1.9305,-1.935,-1.9495,-1.9636,-1.9555,-1.9669,-1.9607,-1.8824,-1.8585,-1.8434,-1.7727,-1.6395,-1.4954,-1.3683,-1.3307,-1.326,-1.335,-1.3531,-1.3731,-1.3837,-1.4087,-1.4366,-1.4658,-1.4785,-1.4813,-1.4698,-1.4444,-1.4397,-1.4738,-1.4551,-1.4558,-1.4966,-1.4917,-1.4813,0.0,0.0,0.0,-1.3494,-1.2201,-1.1614,-1.1989,-1.394,-1.4703,-1.4111,-1.581,-1.6799,-1.7076,-1.7479,-1.7681,-1.7687,-1.7209,-1.7474,-1.825,-1.7053,-1.6907,-1.7436,-1.6206,-1.5582,-1.5343,-1.4738,-1.4488,-1.4488,-1.4488,-1.4488,-1.4524,-0.3452,-0.4539,-0.5786,-0.744,-0.9214,-1.1176,-1.3459,-1.4365,-1.5271,-1.6617,-1.6789,-1.7068,-1.7743,-1.7811,-1.7811,-1.7811,-1.7811,-1.7811,-1.7811,-1.7811,-1.7811,-1.7811,-1.8057,-1.8187,-1.8187,-1.8585,-1.8896,-1.9134,-1.8913,-1.8752,-1.8585,-1.833,-1.827,-1.841,-1.8805,-1.9203,-1.9607,-1.9884,-2.0069,-2.0143,-1.9899,-1.9762,-1.9695,-1.939,-1.9305,-1.9305,-1.9305,-1.9305,-1.9305,-1.9305,-1.9305,-1.932,-1.9413,-1.9513,-1.9614,-1.9614,-1.9643,-1.954,-1.8789,-1.8585,-1.8382,-1.7522,-1.632,-1.5137,-1.4246,-1.3633,-1.3295,-1.3394,-1.3601,-1.3748,-1.38,-1.4136,-1.4486,-1.4747,-1.4841,-1.4859,-1.4804,-1.4681,-1.4672,-1.4886,-1.478,-1.4785,-1.498,-1.4933,-1.4841,-1.4709,-1.3892,0.0,-1.4449,-1.4167,-1.3699,-1.3027,-1.4712,-1.5389,-1.4932,-1.6329,-1.7199,-1.7526,-1.7704,-1.7811,-1.7777,-1.7185,-1.727,-1.7797,-1.6393,-1.6171,-1.6729,-1.5504,-1.508,-1.5105,-1.4683,-1.4488,-1.4488,-1.4488,-1.4488,-1.4488,-0.3759,-0.4578,-0.5865,-0.7636,-0.9534,-1.1516,-1.3572,-1.4634,-1.5565,-1.6644,-1.6841,-1.7117,-1.7726,-1.7811,-1.7811,-1.7811,-1.7811,-1.7811,-1.7811,-1.7811,-1.7833,-1.7878,-1.8103,-1.827,-1.831,-1.8807,-1.9117,-1.9305,-1.8825,-1.8585,-1.8585,-1.833,-1.8351,-1.8623,-1.9041,-1.9443,-1.9802,-1.9973,-2.0031,-1.9984,-1.988,-1.9738,-1.9569,-1.9409,-1.932,-1.9305,-1.9305,-1.9305,-1.9305,-1.9305,-1.9305,-1.932,-1.9499,-1.9555,-1.9555,-1.9555,-1.9448,-1.9214,-1.8717,-1.8547,-1.8178,-1.701,-1.6241,-1.5603,-1.4951,-1.426,-1.3802,-1.3888,-1.3927,-1.4011,-1.4183,-1.4361,-1.4497,-1.4537,-1.476,-1.4825,-1.4595,-1.4624,-1.4747,-1.49,-1.4839,-1.4859,-1.4988,-1.4933,-1.4888,-1.4875,-1.5203,-1.5456,-1.5564,-1.6003,-1.5727,-1.4651,-1.569,-1.6229,-1.6102,-1.6912,-1.7479,-1.7811,-1.7811,-1.7811,-1.7777,-1.7033,-1.6874,-1.7075,-1.5505,-1.5076,-1.5408,-1.4593,-1.435,-1.4488,-1.4488,-1.4488,-1.4506,-1.4464,-1.4549,-1.4664,-0.4424,-0.4927,-0.6072,-0.8604,-1.002,-1.1624,-1.4017,-1.5048,-1.5834,-1.6696,-1.7052,-1.7368,-1.7766,-1.7811,-1.7811,-1.7811,-1.7811,-1.7811,-1.7811,-1.7811,-1.7905,-1.8125,-1.8391,-1.8642,-1.8878,-1.9115,-1.9259,-1.9305,-1.8825,-1.8585,-1.8585,-1.833,-1.8351,-1.8623,-1.9143,-1.9525,-1.9832,-2.0116,-2.0161,-2.0012,-1.9983,-1.9813,-1.9601,-1.9555,-1.9456,-1.9305,-1.9305,-1.9305,-1.9305,-1.9305,-1.9305,-1.9305,-1.9335,-1.9335,-1.9335,-1.9335,-1.873,-1.8161,-1.852,-1.827,-1.7735,-1.6923,-1.6614,-1.6214,-1.5072,-1.4709,-1.4481,-1.3997,-1.4038,-1.4196,-1.4331,-1.4621,-1.4386,-1.3086,-1.4059,-1.4506,-1.316,-1.4155,-1.5025,-1.5076,-1.516,-1.5155,-1.5009,-1.4933,-1.5132,-1.5673,-1.5532,-1.5709,-1.6378,-1.6968,-1.7188,-1.6976,-1.673,-1.6896,-1.7473,-1.7365,-1.7479,-1.7811,-1.7811,-1.7811,-1.7777,-1.7033,-1.7185,-1.7913,-1.5853,-1.5482,-1.6214,-1.4963,-1.4476,-1.4488,-1.4488,-1.4488,-1.4476,-1.4307,-1.4781,-1.5398,-0.3902,-0.4749,-0.6094,-0.8307,-1.0108,-1.2037,-1.4412,-1.5448,-1.6223,-1.696,-1.7183,-1.7415,-1.7749,-1.7811,-1.7811,-1.7811,-1.7811,-1.7811,-1.7811,-1.7811,-1.7927,-1.8187,-1.845,-1.8843,-1.9308,-1.9413,-1.9471,-1.9471,-1.9033,-1.8807,-1.8807,-1.8697,-1.8697,-1.8843,-1.9291,-1.9613,-1.9802,-2.0031,-2.0078,-1.9993,-1.9993,-1.9836,-1.9614,-1.9614,-1.9485,-1.9305,-1.9305,-1.9365,-1.9471,-1.9471,-1.9523,-1.9572,-1.9481,-1.9471,-1.9442,-1.9335,-1.8517,-1.7646,-1.775,-1.7521,-1.7219,-1.727,-1.6982,-1.6492,-1.5732,-1.5272,-1.4893,-1.4429,-1.446,-1.4598,-1.467,-1.483,-1.4722,-1.4022,-1.4546,-1.4787,-1.4043,-1.4607,-1.5093,-1.5093,-1.5185,-1.5391,-1.5766,-1.5705,-1.5984,-1.6763,-1.7001,-1.7256,-1.7559,-1.8177,-1.8492,-1.8417,-1.7813,-1.7675,-1.7997,-1.771,-1.7658,-1.7811,-1.7811,-1.7811,-1.7794,-1.7456,-1.7403,-1.7475,-1.6097,-1.5617,-1.5782,-1.4754,-1.4399,-1.4488,-1.4488,-1.4756,-1.5129,-1.5037,-1.53,-1.5649,-0.3333,-0.4383,-0.5948,-0.7948,-1.0187,-1.2436,-1.4614,-1.5841,-1.6722,-1.7231,-1.7368,-1.7526,-1.7766,-1.7811,-1.7811,-1.7811,-1.7811,-1.7833,-1.7883,-1.7883,-1.8014,-1.829,-1.8643,-1.9064,-1.9527,-1.9587,-1.9587,-1.9527,-1.9166,-1.9002,-1.9002,-1.9002,-1.9002,-1.9036,-1.9427,-1.9669,-1.9802,-1.9934,-1.9993,-1.9993,-1.9993,-1.9836,-1.9614,-1.9614,-1.9485,-1.9305,-1.9305,-1.9442,-1.9614,-1.9614,-1.9551,-1.951,-1.9593,-1.9452,-1.9313,-1.9295,-1.8453,-1.7436,-1.7143,-1.7024,-1.7084,-1.7659,-1.7415,-1.6901,-1.6343,-1.5864,-1.5397,-1.4813,-1.4804,-1.4894,-1.4919,-1.4973,-1.4908,-1.4593,-1.4868,-1.4973,-1.4617,-1.4859,-1.5108,-1.5143,-1.5364,-1.5771,-1.6452,-1.6555,-1.696,-1.7808,-1.8336,-1.855,-1.8422,-1.9101,-1.9447,-1.9331,-1.8699,-1.8296,-1.8208,-1.7992,-1.7878,-1.7811,-1.7811,-1.7811,-1.7811,-1.7811,-1.7518,-1.6954,-1.6268,-1.5709,-1.5246,-1.4552,-1.4387,-1.4545,-1.4511,-1.5018,-1.5723,-1.5466,-1.5662,-1.5999,-0.3354,-0.4081,-0.5585,-0.8203,-1.0544,-1.2658,-1.4433,-1.6143,-1.7231,-1.728,-1.7572,-1.7766,-1.7811,-1.7811,-1.7811,-1.7811,-1.7811,-1.7922,-1.8146,-1.8166,-1.829,-1.8547,-1.9193,-1.9452,-1.932,-1.9499,-1.9513,-1.932,-1.9119,-1.9002,-1.9002,-1.9002,-1.9002,-1.9036,-1.9427,-1.9669,-1.9802,-1.9934,-1.9993,-1.9993,-1.9993,-1.9836,-1.9614,-1.9614,-1.9485,-1.9305,-1.9305,-1.9442,-1.9614,-1.9614,-1.9145,-1.8715,-1.9393,-1.9061,-1.8506,-1.9129,-1.8453,-1.7436,-1.7103,-1.7356,-1.7743,-1.7794,-1.7958,-1.776,-1.6501,-1.6402,-1.6235,-1.4964,-1.4804,-1.4919,-1.4985,-1.5007,-1.4533,-1.3118,-1.4129,-1.4594,-1.3167,-1.4196,-1.5155,-1.5261,-1.5943,-1.6424,-1.649,-1.7118,-1.7846,-1.8649,-1.8639,-1.8564,-1.8501,-1.9315,-1.9767,-1.9755,-1.9112,-1.8591,-1.8208,-1.8187,-1.8057,-1.7811,-1.7811,-1.7811,-1.7811,-1.7811,-1.7518,-1.6954,-1.6413,-1.5841,-1.526,-1.4715,-1.4549,-1.4677,-1.4556,-1.5076,-1.5759,-1.4832,-1.5568,-1.679,-0.3032,-0.4462,-0.6249,-0.8291,-1.0957,-1.3334,-1.4995,-1.6703,-1.7754,-1.7618,-1.7866,-1.7992,-1.7833,-1.7811,-1.7878,-1.8018,-1.8057,-1.8166,-1.843,-1.8604,-1.8771,-1.896,-1.9453,-1.9738,-1.9729,-1.9805,-1.9767,-1.9606,-1.9452,-1.9308,-1.9198,-1.9198,-1.9198,-1.9198,-1.9353,-1.9559,-1.979,-1.9858,-1.9914,-1.9993,-1.9993,-1.9836,-1.9614,-1.9614,-1.9485,-1.932,-1.9442,-1.9591,-1.9738,-1.9813,-1.9743,-1.9545,-1.9111,-1.8749,-1.8354,-1.7645,-1.7173,-1.6793,-1.641,-1.6385,-1.6703,-1.7774,-1.7463,-1.6835,-1.6563,-1.6349,-1.5948,-1.5062,-1.5028,-1.5133,-1.5133,-1.5127,-1.4947,-1.44,-1.4837,-1.5034,-1.449,-1.4929,-1.529,-1.5362,-1.6044,-1.6716,-1.7244,-1.8003,-1.8824,-1.9671,-1.9186,-1.88,-1.8697,-1.9001,-1.9368,-1.979,-1.955,-1.9143,-1.8591,-1.8318,-1.8078,-1.7811,-1.7811,-1.7811,-1.7811,-1.7971,-1.7472,-1.65,-1.6425,-1.5785,-1.4794,-1.4592,-1.4533,-1.4589,-1.4603,-1.5147,-1.5848,-1.5567,-1.5902,-1.6404,-0.3703,-0.5444,-0.7264,-0.8559,-1.1407,-1.4015,-1.5462,-1.7164,-1.8177,-1.7954,-1.81,-1.81,-1.7833,-1.7878,-1.7992,-1.8187,-1.827,-1.843,-1.8715,-1.9017,-1.9227,-1.9324,-1.9626,-1.9847,-1.9943,-1.9993,-1.9924,-1.979,-1.9656,-1.9527,-1.938,-1.932,-1.9305,-1.9305,-1.9305,-1.949,-1.9809,-1.9762,-1.9836,-1.9984,-1.9912,-1.9762,-1.9582,-1.9527,-1.9409,-1.932,-1.9527,-1.9682,-1.9813,-1.9912,-1.9898,-1.9684,-1.8815,-1.8317,-1.7838,-1.6697,-1.6429,-1.6427,-1.6098,-1.5748,-1.5834,-1.7251,-1.6941,-1.6312,-1.6376,-1.6192,-1.5838,-1.5176,-1.5166,-1.5279,-1.5207,-1.5189,-1.5218,-1.5289,-1.5306,-1.5312,-1.536,-1.5398,-1.5494,-1.5754,-1.6464,-1.7161,-1.7772,-1.855,-1.9162,-1.9495,-1.8941,-1.8551,-1.8453,-1.8453,-1.8773,-1.946,-1.9681,-1.9479,-1.8802,-1.8476,-1.8187,-1.7927,-1.7927,-1.7927,-1.7927,-1.8208,-1.7588,-1.63,-1.6443,-1.5746,-1.4567,-1.4567,-1.4603,-1.4668,-1.4747,-1.5262,-1.5986,-1.5836,-1.5959,-1.6151,-0.5579,-0.707,-0.85,-0.9095,-1.1982,-1.4588,-1.5728,-1.7433,-1.8508,-1.8229,-1.8187,-1.81,-1.7833,-1.8035,-1.8187,-1.8208,-1.845,-1.8715,-1.8984,-1.9383,-1.9596,-1.9596,-1.9726,-1.979,-1.979,-1.9924,-1.9943,-1.979,-1.9669,-1.9596,-1.9601,-1.9413,-1.9305,-1.9305,-1.9305,-1.949,-1.9797,-1.9662,-1.975,-1.9964,-1.972,-1.9614,-1.9587,-1.9383,-1.9305,-1.932,-1.9527,-1.9682,-1.979,-1.979,-1.9349,-1.8755,-1.847,-1.7707,-1.6849,-1.658,-1.6486,-1.644,-1.6251,-1.5693,-1.5375,-1.612,-1.6497,-1.6513,-1.5857,-1.6018,-1.6067,-1.5266,-1.5217,-1.5279,-1.5207,-1.5195,-1.5218,-1.5289,-1.5306,-1.5299,-1.5293,-1.5366,-1.5695,-1.6504,-1.7357,-1.79,-1.7897,-1.8629,-1.872,-1.7871,-1.7741,-1.7683,-1.7702,-1.7702,-1.8037,-1.8782,-1.9452,-1.9479,-1.8802,-1.8663,-1.8469,-1.8187,-1.8208,-1.8208,-1.8191,-1.8471,-1.7826,-1.6486,-1.6502,-1.5809,-1.4707,-1.4707,-1.4821,-1.498,-1.4936,-1.5428,-1.6108,-1.5364,-1.56,-1.6208,-0.5686,-0.7064,-0.8549,-1.0066,-1.2984,-1.535,-1.6063,-1.7719,-1.8715,-1.8249,-1.8187,-1.81,-1.7833,-1.7861,-1.8061,-1.845,-1.8547,-1.8771,-1.918,-1.9456,-1.9649,-1.9738,-1.9869,-2.0012,-2.0153,-2.0188,-2.0115,-1.9953,-1.9901,-1.9824,-1.9738,-1.9577,-1.9513,-1.9499,-1.935,-1.9438,-1.9662,-1.9609,-1.9649,-1.9701,-1.9636,-1.9513,-1.938,-1.932,-1.9305,-1.932,-1.9527,-1.9295,-1.89,-1.8952,-1.8885,-1.8755,-1.847,-1.7331,-1.6002,-1.5791,-1.5424,-1.5067,-1.4979,-1.4892,-1.5122,-1.6287,-1.5966,-1.5507,-1.6013,-1.5887,-1.5595,-1.5299,-1.531,-1.5354,-1.5269,-1.5268,-1.526,-1.5235,-1.5268,-1.5292,-1.5307,-1.5843,-1.6107,-1.5734,-1.6969,-1.7616,-1.704,-1.7716,-1.8088,-1.7819,-1.721,-1.6872,-1.6856,-1.6849,-1.7166,-1.7869,-1.8531,-1.8752,-1.8458,-1.8537,-1.8169,-1.7371,-1.7928,-1.7739,-1.6903,-1.7727,-1.7315,-1.5937,-1.6137,-1.5689,-1.4832,-1.4832,-1.4881,-1.4938,-1.5004,-1.5204,-1.5408,-1.5291,-1.5426,-1.5632,-0.6729,-0.797,-0.9312,-1.115,-1.3857,-1.5956,-1.646,-1.8021,-1.893,-1.843,-1.8351,-1.8208,-1.7856,-1.7992,-1.8249,-1.8566,-1.8842,-1.9113,-1.9394,-1.9625,-1.9813,-1.9906,-2.0047,-2.0172,-2.0312,-2.0312,-2.0241,-2.0115,-2.0031,-1.9943,-1.9809,-1.9656,-1.9555,-1.9485,-1.935,-1.9409,-1.9582,-1.9513,-1.9527,-1.9582,-1.9513,-1.9413,-1.9305,-1.9305,-1.9305,-1.932,-1.9527,-1.9126,-1.8512,-1.8553,-1.8367,-1.8092,-1.7882,-1.7051,-1.6088,-1.565,-1.5301,-1.4984,-1.4618,-1.4681,-1.5045,-1.5862,-1.5495,-1.5095,-1.5792,-1.566,-1.5391,-1.5358,-1.5366,-1.5383,-1.5306,-1.5297,-1.5285,-1.5251,-1.5233,-1.5225,-1.5212,-1.5641,-1.5916,-1.5749,-1.6632,-1.708,-1.6635,-1.7012,-1.7155,-1.6842,-1.6324,-1.6034,-1.6031,-1.6329,-1.6649,-1.6984,-1.77,-1.8001,-1.7745,-1.7876,-1.7716,-1.7274,-1.7488,-1.7201,-1.6504,-1.7289,-1.7009,-1.5876,-1.6026,-1.5681,-1.4977,-1.4976,-1.5012,-1.5069,-1.5149,-1.5179,-1.5184,-1.5307,-1.5356,-1.5351,-0.8329,-0.9401,-1.0497,-1.2381,-1.4685,-1.6445,-1.6968,-1.8298,-1.9097,-1.866,-1.8547,-1.8351,-1.7839,-1.8249,-1.8566,-1.8585,-1.9209,-1.9614,-1.9614,-1.9869,-2.0039,-2.01,-2.0238,-2.0302,-2.0315,-2.0315,-2.0315,-2.03,-2.0114,-1.9973,-1.9813,-1.9682,-1.9509,-1.932,-1.9305,-1.9394,-1.9555,-1.9365,-1.9413,-1.9555,-1.9365,-1.9305,-1.9305,-1.9305,-1.9268,-1.9228,-1.9402,-1.8964,-1.8305,-1.8372,-1.7821,-1.7096,-1.7122,-1.7087,-1.6853,-1.6041,-1.5845,-1.5718,-1.4941,-1.4893,-1.5093,-1.5111,-1.5122,-1.5163,-1.5344,-1.54,-1.5381,-1.5381,-1.5401,-1.5376,-1.5314,-1.529,-1.5309,-1.5293,-1.5187,-1.5104,-1.5097,-1.5107,-1.5407,-1.6175,-1.6352,-1.6413,-1.6457,-1.6412,-1.6069,-1.5343,-1.5365,-1.5407,-1.5414,-1.6102,-1.6418,-1.6222,-1.6984,-1.7216,-1.6836,-1.6836,-1.7054,-1.7501,-1.6976,-1.667,-1.6562,-1.7012,-1.6781,-1.6025,-1.6032,-1.5689,-1.5127,-1.5115,-1.519,-1.529,-1.529,-1.5305,-1.5302,-1.5363,-1.5332,-1.5288,-0.8305,-0.9764,-1.1431,-1.3889,-1.5687,-1.7102,-1.7956,-1.8544,-1.8822,-1.8642,-1.8229,-1.7927,-1.7811,-1.8082,-1.8371,-1.8585,-1.9209,-1.9614,-1.9614,-1.9896,-2.0084,-2.0108,-2.0272,-2.0385,-2.0371,-2.0371,-2.0346,-2.0302,-2.0263,-2.0131,-1.9944,-1.9813,-1.9682,-1.9527,-1.9365,-1.932,-1.935,-1.932,-1.932,-1.935,-1.932,-1.9305,-1.9305,-1.9305,-1.8904,-1.8372,-1.8415,-1.7653,-1.6724,-1.7463,-1.7439,-1.7324,-1.8612,-1.8467,-1.7679,-1.6872,-1.6288,-1.574,-1.5038,-1.4985,-1.5122,-1.5226,-1.5253,-1.5265,-1.5311,-1.5328,-1.5327,-1.5327,-1.5359,-1.5386,-1.531,-1.5349,-1.5345,-1.5245,-1.516,-1.5075,-1.5037,-1.5596,-1.5845,-1.5355,-1.601,-1.6193,-1.5496,-1.5418,-1.5332,-1.5151,-1.5829,-1.6246,-1.6251,-1.6411,-1.6478,-1.6432,-1.6472,-1.6447,-1.6347,-1.629,-1.6221,-1.614,-1.6625,-1.6363,-1.5476,-1.6246,-1.6179,-1.5461,-1.5474,-1.5391,-1.5251,-1.5258,-1.5265,-1.5291,-1.5291,-1.5328,-1.5364,-1.5229,-1.5199,-1.5086,-0.9617,-1.1219,-1.2916,-1.5208,-1.6787,-1.7896,-1.8329,-1.8851,-1.9043,-1.866,-1.8351,-1.8125,-1.8014,-1.8229,-1.8586,-1.9048,-1.9462,-1.975,-1.9823,-2.0052,-2.0231,-2.0284,-2.0398,-2.045,-2.0486,-2.0506,-2.0441,-2.0342,-2.033,-2.0183,-1.9945,-1.985,-1.9688,-1.9456,-1.935,-1.9305,-1.9305,-1.9305,-1.9305,-1.9305,-1.9305,-1.9305,-1.9305,-1.9305,-1.8794,-1.8096,-1.8096,-1.7244,-1.6187,-1.6749,-1.7046,-1.7419,-1.8653,-1.886,-1.8519,-1.7697,-1.7046,-1.6405,-1.5667,-1.5338,-1.5218,-1.5326,-1.5348,-1.5348,-1.5348,-1.5329,-1.5296,-1.5296,-1.5329,-1.534,-1.5301,-1.534,-1.5329,-1.5251,-1.5105,-1.4985,-1.4954,-1.5296,-1.5392,-1.5006,-1.5423,-1.5529,-1.5045,-1.5068,-1.51,-1.5099,-1.5995,-1.6364,-1.5944,-1.6323,-1.6353,-1.5945,-1.583,-1.576,-1.5763,-1.5728,-1.5645,-1.5506,-1.5872,-1.5701,-1.511,-1.5631,-1.5663,-1.5299,-1.5293,-1.5306,-1.5293,-1.5228,-1.521,-1.5193,-1.5055,-1.5018,-1.5038,-1.5223,-1.5419,-1.5311,-1.1298,-1.2939,-1.4519,-1.6508,-1.7868,-1.8663,-1.8669,-1.9182,-1.9357,-1.8771,-1.8586,-1.845,-1.8229,-1.8452,-1.8894,-1.9541,-1.9743,-1.9916,-2.01,-2.0256,-2.0374,-2.0506,-2.0511,-2.0541,-2.0605,-2.0605,-2.054,-2.0422,-2.0347,-2.0159,-1.9907,-1.982,-1.9619,-1.9305,-1.9305,-1.9305,-1.9305,-1.9305,-1.9305,-1.9305,-1.9305,-1.9305,-1.9305,-1.9305,-1.8794,-1.8096,-1.8096,-1.7244,-1.6111,-1.6244,-1.6657,-1.7229,-1.7978,-1.8544,-1.8801,-1.8139,-1.7535,-1.6941,-1.6312,-1.5738,-1.5319,-1.5371,-1.539,-1.5389,-1.5389,-1.5351,-1.5307,-1.5307,-1.5307,-1.5303,-1.5294,-1.5281,-1.5287,-1.5241,-1.5057,-1.4889,-1.4867,-1.4776,-1.4747,-1.4841,-1.4877,-1.4877,-1.4877,-1.4977,-1.5037,-1.5067,-1.6124,-1.6405,-1.557,-1.6358,-1.6412,-1.5547,-1.5373,-1.5292,-1.5303,-1.5303,-1.5306,-1.5296,-1.5197,-1.516,-1.5152,-1.5277,-1.5329,-1.5326,-1.5312,-1.5305,-1.5253,-1.5117,-1.511,-1.5163,-1.4855,-1.4782,-1.4888,-1.5151,-1.5072,-1.4435,-1.229,-1.3984,-1.5751,-1.7943,-1.8669,-1.9145,-1.9697,-1.9593,-1.9346,-1.9151,-1.8608,-1.8249,-1.8208,-1.8535,-1.9006,-1.9555,-1.9886,-2.0076,-2.0108,-2.0331,-2.048,-2.0508,-2.0562,-2.0586,-2.0605,-2.0605,-2.0564,-2.0482,-2.0425,-2.0224,-1.9907,-1.982,-1.9619,-1.9305,-1.9305,-1.9305,-1.9305,-1.9305,-1.9305,-1.9305,-1.9305,-1.9305,-1.9305,-1.9305,-1.8794,-1.8096,-1.8096,-1.7244,-1.6111,-1.6244,-1.6309,-1.6486,-1.7216,-1.7423,-1.7393,-1.7349,-1.6816,-1.6252,-1.6277,-1.5795,-1.531,-1.5379,-1.5369,-1.5304,-1.5304,-1.531,-1.5291,-1.5291,-1.5291,-1.5274,-1.5215,-1.5255,-1.5236,-1.5076,-1.4954,-1.4867,-1.4728,-1.4717,-1.4717,-1.4708,-1.4737,-1.4737,-1.4737,-1.4747,-1.4801,-1.4921,-1.6507,-1.7159,-1.6462,-1.7248,-1.7329,-1.644,-1.5692,-1.529,-1.5291,-1.5363,-1.5358,-1.5296,-1.534,-1.5364,-1.5366,-1.5385,-1.539,-1.5382,-1.54,-1.5296,-1.5113,-1.4929,-1.5142,-1.5564,-1.5061,-1.5297,-1.5769,-1.4624,-1.229,-0.9646,-1.3989,-1.5582,-1.7059,-1.874,-1.9431,-1.9799,-1.9974,-1.9798,-1.946,-1.9018,-1.8645,-1.843,-1.843,-1.8917,-1.9395,-1.9793,-1.9998,-2.0123,-2.0204,-2.033,-2.0429,-2.0508,-2.0524,-2.0546,-2.0541,-2.0541,-2.0511,-2.0441,-2.0402,-2.023,-1.9907,-1.982,-1.9567,-1.9134,-1.9243,-1.9246,-1.9115,-1.8767,-1.8629,-1.8629,-1.8629,-1.8629,-1.8684,-1.9124,-1.8794,-1.8056,-1.7678,-1.6925,-1.6187,-1.6768,-1.6641,-1.635,-1.7159,-1.7327,-1.7229,-1.724,-1.6728,-1.6182,-1.6314,-1.5841,-1.5307,-1.5346,-1.5327,-1.5296,-1.5296,-1.5299,-1.5289,-1.525,-1.5245,-1.5234,-1.522,-1.517,-1.5101,-1.5009,-1.4873,-1.4766,-1.4717,-1.4707,-1.4707,-1.4707,-1.4707,-1.4627,-1.4433,-1.4595,-1.471,-1.4725,-1.6096,-1.6613,-1.5914,-1.6699,-1.6776,-1.5903,-1.5496,-1.5317,-1.5366,-1.5391,-1.5395,-1.536,-1.539,-1.5408,-1.539,-1.5323,-1.527,-1.5222,-1.5153,-1.5004,-1.4814,-1.4644,-1.4574,-1.4427,-1.2923,-1.1563,-1.0412,-0.9878,-0.8786,-0.7343]},{"header":{"parameterUnit":"m.s-1","parameterCategory":1,"la1":30.6,"la2":28.766,"lo1":-90.7593,"lo2":-88.6598,"dx":0.0162,"dy":0.0183,"nx":116,"ny":114,"refTime":"2022-12-03T18:00:00:Z","depth":0,"parameterNumber":3,"parameterNumberName":"V-component_of_WINDS"},"data":[0.0,0.0,0.0,0.0,0.0,0.0,0.0,0.0,0.0,0.0,0.0,0.0,0.0,0.0,0.0,0.0,0.0,0.0,0.0,0.0,0.0,0.0,0.0,0.0,0.0,0.0,0.0,0.0,0.0,0.0,0.0,0.0,0.0,0.0,0.0,0.0,0.0,0.0,0.0,0.0,0.0,0.0,0.0,0.0,0.0,0.0,0.0,0.0,0.0,0.0,0.0,0.0,0.0,0.0,0.0,0.0,0.0,0.0,0.0,0.0,0.0,0.0,0.0,0.0,0.0,0.0,0.0,0.0,0.0,0.0,0.0,0.0,0.0,0.0,0.0,0.0,0.0,0.0,0.0,0.0,0.0,0.0,0.0,0.0,0.0,0.0,0.0,0.0,0.0,0.0,0.0,0.0,0.0,0.0,0.0,0.0,0.0,0.0,0.0,0.0,0.0,0.0,0.0,0.0,0.0,0.0,0.0,0.0,0.0,0.0,0.0,0.0,0.0,0.0,0.0,0.0,0.0,0.0,0.0,0.0,0.0,0.0,0.0,0.0,0.0,0.0,0.0,0.0,0.0,0.0,0.0,0.0,0.0,0.0,0.0,0.0,0.0,0.0,0.0,0.0,0.0,0.0,0.0,0.0,0.0,0.0,0.0,0.0,0.0,0.0,0.0,0.0,0.0,0.0,0.0,0.0,0.0,0.0,0.0,0.0,0.0,0.0,0.0,0.0,0.0,0.0,0.0,0.0,0.0,0.0,0.0,0.0,0.0,0.0,0.0,0.0,0.0,0.0,0.0,0.0,0.0,0.0,0.0,0.0,0.0,0.0,0.0,0.0,0.0,0.0,0.0,0.0,0.0,0.0,0.0,0.0,0.0,0.0,0.0,0.0,0.0,0.0,0.0,0.0,0.0,0.0,0.0,0.0,0.0,0.0,0.0,0.0,0.0,0.0,0.0,0.0,0.0,0.0,0.0,0.0,0.0,0.0,0.0,0.0,0.0,0.0,0.0,0.0,0.0,0.0,0.0,0.0,0.0,0.0,0.0,0.0,0.0,0.0,0.0,0.0,0.0,0.0,0.0,0.0,0.0,0.0,0.0,0.0,0.0,0.0,0.0,0.0,0.0,0.0,0.0,0.0,0.0,0.0,0.0,0.0,0.0,0.0,0.0,0.0,0.0,0.0,0.0,0.0,0.0,0.0,0.0,0.0,0.0,0.0,0.0,0.0,0.0,0.0,0.0,0.0,0.0,0.0,0.0,0.0,0.0,0.0,0.0,0.0,0.0,0.0,0.0,0.0,0.0,0.0,0.0,0.0,0.0,0.0,0.0,0.0,0.0,0.0,0.0,0.0,0.0,0.0,0.0,0.0,0.0,0.0,0.0,0.0,0.0,0.0,0.0,0.0,0.0,0.0,0.0,0.0,0.0,0.0,0.0,0.0,0.0,0.0,0.0,0.0,0.0,0.0,0.0,0.0,0.0,0.0,0.0,0.0,0.0,0.0,0.0,0.0,0.0,0.0,0.0,0.0,0.0,0.0,0.0,0.0,0.0,0.0,0.0,0.0,0.0,0.0,0.0,0.0,0.0,0.0,0.0,0.0,0.0,0.0,0.0,0.0,0.0,0.0,0.0,0.0,0.0,0.0,0.0,0.0,0.0,0.0,0.0,0.0,0.0,0.0,0.0,0.0,0.0,0.0,0.0,0.0,0.0,0.0,0.0,0.0,0.0,0.0,0.0,0.0,0.0,0.0,0.0,0.0,0.0,0.0,0.0,0.0,0.0,0.0,0.0,0.0,0.0,0.0,0.0,0.0,0.0,0.0,0.0,0.0,0.0,0.0,0.0,0.0,0.0,0.0,0.0,0.0,0.0,0.0,0.0,0.0,0.0,0.0,0.0,0.0,0.0,0.0,0.0,0.0,0.0,0.0,0.0,0.0,0.0,0.0,0.0,0.0,0.0,0.0,0.0,0.0,0.0,0.0,0.0,0.0,0.0,0.0,0.0,0.0,0.0,0.0,0.0,0.0,0.0,0.0,0.0,0.0,0.0,0.0,0.0,0.0,0.0,0.0,0.0,0.0,0.0,0.0,0.0,0.0,0.0,0.0,0.0,0.0,0.0,0.0,0.0,0.0,0.0,0.0,0.0,0.0,0.0,0.0,0.0,0.0,0.0,0.0,0.0,0.0,0.0,0.0,0.0,0.0,0.0,0.0,0.0,0.0,0.0,0.0,0.0,0.0,0.0,0.0,0.0,0.0,0.0,0.0,0.0,0.0,0.0,0.0,0.0,0.0,0.0,0.0,0.0,0.0,0.0,0.0,0.0,0.0,0.0,0.0,0.0,0.0,0.0,0.0,0.0,0.0,0.0,0.0,0.0,0.0,0.0,0.0,0.0,0.0,0.0,0.0,0.0,0.0,0.0,0.0,0.0,0.0,0.0,0.0,0.0,0.0,0.0,0.0,0.0,0.0,0.0,0.0,0.0,0.0,0.0,0.0,0.0,0.0,0.0,0.0,0.0,0.0,0.0,0.0,0.0,0.0,0.0,0.0,0.0,0.0,0.0,0.0,0.0,0.0,0.0,0.0,0.0,0.0,0.0,0.0,0.0,0.0,0.0,0.0,0.0,0.0,0.0,0.0,0.0,0.0,0.0,0.0,0.0,0.0,0.0,0.0,0.0,0.0,0.0,0.0,0.0,0.0,0.0,0.0,0.0,0.0,0.0,0.0,0.0,0.0,0.0,0.0,0.0,0.0,0.0,0.0,0.0,0.0,0.0,0.0,0.0,0.0,0.0,0.0,0.0,0.0,0.0,0.0,0.0,0.0,0.0,0.0,0.0,0.0,0.0,0.0,0.0,0.0,0.0,0.0,0.0,0.0,0.0,0.0,0.0,0.0,0.0,0.0,0.0,0.0,0.0,0.0,0.0,0.0,0.0,0.0,0.0,0.0,0.0,0.0,0.0,0.0,0.0,0.0,0.0,0.0,0.0,0.0,0.0,0.0,0.0,0.0,0.0,0.0,0.0,0.0,0.0,0.0,0.0,0.0,0.0,0.0,0.0,0.0,0.0,0.0,0.0,0.0,0.0,0.0,0.0,0.0,0.0,0.0,0.0,0.0,0.0,0.0,0.0,0.0,0.0,0.0,0.0,0.0,0.0,0.0,0.0,0.0,0.0,0.0,0.0,0.0,0.0,0.0,0.0,0.0,0.0,0.0,0.0,0.0,0.0,0.0,0.0,0.0,0.0,0.0,0.0,0.0,0.0,0.0,0.0,0.0,0.0,0.0,0.0,0.0,0.0,0.0,0.0,0.0,0.0,0.0,0.0,0.0,0.0,0.0,0.0,0.0,0.0,0.0,0.0,0.0,0.0,0.0,0.0,0.0,0.0,0.0,0.0,0.0,0.0,0.0,0.0,0.0,0.0,0.0,0.0,0.0,0.0,0.0,0.0,0.0,0.0,0.0,0.0,0.0,0.0,0.0,0.0,0.0,0.0,0.0,0.0,0.0,0.0,0.0,0.0,0.0,0.0,0.0,0.0,0.0,0.0,0.0,0.0,0.0,0.0,0.0,0.0,0.0,0.0,0.0,0.0,0.0,0.0,0.0,0.0,0.0,0.0,0.0,0.0,0.0,0.0,0.0,0.0,0.0,0.0,0.0,0.0,0.0,0.0,0.0,0.0,0.0,0.0,0.0,0.0,0.0,0.0,0.0,0.0,0.0,0.0,0.0,0.0,0.0,0.0,0.0,0.0,0.0,0.0,0.0,0.0,0.0,0.0,0.0,0.0,0.0,0.0,0.0,0.0,0.0,0.0,0.0,0.0,0.0,0.0,0.0,0.0,0.0,0.0,0.0,0.0,0.0,0.0,0.0,0.0,0.0,0.0,0.0,0.0,0.0,0.0,0.0,0.0,0.0,0.0,0.0,0.0,0.0,0.0,0.0,0.0,0.0,0.0,0.0,0.0,0.0,0.0,0.0,0.0,0.0,0.0,0.0,0.0,0.0,0.0,0.0,0.0,0.0,0.0,0.0,0.0,0.0,0.0,0.0,0.0,0.0,0.0,0.0,0.0,0.0,0.0,0.0,0.0,0.0,0.0,0.0,0.0,0.0,0.0,0.0,0.0,0.0,0.0,0.0,0.0,0.0,0.0,0.0,0.0,0.0,0.0,0.0,0.0,0.0,0.0,0.0,0.0,0.0,0.0,0.0,0.0,0.0,0.0,0.0,0.0,0.0,0.0,0.0,0.0,0.0,0.0,0.0,0.0,0.0,0.0,0.0,0.0,0.0,0.0,0.0,0.0,0.0,0.0,0.0,0.0,0.0,0.0,0.0,0.0,0.0,0.0,0.0,0.0,0.0,0.0,0.0,0.0,0.0,0.0,0.0,0.0,0.0,0.0,0.0,0.0,0.0,0.0,0.0,0.0,0.0,0.0,0.0,0.0,0.0,0.0,0.0,0.0,0.0,0.0,0.0,0.0,0.0,0.0,0.0,0.0,0.0,0.0,0.0,0.0,0.0,0.0,0.0,0.0,0.0,0.0,0.0,0.0,0.0,0.0,0.0,0.0,0.0,0.0,0.0,0.0,0.0,0.0,0.0,0.0,0.0,0.0,0.0,0.0,0.0,0.0,0.0,0.0,0.0,0.0,0.0,0.0,0.0,0.0,0.0,0.0,0.0,0.0,0.0,0.0,0.0,0.0,0.0,0.0,0.0,0.0,0.0,0.0,0.0,0.0,0.0,0.0,0.0,0.0,0.0,0.0,0.0,0.0,0.0,0.0,0.0,0.0,0.0,0.0,0.0,0.0,0.0,0.0,0.0,0.0,0.0,0.0,0.0,0.0,0.0,0.0,0.0,0.0,0.0,0.0,0.0,0.0,0.0,0.0,0.0,0.0,0.0,0.0,0.0,0.0,0.0,0.0,0.0,0.0,0.0,0.0,0.0,0.0,0.0,0.0,0.0,0.0,0.0,0.0,0.0,0.0,0.0,0.0,0.0,0.0,0.0,0.0,0.0,0.0,0.0,0.0,0.0,0.0,0.0,0.0,0.0,0.0,0.0,0.0,0.0,0.0,0.0,0.0,0.0,0.0,0.0,0.0,0.0,0.0,0.0,0.0,0.0,0.0,0.0,0.0,0.0,0.0,0.0,0.0,0.0,0.0,0.0,0.0,0.0,0.0,0.0,0.0,0.0,0.0,0.0,0.0,0.0,0.0,0.0,0.0,0.0,0.0,0.0,0.0,0.0,0.0,0.0,0.0,0.0,0.0,0.0,0.0,0.0,0.0,0.0,0.0,0.0,0.0,0.0,0.0,0.0,0.0,0.0,0.0,0.0,0.0,0.0,0.0,0.0,0.0,0.0,0.0,0.0,0.0,0.0,0.0,0.0,0.0,0.0,0.0,0.0,0.0,0.0,0.0,0.0,0.0,0.0,0.0,0.0,0.0,0.0,0.0,0.0,0.0,0.0,0.0,0.0,0.0,0.0,0.0,0.0,0.0,0.0,0.0,0.0,0.0,0.0,0.0,0.0,0.0,0.0,0.0,0.0,0.0,0.0,0.0,0.0,0.0,0.0,0.0,0.0,0.0,0.0,0.0,0.0,0.0,0.0,0.0,0.0,0.0,0.0,0.0,0.0,0.0,0.0,0.0,0.0,0.0,0.0,0.0,0.0,0.0,0.0,0.0,0.0,0.0,0.0,0.0,0.0,0.0,0.0,0.0,0.0,0.0,0.0,0.0,0.0,0.0,0.0,0.0,0.0,0.0,0.0,0.0,0.0,0.0,0.0,0.0,0.0,0.0,0.0,0.0,0.0,0.0,0.0,0.0,0.0,0.0,0.0,0.0,0.0,0.0,0.0,0.0,0.0,0.0,0.0,0.0,0.0,0.0,0.0,0.0,0.0,0.0,0.0,0.0,0.0,0.0,0.0,0.0,0.0,0.0,0.0,0.0,0.0,0.0,0.0,0.0,0.0,0.0,0.0,0.0,0.0,0.0,0.0,0.0,0.0,0.0,0.0,0.0,0.0,0.0,0.0,0.0,0.0,0.0,0.0,0.0,0.0,0.0,0.0,0.0,0.0,0.0,0.0,0.0,0.0,0.0,0.0,0.0,0.0,0.0,0.0,-0.7725,-0.6799,0.0,0.0,0.0,0.0,0.0,0.0,0.0,0.0,0.0,0.0,0.0,0.0,0.0,0.0,0.0,0.0,0.0,0.0,0.0,0.0,0.0,0.0,0.0,0.3421,0.3506,0.3506,0.3506,0.0,0.0,0.0,0.0,0.0,0.0,0.0,0.0,0.0,0.1999,0.2427,0.256,0.3136,0.4097,0.3656,0.335,0.3171,0.0,0.0,0.0,0.0,0.0,0.0,0.0,0.0,0.0,0.0,0.0,0.0,0.0,0.0,0.0,0.0,0.0,0.0,0.0,0.0,0.0,0.0,0.0,0.0,0.0,0.0,0.0,0.0,0.0,0.0,0.0,0.0,0.0,0.0,0.0,0.0,0.0,0.0,0.0,0.0,0.0,0.0,0.0,0.0,0.0,0.0,0.0,0.0,0.0,0.0,0.0,0.0,0.0,0.0,0.0,0.0,0.0,0.0,0.0,0.0,0.0,0.0,0.0,0.0,0.0,0.0,0.0,0.0,0.0,0.0,-0.96,-0.8918,0.0,0.0,0.0,0.0,0.0,0.0,0.0,0.0,0.0,0.0,0.0,0.0,0.0,0.0,0.0,0.0,0.0,0.0,0.0,0.0,0.0,0.3327,0.3088,0.3297,0.346,0.3535,0.3523,0.3526,0.3579,0.3532,0.0,0.0,0.0,0.0,0.1883,0.1868,0.2271,0.309,0.3502,0.4356,0.5651,0.5713,0.5626,0.5401,0.432,0.0,0.0,0.0,0.0,0.0,0.0,0.0,0.0,0.0,0.0,0.0,0.0,0.0,0.0,0.0,0.0,0.0,0.0,0.0,0.0,0.0,0.0,0.0,0.0,0.0,0.0,0.0,0.0,0.0,0.0,0.0,0.0,0.0,0.0,0.0,0.0,0.0,0.0,0.0,0.0,0.0,0.0,0.0,0.0,0.0,0.0,0.0,0.0,0.0,0.0,0.0,0.0,0.0,0.0,0.0,0.0,0.0,0.0,0.0,0.0,0.0,0.0,0.0,-0.7054,-0.7186,-0.7476,-0.8167,-0.963,-1.161,-1.1633,-1.1319,-1.0601,-0.885,0.0,0.0,0.0,0.0,0.0,0.0,0.0,0.0,0.0,0.0,0.0,0.0,0.0,0.0,0.0,0.0,0.0,0.0,0.0,0.3089,0.2956,0.3068,0.3294,0.3646,0.3562,0.3612,0.3918,0.3674,0.0,0.0,0.0,0.2455,0.2159,0.2142,0.2457,0.3105,0.5089,0.6521,0.7475,0.7687,0.8036,0.8345,0.6138,0.509,0.4921,0.0,0.0,0.0,0.0,0.0,0.0,0.0,0.0,0.0,0.0,0.0,0.0,0.0,0.0,0.0,0.0,0.0,0.0,0.0,0.0,0.0,0.0,0.0,0.0,0.0,0.0,0.0,0.0,0.0,0.0,0.0,0.0,0.0,0.0,0.0,0.0,0.0,0.0,0.0,0.0,0.0,-0.5557,-0.3915,0.0,0.0,0.0,0.0,0.0,0.0,0.0,0.0,0.0,0.0,0.0,0.0,0.0,-0.292,-0.4548,-0.5855,-0.698,-0.7948,-0.8725,-0.957,-1.0448,-1.1246,-1.2499,-1.4076,-1.4765,0.0,-1.1695,-1.1461,0.0,0.0,0.0,0.0,0.0,0.0,0.0,0.0,0.0,0.0,0.0,0.0,0.0,0.0,0.0,0.0,0.0,0.0,0.0,0.0,0.0,0.3382,0.3837,0.4179,0.4679,0.481,0.4467,0.4439,0.0,0.0,0.2768,0.2473,0.2198,0.253,0.3313,0.455,0.6376,0.7631,0.832,0.8738,0.9226,0.9668,0.8348,0.7045,0.5806,0.5086,0.0,0.0,0.0,0.0,0.0,0.0,0.0,0.0,0.0,0.0,0.0,0.0,0.0,0.0,0.0,0.0,0.0,0.0,0.0,0.0,0.0,0.0,0.0,0.0,0.0,0.0,0.0,0.0,0.0,0.0,0.0,0.0,0.0,0.0,0.0,0.0,0.0,0.0,0.0,-0.2973,-0.332,-0.4608,-0.4061,-0.348,0.0,0.0,0.0,0.0,0.0,0.0,0.0,0.0,0.0,0.1285,-0.1155,-0.3787,-0.666,-0.8724,-1.0094,-1.0771,-1.1888,-1.2726,-1.3341,-1.4022,-1.4831,-1.5701,-1.6052,-1.5685,-1.4729,-1.3511,-1.2406,-1.1301,0.0,0.0,0.0,0.0,-0.8792,-0.8652,0.0,0.0,0.0,0.0,0.0,0.0,0.0,0.0,0.0,0.0,0.0,0.0,0.3056,0.3827,0.4489,0.4817,0.5621,0.5899,0.5455,0.5357,0.4789,0.3655,0.3112,0.2668,0.2316,0.311,0.4414,0.6235,0.75,0.8398,0.8918,0.9439,0.9922,1.0273,0.9941,0.8771,0.7043,0.6472,0.5272,0.3614,0.0,0.0,0.0,0.0,0.0,0.0,0.0,0.0,0.0,0.0,0.0,0.0,0.0,0.0,0.0,0.0,0.0,0.0,0.0,0.0,0.0,0.0,0.0,0.0,0.0,0.0,0.0,0.0,0.0,0.0,0.0,0.0,0.0,0.0,0.0,0.0,0.0,-0.3659,-0.3201,-0.5543,-0.5008,-0.4461,0.0,0.0,0.0,0.0,0.0,0.0,0.612,0.6983,0.6059,0.3151,-0.0202,-0.4192,-0.8901,-1.1298,-1.2816,-1.345,-1.4614,-1.5297,-1.5588,-1.6056,-1.6568,-1.7041,-1.7026,-1.7215,-1.7399,-1.5386,-1.4325,-1.3756,-1.1516,-1.0099,-0.935,-0.962,-0.9321,-0.8901,0.0,0.0,0.0,0.0,0.0,0.0,0.0,0.0,0.0,0.0,0.0,0.3463,0.3469,0.4247,0.4949,0.5413,0.5851,0.6386,0.7037,0.6145,0.5499,0.5274,0.4101,0.3174,0.2587,0.3995,0.5686,0.7711,0.8351,0.8918,0.9478,1.0,1.0283,1.0283,1.0302,0.9961,0.9314,0.7575,0.647,0.5609,0.2995,0.0,0.0,0.0,0.0,0.0,0.0,0.0,0.0,0.0,0.0,0.0,0.0,0.0,0.0,0.0,0.0,0.0,0.0,0.0,0.0,0.0,0.0,0.0,0.0,0.0,0.0,0.0,0.0,0.0,0.0,0.0,0.0,0.0,0.0,0.0,0.0,0.0,0.0,-0.6631,-0.7391,0.0,0.0,0.0,0.0,-0.5228,-0.2024,0.1406,0.4805,0.6869,0.7751,0.7297,0.2767,-0.3115,-1.0325,-1.2354,-1.397,-1.519,-1.5997,-1.6558,-1.6808,-1.6971,-1.7475,-1.8211,-1.8155,-1.8392,-1.8684,-1.717,-1.5955,-1.4891,-1.3695,-1.1837,-0.9865,-0.9823,-0.9095,-0.8231,0.0,0.0,0.0,0.3245,0.3089,0.2961,0.2853,0.2654,0.246,0.2285,0.2922,0.3454,0.3671,0.4774,0.5657,0.6048,0.7119,0.7625,0.736,0.6618,0.6074,0.5869,0.435,0.4005,0.5096,0.6163,0.7269,0.8373,0.8949,0.9319,0.9518,1.004,1.0283,1.0283,0.9922,0.9681,0.9457,0.8532,0.7288,0.5813,0.456,0.3167,0.0,0.0,0.0,0.0,0.0,0.0,0.0,0.0,0.0,0.0,0.0,0.0,0.0,0.0,0.0,0.0,0.0,0.0,0.0,0.0,0.0,0.0,0.0,0.0,0.0,0.0,0.0,0.0,0.0,0.0,0.0,0.0,0.0,0.0,0.0,0.0,0.0,-0.8563,-0.7865,0.0,-0.791,-0.8268,-0.8021,-0.6881,-0.4882,-0.2415,0.0552,0.2155,0.1708,-0.1065,-0.3094,-0.7084,-1.3275,-1.4442,-1.55,-1.6478,-1.7574,-1.8152,-1.826,-1.857,-1.8797,-1.8926,-1.8689,-1.8265,-1.7602,-1.5775,-1.4638,-1.39,-1.214,-1.0177,-0.8257,-0.7506,-0.7143,-0.7059,0.0,0.0,0.0,0.2961,0.281,0.2654,0.2546,0.2346,0.2219,0.2302,0.3096,0.3824,0.4182,0.5454,0.6383,0.6567,0.7884,0.8527,0.8049,0.7325,0.6759,0.6464,0.4837,0.4968,0.7173,0.761,0.8282,0.9239,0.9399,0.9597,0.9765,1.0118,1.0283,1.0283,0.9716,0.9399,0.9182,0.8694,0.767,0.6323,0.554,0.4243,0.2738,0.0,0.0,0.0,0.0,0.0,0.0,0.0,0.0,0.0,0.0,0.0,0.0,0.0,0.0,0.0,0.0,0.0,0.0,0.0,0.0,0.0,0.0,0.0,0.0,0.0,0.0,0.0,0.0,0.0,0.0,0.0,0.0,0.0,0.0,-0.9681,-0.9907,-0.9959,-0.9407,-0.9179,-0.9575,-1.0326,-1.0307,-0.9135,-0.7907,-0.5941,-0.3025,-0.1531,-0.205,-0.4812,-0.6197,-0.9734,-1.5618,-1.6441,-1.7175,-1.7815,-1.894,-1.9487,-1.9511,-1.9765,-1.9791,-1.9638,-1.9013,-1.7972,-1.6525,-1.4448,-1.2635,-1.1111,-1.0631,-0.9232,-0.7433,-0.7161,-0.6863,-0.6584,0.0,0.0,0.2676,0.2676,0.2676,0.2567,0.2237,0.2193,0.2247,0.2476,0.3613,0.4564,0.5042,0.6251,0.7021,0.7021,0.8054,0.8857,0.924,0.8253,0.7503,0.7095,0.5719,0.609,0.8574,0.8123,0.8675,1.0283,0.9765,0.9795,1.0283,1.0283,1.0283,1.0244,0.9716,0.9159,0.8635,0.8118,0.7716,0.7311,0.5914,0.5342,0.5111,0.0,0.0,0.0,0.0,0.0,0.0,0.0,0.0,0.0,0.0,0.0,0.0,0.0,0.0,0.0,0.0,0.0,0.0,0.0,0.0,0.0,0.0,0.0,0.0,0.0,0.0,0.0,0.0,0.0,0.0,0.0,0.0,0.0,-1.0345,-1.1725,-1.2264,-1.0777,-1.2153,-1.2696,-1.1414,-1.2148,-1.2568,-1.2214,-1.1152,-0.9108,-0.5833,-0.4001,-0.3066,-0.3107,-0.5959,-1.063,-1.716,-1.814,-1.8778,-1.9154,-1.9959,-2.0371,-2.0429,-2.039,-2.0367,-2.0283,-1.9109,-1.7563,-1.569,-1.3493,-1.0195,-0.684,-0.9319,-0.9002,-0.7349,-0.8686,-0.8171,-0.6729,0.3068,0.2697,0.2346,0.2346,0.2172,0.2022,0.1935,0.1913,0.1997,0.2252,0.3522,0.4543,0.4915,0.6188,0.7189,0.7621,0.8316,0.8649,0.8515,0.7623,0.6905,0.6401,0.7543,0.8523,0.9221,0.9507,0.9849,1.0283,1.0157,1.0157,1.0283,1.0283,1.0079,0.9677,0.9159,0.8643,0.8118,0.7953,0.7859,0.7661,0.676,0.6296,0.6037,0.0,0.0,0.0,0.0,0.0,0.0,0.0,0.0,0.0,0.0,0.0,0.0,0.0,0.0,0.0,0.0,0.0,0.0,0.0,0.0,0.0,0.0,0.0,0.0,0.0,0.0,0.0,0.0,0.0,0.0,0.0,-1.1249,-1.222,-1.204,-1.2629,-1.3,-1.2713,-1.3001,-1.3104,-1.2872,-1.3133,-1.3441,-1.3826,-1.3542,-1.2826,-1.1568,-1.1022,-1.1153,-1.2038,-1.2023,-1.3746,-1.7376,-1.6969,-1.707,-1.7752,-1.8565,-1.8882,-1.8788,-1.9643,-1.9799,-1.9356,-1.8817,-1.726,-1.4956,-1.2933,-0.9741,-0.6138,-0.6007,-0.4348,-0.2033,-0.1998,-0.1957,-0.2043,0.2697,0.2346,0.204,0.204,0.1913,0.1803,0.1803,0.1803,0.2032,0.2656,0.3723,0.466,0.5376,0.6362,0.7238,0.7829,0.8534,0.8738,0.8245,0.749,0.7135,0.7319,0.8486,0.9336,0.9834,1.0118,1.0283,1.0283,1.0283,1.0283,1.0283,1.0283,1.0,0.9478,0.8958,0.8521,0.8234,0.7995,0.816,0.8496,0.769,0.7227,0.6876,0.6153,0.515,0.4155,0.4388,0.4252,0.4053,0.4673,0.0,0.0,0.0,0.0,0.0,0.0,0.0,0.0,0.0,0.0,0.0,0.0,0.0,0.0,0.0,0.0,0.0,0.0,0.0,0.0,0.0,0.0,0.0,0.0,-1.1858,-1.2947,-1.3501,-1.3845,-1.3968,-1.3777,-1.3755,-1.3708,-1.3672,-1.3682,-1.3754,-1.394,-1.4278,-1.4296,-1.3881,-1.3998,-1.4488,-1.535,-1.4877,-1.5358,-1.6976,-1.6547,-1.6669,-1.733,-1.7802,-1.8057,-1.8161,-1.9011,-1.9221,-1.8851,-1.8498,-1.7069,-1.4848,-1.2955,-1.0113,-0.6848,0.0,0.0,0.0,0.0,-0.0831,-0.0785,0.2193,0.1975,0.1803,0.1803,0.1803,0.1803,0.1803,0.1803,0.2191,0.327,0.3973,0.4842,0.5977,0.6683,0.7356,0.7953,0.8837,0.9093,0.8406,0.7808,0.7936,0.8958,0.8863,0.9276,1.0264,1.0283,1.0283,1.0283,1.0283,1.0283,1.0283,1.0283,1.0,0.9478,0.8958,0.8716,0.8683,0.8193,0.8553,0.9415,0.8667,0.8132,0.7695,0.7021,0.6252,0.5508,0.4942,0.4782,0.4688,0.3919,0.0,0.0,0.0,0.0,0.0,0.0,0.0,0.0,0.0,0.0,0.0,0.0,0.0,0.0,0.0,0.0,0.0,0.0,0.0,0.0,0.0,0.0,0.0,0.0,-1.2138,-1.3237,-1.4603,-1.5069,-1.4989,-1.4213,-1.434,-1.431,-1.3868,-1.3835,-1.3648,-1.3232,-1.3967,-1.4278,-1.3934,-1.4278,0.0,0.0,0.0,-1.5727,-1.6107,-1.6402,-1.6756,-1.7153,-1.7221,-1.7496,-1.7918,-1.8331,-1.8551,-1.8558,-1.8168,-1.6976,-1.5231,-1.356,-1.1101,-0.8304,-0.6997,-0.5192,-0.3271,-0.3107,-0.2287,-0.1215,0.2154,0.1975,0.1803,0.1803,0.1803,0.1803,0.1803,0.1803,0.2047,0.2762,0.3746,0.4662,0.5376,0.6803,0.7953,0.848,0.9416,0.9776,0.9352,0.8919,0.8753,0.8983,0.9634,1.0069,1.0312,1.0283,1.0283,1.0283,1.0283,1.0283,1.0283,1.0283,1.0,0.9478,0.8958,0.8716,0.8675,0.8602,0.8918,0.9473,0.9375,0.9085,0.8592,0.7457,0.6916,0.669,0.5909,0.5863,0.612,0.5945,0.5474,0.499,0.5049,0.4131,0.0,0.0,0.0,0.0,0.0,0.0,0.0,0.0,0.0,0.0,0.0,0.0,0.0,0.0,0.0,0.0,0.0,0.0,0.0,-1.0522,-1.2192,-1.3568,-1.4651,-1.5302,-1.5373,-1.4539,-1.445,-1.4181,-1.3425,-1.3323,-1.3301,-1.3198,-1.3702,-1.4,-1.3901,-1.4278,-1.4533,-1.4596,-1.4683,-1.4766,-1.484,-1.4897,-1.4988,-1.508,-1.5551,0.0,-1.615,-1.7014,-1.7608,-1.7897,-1.7906,-1.708,-1.5631,-1.4732,-1.2289,-0.8759,-0.5401,-0.3288,-0.2017,-0.1004,0.0088,0.1147,0.1964,0.1901,0.1791,0.1791,0.1806,0.1803,0.1803,0.1803,0.2092,0.2893,0.3556,0.4334,0.5301,0.6104,0.687,0.7534,0.8251,0.8893,0.9354,0.9147,0.92,0.9639,1.0059,1.0283,1.0283,1.0283,1.0283,1.0283,1.0283,1.0283,1.0283,1.0283,1.0,0.9478,0.9239,0.9119,0.9119,0.9119,0.9239,0.9521,0.9572,0.909,0.8234,0.7671,0.7177,0.6721,0.6121,0.6037,0.6183,0.598,0.5654,0.5369,0.548,0.4733,0.3771,0.0,0.0,0.0,0.0,0.0,0.0,0.0,0.0,0.0,0.0,0.0,0.0,0.0,0.0,0.2776,0.0433,0.0,-0.6549,-0.9791,-1.2129,-1.4038,-1.5357,-1.5976,-1.5938,-1.4937,-1.4783,-1.447,-1.3648,-1.3547,-1.3459,-1.3232,-1.3425,-1.3547,-1.3547,-1.3522,-1.3583,-1.3789,-1.3369,-1.3369,-1.3789,-1.3583,-1.3742,-1.4214,-1.4718,-1.508,-1.5389,-1.6297,-1.6897,-1.7247,-1.749,-1.7106,-1.6182,-1.4846,-1.2768,-1.019,-0.7738,-0.5303,-0.2933,-0.1446,0.0044,0.1375,0.1639,0.1616,0.1661,0.1775,0.1791,0.1806,0.1803,0.1803,0.2097,0.2958,0.3313,0.3925,0.5084,0.5365,0.5786,0.6618,0.7225,0.802,0.9114,0.9243,0.9561,1.0254,1.0283,1.0283,1.0283,1.0283,1.0283,1.0283,1.0283,1.0283,1.0283,1.0283,1.0079,0.9637,0.9558,0.9518,0.9518,0.9518,0.9439,0.9363,0.9422,0.8685,0.7596,0.7533,0.7104,0.6457,0.6037,0.5882,0.5813,0.5428,0.5515,0.5696,0.5397,0.5009,0.4678,0.4646,0.4472,0.0,0.0,0.0,0.0,0.0,0.0,0.0,0.0,-0.1029,-0.2134,0.1821,0.4625,0.5252,0.1608,-0.1988,-0.5623,-0.9443,-1.2252,-1.4521,-1.6088,-1.6581,-1.6432,-1.5448,-1.518,-1.4769,-1.4,-1.3735,-1.3467,-1.3082,-1.2978,-1.2943,-1.2943,-1.2579,-1.2508,-1.2832,-1.2175,-1.2139,-1.2832,-1.2614,-1.2871,-1.3622,-1.4149,-1.4596,-1.5013,-1.5739,-1.6313,-1.6712,-1.7002,-1.691,-1.6427,-1.4564,-1.3031,-1.181,-1.0737,-0.8302,-0.5107,-0.3184,-0.1228,0.0529,0.1116,0.1005,0.1163,0.1705,0.1798,0.1794,0.1806,0.1803,0.1919,0.2273,0.3018,0.3675,0.4112,0.5254,0.6379,0.7319,0.8057,0.8658,0.9152,0.9791,1.0186,1.0312,1.0283,1.0283,1.0283,1.0283,1.0283,1.0283,1.0283,1.0283,1.0283,1.0283,1.0283,1.0205,0.9716,0.9518,0.9518,0.9518,0.9239,0.8804,0.8855,0.8357,0.7525,0.6768,0.6482,0.6457,0.6037,0.5867,0.5752,0.5421,0.5295,0.5275,0.5302,0.5505,0.5816,0.6361,0.6109,0.5827,0.6528,0.5807,0.4747,0.431,0.3046,0.1637,0.0,-0.0367,-0.0192,0.2558,0.1927,0.1061,0.1654,-0.2565,-0.7167,-1.0445,-1.3053,-1.5053,-1.615,-1.6581,-1.6633,-1.6203,-1.5477,-1.4713,-1.3954,-1.316,-1.2638,-1.2579,-1.2174,-1.1957,-1.1957,-1.192,-1.192,-1.1945,-1.1847,-1.1847,-1.1945,-1.2318,-1.2532,-1.2673,-1.3555,-1.4181,-1.4596,-1.5029,-1.5652,-1.6355,-1.6394,-1.6157,-1.5634,-1.4314,-1.3465,-1.2795,-1.137,-0.9964,-0.8446,-0.5781,-0.3377,-0.1169,0.1027,0.0624,0.0446,0.0713,0.1343,0.1798,0.1791,0.1809,0.1928,0.2281,0.2732,0.3244,0.3759,0.4464,0.4888,0.4948,0.6349,0.7422,0.7843,0.9126,1.002,1.0273,1.0283,1.0283,1.0283,1.0283,1.0283,1.0283,1.0283,1.0283,1.0283,1.0283,1.0283,1.0283,1.0079,0.9961,0.9961,0.9637,0.9199,0.8707,0.8748,0.8028,0.701,0.6779,0.6416,0.5949,0.5349,0.5082,0.0,0.4644,0.4622,0.4758,0.4872,0.5174,0.5693,0.6785,0.685,0.668,0.704,0.5927,0.4655,0.4691,0.264,0.0654,0.0769,-0.0799,-0.1614,0.0737,0.0537,0.0025,0.0269,-0.2933,-0.6681,-0.9825,-1.3011,-1.5375,-1.6192,-1.6581,-1.6686,-1.634,-1.5272,-1.4394,-1.39,-1.3234,-1.2637,-1.2138,-1.192,-1.1811,-1.1811,-1.1505,-1.1319,-1.1319,-1.1067,-1.1067,-1.1319,-1.2166,-1.27,-1.2997,-1.4546,-1.538,-1.5585,-1.6293,-1.6698,-1.6859,-1.6471,-1.6188,-1.592,-1.4727,-1.392,-1.3398,-1.2283,-1.1217,-0.9993,-0.7543,-0.4998,-0.2512,0.123,0.0535,0.0,0.0,0.0724,0.1386,0.1669,0.1764,0.1919,0.2246,0.2527,0.295,0.3577,0.3714,0.3609,0.3247,0.4918,0.6201,0.6696,0.8322,0.9491,0.9912,1.0039,1.0107,1.0107,1.0107,1.0107,1.0107,0.999,0.9932,0.9932,0.9932,0.9932,0.9932,0.9932,0.9819,0.9545,0.9307,0.8721,0.8024,0.8174,0.7462,0.6357,0.6572,0.613,0.5379,0.4751,0.4405,0.4193,0.3911,0.3882,0.4037,0.4352,0.4941,0.577,0.7289,0.7698,0.7501,0.679,0.5491,0.4343,0.4319,0.2144,0.0096,0.0491,-0.1405,-0.2764,-0.1015,-0.0747,-0.0961,-0.1551,-0.3941,-0.6751,-0.9555,-1.2912,-1.5411,-1.6013,-1.6512,-1.6575,-1.5988,-1.4814,-1.3792,-1.3053,-1.2563,-1.2034,-1.1409,-1.1234,-1.1169,-1.1169,-1.0943,-1.0802,-1.0802,-1.0467,-1.0467,-1.0791,-1.1987,-1.2785,-1.3129,-1.5134,-1.6154,-1.6332,-1.7257,-1.7588,-1.7378,-1.6703,-1.634,-1.6138,-1.4994,-1.4219,-1.3769,-1.2975,-1.209,-1.0998,-0.9068,-0.6499,-0.367,0.1775,0.0825,0.0,0.0,0.0021,0.0374,0.1356,0.1681,0.1855,0.1995,0.2418,0.2918,0.3447,0.3274,0.3226,0.3473,0.4553,0.5528,0.6275,0.7648,0.8611,0.9009,0.9398,0.9612,0.9612,0.9612,0.9612,0.9612,0.9248,0.9043,0.9043,0.9043,0.9043,0.9043,0.9043,0.8551,0.7707,0.8237,0.7583,0.6327,0.6862,0.652,0.5738,0.5731,0.5371,0.4805,0.4522,0.4164,0.3764,0.3427,0.3159,0.3076,0.3878,0.5063,0.652,0.8327,0.8939,0.849,0.6019,0.479,0.3856,0.2441,0.1036,-0.0224,-0.1044,-0.196,-0.2466,-0.1946,-0.2203,-0.2801,-0.3659,-0.5961,-0.8308,-1.0185,-1.2951,-1.5067,-1.5562,-1.6305,-1.6327,-1.5096,-1.4108,-1.2843,-1.1062,-1.051,-1.0292,-1.0253,-0.9815,-0.9558,-0.9558,-1.004,-1.0322,-1.0322,-1.0322,-1.0322,-1.0322,-1.1832,-1.2619,-1.263,-1.4588,-1.5805,-1.6332,-1.7257,-1.7715,-1.7655,-1.6965,-1.6481,-1.603,-1.4928,-1.4246,-1.3868,-1.3357,-1.2615,-1.1653,-1.0472,-0.792,-0.4726,0.1798,0.1252,0.0758,0.0626,0.0416,0.0507,0.125,0.173,0.2009,0.2,0.2564,0.0,0.0,0.0,0.0,0.0,0.3859,0.479,0.5529,0.6648,0.7452,0.7858,0.8461,0.8824,0.8824,0.9069,0.9219,0.9219,0.9072,0.9004,0.9004,0.9004,0.8867,0.8618,0.8618,0.8271,0.7709,0.755,0.7185,0.6724,0.6549,0.6311,0.5989,0.5682,0.5233,0.4691,0.0,0.3526,0.3236,0.265,0.2812,0.3336,0.3604,0.4916,0.6564,0.7708,0.7948,0.7453,0.5713,0.4076,0.2512,0.1052,-0.0465,-0.1916,-0.3196,-0.4291,-0.5053,-0.4978,-0.5082,-0.5342,-0.5913,-0.7463,-0.9147,-1.0638,-1.2949,-1.4718,-1.5197,-1.5506,-1.5389,-1.4673,-1.3185,-1.1872,-1.0899,-1.0118,-0.9552,-0.9213,-0.939,-0.9518,-0.9518,-1.0,-1.0283,-1.0283,-1.0283,-1.0283,-1.0283,-1.2186,-1.3116,-1.3168,-1.5918,-1.7688,-1.8548,-1.8431,-1.8373,-1.8343,-1.7637,-1.7081,-1.6546,-1.5576,-1.4863,-1.434,-1.3531,-1.2615,-1.1653,-1.0527,-0.8469,-0.5925,0.1798,0.1594,0.1366,0.1252,0.1038,0.0,0.0,0.0,0.0,0.0,0.0,0.0,0.0,0.0,0.0,0.0,0.0,0.4206,0.4845,0.573,0.6381,0.6695,0.7315,0.7657,0.7657,0.7922,0.8156,0.8383,0.8092,0.8092,0.8331,0.8331,0.8201,0.793,0.793,0.7699,0.7299,0.6639,0.6327,0.6194,0.5579,0.5371,0.5364,0.4963,0.4557,0.0,0.3328,0.2968,0.2746,0.2059,0.2543,0.3479,0.3776,0.5479,0.7465,0.7741,0.761,0.7031,0.5423,0.3656,0.1853,0.0162,-0.1481,-0.3086,-0.4689,-0.5845,-0.6642,-0.689,-0.6545,-0.6248,-0.6507,-0.7525,-0.883,-1.0444,-1.2711,-1.4528,-1.5358,-1.5466,-1.5057,-1.4041,-1.2363,-1.1062,-1.0386,-0.9446,-0.8731,-0.8439,-0.8918,-0.9199,-0.9199,-0.9922,-1.0283,-1.0283,-1.0283,-1.0283,-1.0283,-1.2175,-1.3478,-1.4257,-1.6851,-1.8458,-1.9118,-1.9099,-1.9061,-1.9016,-1.8358,-1.7675,-1.698,-1.6138,-1.5383,-1.4702,-1.3841,-1.2926,-1.1923,-1.0578,-0.8748,-0.6527,0.1816,0.182,0.182,0.0,0.0,0.0,0.0,0.0,0.0,0.0,0.0,0.0,0.0,0.0,0.0,0.0,0.0,0.0,0.4191,0.489,0.5332,0.5474,0.5943,0.6212,0.623,0.6257,0.659,0.7209,0.6468,0.6412,0.7025,0.7025,0.7025,0.6996,0.6996,0.6759,0.634,0.5507,0.4996,0.4745,0.4032,0.3844,0.3923,0.3614,0.3312,0.3033,0.2709,0.2511,0.2318,0.1782,0.2452,0.368,0.4578,0.6878,0.9133,0.8532,0.8071,0.7327,0.5293,0.3613,0.1946,-0.0129,-0.1963,-0.3756,-0.5504,-0.649,-0.7197,-0.7616,-0.6606,-0.5621,-0.5601,-0.6374,-0.767,-0.9715,-1.2298,-1.4506,-1.587,-1.6013,-1.5231,-1.3171,-1.1671,-1.0429,-0.95,-0.8521,-0.7919,-0.7919,-0.8439,-0.8756,-0.8756,-0.9716,-1.0283,-1.0283,-1.0283,-1.0283,-1.0283,-1.1854,-1.3658,-1.5774,-1.7343,-1.8106,-1.8185,-1.9207,-1.969,-1.9645,-1.8982,-1.8193,-1.7269,-1.66,-1.5771,-1.489,-1.4337,-1.3493,-1.2396,-1.0738,-0.8757,-0.6665,0.0,0.0,0.0,0.0,0.0,0.0,0.0,0.0,0.0,0.0,0.0,0.0,0.0,0.0,0.0,0.0,0.0,0.0,0.316,0.35,0.3786,0.4016,0.4681,0.5134,0.5338,0.5625,0.5848,0.6039,0.6038,0.6012,0.5996,0.6179,0.6022,0.5527,0.5324,0.5219,0.5114,0.4607,0.4027,0.3467,0.3382,0.3405,0.3448,0.3272,0.3062,0.2849,0.267,0.2543,0.2526,0.2868,0.456,0.6873,0.9031,0.9823,0.9998,1.0221,0.9557,0.8411,0.693,0.4759,0.2496,0.0701,-0.2149,-0.4778,-0.5623,-0.6885,-0.7649,-0.6787,-0.6313,-0.5945,-0.5659,-0.7121,-0.8893,-1.0495,-1.2746,-1.4516,-1.5186,-1.4749,-1.3782,-1.2154,-1.1031,-0.9828,-0.8431,-0.8439,-0.8316,-0.7912,-0.8756,-0.9279,-0.9279,-0.9922,-1.0283,-1.0283,-1.0283,-1.0283,-1.0283,-1.2229,-1.4241,-1.6297,-1.7542,-1.8302,-1.8727,-1.9406,-1.969,-1.9675,-1.9119,-1.8498,-1.783,-1.6842,-1.6075,-1.5429,-1.4916,-1.3857,-1.2391,-1.0725,-0.8757,-0.6665,0.0,0.0,0.0,0.0,0.0,0.0,0.0,0.0,0.0,0.0,0.0,0.0,0.0,0.0,0.0,0.0,0.0,0.0,0.0,0.2921,0.3072,0.3095,0.3509,0.3783,0.3944,0.4171,0.4514,0.4936,0.4802,0.4862,0.5151,0.5174,0.4928,0.4509,0.4361,0.4421,0.4598,0.3903,0.3315,0.0,0.0,0.2581,0.2762,0.2584,0.2543,0.2602,0.2689,0.3299,0.4292,0.5964,0.7482,0.9031,1.1144,1.1521,1.1236,1.1388,1.0947,1.0115,0.8718,0.69,0.4775,0.2175,-0.1205,-0.4237,-0.5619,-0.711,-0.794,-0.6992,-0.6237,-0.5539,-0.4961,-0.6895,-0.9012,-1.0354,-1.2796,-1.468,-1.511,-1.4246,-1.2992,-1.1424,-1.0203,-0.9266,-0.8675,-0.8675,-0.8756,-0.8958,-0.9279,-0.9518,-0.9518,-1.0,-1.0283,-1.0283,-1.0283,-1.039,-1.0611,-1.2458,-1.4092,-1.5464,-1.7235,-1.8263,-1.8574,-1.9369,-1.969,-1.969,-1.9132,-1.8612,-1.8025,-1.746,-1.6904,-1.6353,-1.5827,-1.4531,-1.2721,-1.0802,-0.8406,-0.601,0.0,0.0,0.0,0.0,0.0,0.0,0.0,0.0,0.0,0.1997,0.1979,0.1979,0.2048,0.2054,0.0,0.0,0.0,0.0,0.0,0.0,0.278,0.2585,0.2554,0.2558,0.2604,0.2604,0.3031,0.3897,0.3334,0.3483,0.4304,0.4027,0.3822,0.3668,0.3648,0.3872,0.422,0.3156,0.2531,0.2192,0.1591,0.1625,0.2005,0.0,0.2025,0.2443,0.3003,0.442,0.6482,0.9388,1.0314,1.0502,1.2079,1.2678,1.2752,1.2367,1.2214,1.1865,1.0431,0.9203,0.7521,0.4184,0.0653,-0.2652,-0.5049,-0.691,-0.797,-0.7495,-0.6135,-0.4798,-0.4029,-0.6136,-0.8353,-0.9527,-1.2147,-1.4198,-1.4707,-1.3632,-1.2196,-1.0678,-0.94,-0.8778,-0.9231,-0.8999,-0.9199,-1.0118,-0.989,-0.9652,-0.9597,-1.004,-1.0283,-1.0283,-1.0283,-1.0544,-1.1094,-1.2563,-1.361,-1.4229,-1.6797,-1.8023,-1.8145,-1.9207,-1.969,-1.969,-1.9043,-1.8531,-1.806,-1.7903,-1.7584,-1.7075,-1.6573,-1.5078,-1.3009,-1.0781,-0.7959,-0.5127,0.0,0.0,0.0,0.0,0.0,0.0,0.0,0.0,0.0,0.0,0.1877,0.1832,0.0,0.0,0.0,0.0,0.0,0.0,0.0,0.0,0.0,0.2426,0.2332,0.237,0.2598,0.2604,0.2683,0.2866,0.2856,0.2835,0.2784,0.2832,0.2722,0.2483,0.2257,0.2341,0.2553,0.1653,0.0954,0.0458,0.0547,0.1002,0.1612,0.1682,0.0,0.0,0.4305,0.5386,0.659,0.9318,1.079,1.1833,1.3812,1.4465,1.4367,1.3829,1.3143,1.2393,1.1527,0.9857,0.8114,0.7018,0.335,-0.0509,-0.2432,-0.5386,-0.7471,-0.6614,-0.5455,-0.4469,-0.3996,-0.5536,-0.7179,-0.811,-0.9555,-1.0813,-1.1497,-1.0608,-0.9666,-0.9037,-0.8787,-0.8545,-0.8193,-0.8878,-0.9439,-0.9637,-1.0274,-1.0524,-1.0176,-1.0244,-1.0283,-1.0283,-1.0283,-1.0736,-1.1664,-1.2384,-1.3431,-1.4787,-1.6563,-1.7647,-1.8145,-1.9207,-1.969,-1.9639,-1.865,-1.8124,-1.7859,-1.6977,-1.6502,-1.6285,-1.5843,-1.4399,-1.2313,-1.0171,-0.7595,-0.5067,0.0,0.0,0.0,0.0,0.0,0.0,0.0,0.2228,0.2246,0.2713,0.2554,0.2348,0.2312,0.2301,0.237,0.0,0.0,0.0,0.0,0.0,0.0,0.2302,0.2237,0.2197,0.2184,0.2184,0.2217,0.2281,0.0,0.2109,0.2085,0.2048,0.1888,0.1621,0.1527,0.1509,0.1486,0.0972,0.0639,0.0483,0.0722,0.1195,0.1778,0.1988,0.0,0.0,0.5651,0.6515,0.7299,0.907,1.0313,1.1516,1.3819,1.4751,1.4911,1.4451,1.3998,1.3473,1.2777,1.1512,1.0077,0.8797,0.5755,0.2351,-0.0294,-0.2806,-0.476,-0.5352,-0.4897,-0.4227,-0.3688,-0.5348,-0.6779,-0.6661,-0.779,-0.8886,-0.9603,-0.8701,-0.8038,-0.822,-0.8005,-0.7938,-0.8275,-0.8797,-0.9319,-0.9883,-1.0553,-1.0723,-1.0303,-1.0283,-1.0283,-1.0283,-1.0283,-1.0659,-1.1394,-1.2179,-1.3221,-1.4528,-1.6405,-1.7588,-1.8145,-1.9207,-1.969,-1.9639,-1.8855,-1.848,-1.8358,-1.7869,-1.7612,-1.7506,-1.6964,-1.5181,-1.2619,-1.0018,-0.7068,-0.4191,0.0,0.0,0.0,0.0,0.0,0.0,0.0,0.2593,0.2726,0.3316,0.3212,0.2932,0.2445,0.2363,0.238,0.0,0.0,0.0,0.0,0.0,0.0,0.0,0.0,0.0,0.1799,0.0,0.0,0.1895,0.157,0.0,0.0,0.0,0.0,0.0,0.1112,0.105,0.0888,0.0781,0.0856,0.0,0.0,0.1704,0.2333,0.0,0.0,0.0,0.0,0.7268,0.7602,0.8678,0.9421,1.0279,1.245,1.3917,1.4775,1.4592,1.4413,1.413,1.354,1.2751,1.1775,1.0356,0.8375,0.574,0.1837,-0.0156,-0.1906,-0.4447,-0.4613,-0.4115,-0.3535,-0.4906,-0.5884,-0.511,-0.5786,-0.681,-0.7816,-0.6996,-0.6679,-0.7758,-0.7489,-0.7648,-0.8756,-0.8878,-0.9234,-1.0164,-1.0596,-1.0775,-1.0576,-1.0596,-1.0518,-1.042,-1.042,-1.0673,-1.1169,-1.2003,-1.297,-1.4138,-1.6029,-1.7281,-1.7951,-1.9022,-1.9603,-1.969,-1.9132,-1.8896,-1.8854,-1.8728,-1.8679,-1.8579,-1.7798,-1.5728,-1.2853,-1.0018,-0.6664,-0.34,0.0,0.0,0.0,0.0,0.0,0.0,0.0,0.2672,0.2798,0.3636,0.3385,0.3093,0.3025,0.2906,0.2807,0.0,0.0,0.0,0.0,0.0,0.0,0.0,0.0,0.0,0.0,0.0,0.0,0.1541,0.1269,0.0,0.0,0.0,0.0,0.0,0.0,0.0921,0.091,0.1072,0.0,0.0,0.0,0.0,0.0,0.0,0.0,0.0,0.0,0.7044,0.648,0.7973,0.8241,0.8147,0.9296,1.1613,1.3969,1.4247,1.3943,1.3418,1.3038,1.2417,1.1902,1.2214,1.1757,0.9778,0.4278,0.1883,-0.0376,-0.4644,-0.4874,-0.4216,-0.3897,-0.3578,-0.3356,-0.333,-0.2772,-0.3115,-0.5289,-0.5032,-0.5448,-0.7631,-0.7836,-0.8234,-0.9319,-0.9439,-0.9582,-0.9891,-1.038,-1.0897,-1.1445,-1.1489,-1.1302,-1.0869,-1.085,-1.1134,-1.17,-1.1819,-1.2609,-1.4124,-1.5275,-1.6366,-1.7418,-1.8469,-1.9244,-1.969,-1.9132,-1.8834,-1.8673,-1.8187,-1.7923,-1.7703,-1.6666,-1.4732,-1.2212,-0.9848,-0.6679,-0.3413,0.0,0.0,0.0,0.0,0.0,0.0,0.2877,0.2903,0.3247,0.4278,0.414,0.3847,0.3571,0.324,0.285,0.2464,0.0,0.0,0.0,0.0,0.0,0.0,0.0,0.0,0.0,0.0,0.146,0.1377,0.1354,0.0,0.0,0.0,0.0,0.0,0.0,0.1384,0.1394,0.168,0.0,0.0,0.0,0.0,0.0,0.0,0.0,0.0,0.0,0.0,0.7155,0.6956,0.6801,0.6734,0.7097,0.8172,0.9732,1.2006,1.2621,1.265,1.3038,1.2815,1.2546,1.2881,1.2183,1.0233,0.5574,0.3265,0.0892,-0.3442,-0.4326,-0.4114,-0.3522,-0.3066,-0.2659,-0.2363,-0.1861,-0.209,-0.3734,-0.3896,-0.452,-0.6374,-0.7028,-0.7656,-0.8472,-0.9119,-0.9903,-1.0856,-1.1299,-1.1796,-1.2344,-1.189,-1.14,-1.0918,-1.0908,-1.1175,-1.1774,-1.1811,-1.2728,-1.4588,-1.5343,-1.6437,-1.7824,-1.8574,-1.9207,-1.969,-1.9479,-1.9495,-1.9623,-1.9185,-1.8882,-1.86,-1.7225,-1.4954,-1.2095,-0.9431,-0.6337,-0.3353,0.0,0.0,0.0,0.0,0.0,0.2141,0.2823,0.2646,0.2825,0.3914,0.4138,0.4199,0.4047,0.3345,0.2768,0.239,0.2476,0.0,0.0,0.0,0.0,0.0,0.0,0.0,0.0,0.0,0.1457,0.1359,0.1408,0.1276,0.0,0.0,0.0901,0.0924,0.0,0.0,0.0,0.0,0.0,0.0,0.0,0.0,0.0,0.0,0.0,0.0,0.0,0.0,0.0,0.0,0.0,0.5184,0.4877,0.4887,0.5764,0.9493,1.0875,1.1341,1.206,1.2274,1.2359,1.2572,1.1506,0.9436,0.5879,0.3575,0.112,-0.2703,-0.3806,-0.3847,-0.3081,-0.263,-0.2236,-0.1873,-0.1515,-0.1759,-0.311,-0.3428,-0.4066,-0.5592,-0.6421,-0.7126,-0.7795,-0.8904,-1.014,-1.1514,-1.1897,-1.2301,-1.2861,-1.2214,-1.1553,-1.1113,-1.1103,-1.1267,-1.1553,-1.1542,-1.2447,-1.4187,-1.4738,-1.5821,-1.7427,-1.7953,-1.8682,-1.9442,-1.9442,-1.9611,-1.9813,-1.9728,-1.939,-1.8772,-1.7567,-1.5189,-1.2058,-0.9346,-0.6297,-0.3353,0.0,0.0,0.0,0.0,0.0,0.0,0.2594,0.1695,0.1239,0.2114,0.3051,0.3843,0.4433,0.3294,0.2554,0.2683,0.2398,0.0,0.0,0.0,0.0,0.0,0.0,0.0,0.0,0.0,0.1492,0.1492,0.1367,0.0995,0.0418,0.0744,0.1153,0.1631,0.0,0.0,0.0,0.0,0.0,0.0,0.0,0.0,0.0,0.0,0.0,0.0,0.0,0.0,0.0,0.0,0.0,0.0,0.0,0.2093,0.2856,0.7017,0.8753,0.9395,0.9663,1.0328,1.0991,1.125,0.9857,0.7733,0.511,0.2589,0.0,-0.2897,-0.3494,-0.3319,-0.2709,-0.2163,-0.1803,-0.1803,-0.151,-0.1879,-0.3554,-0.361,-0.4083,-0.5705,-0.626,-0.6844,-0.7711,-0.8931,-1.023,-1.1509,-1.1714,-1.2129,-1.2871,-1.2461,-1.2021,-1.1606,-1.1596,-1.1384,-1.1019,-1.1008,-1.1505,-1.252,-1.308,-1.415,-1.5734,-1.6267,-1.7386,-1.8893,-1.8893,-1.8856,-1.8762,-1.942,-1.8912,-1.7665,-1.7257,-1.5189,-1.2106,-0.9848,-0.6646,-0.3353,0.0,0.0,0.0,0.0,0.0,0.0,0.0,0.1049,0.0378,0.0669,0.1312,0.2078,0.296,0.2726,0.2631,0.2946,0.2322,0.0,0.0,0.0,0.0,0.0,0.0,0.0,0.0,0.1516,0.087,-0.0133,0.1056,0.1334,0.083,0.5265,0.5688,0.2835,0.4599,0.4835,0.0,0.0,0.0,0.0,0.0,0.0,0.0,0.0,0.0,0.0,0.0,0.0,0.0,0.0,0.0,0.0,0.0,0.0,0.0,0.2206,0.4544,0.6843,0.8057,0.8761,0.9224,0.962,0.8293,0.6371,0.435,0.2065,-0.0122,-0.1965,-0.2629,-0.2714,-0.2163,-0.1731,-0.172,-0.2553,-0.2399,-0.2521,-0.3455,-0.4052,-0.4587,-0.5074,-0.6506,-0.7858,-0.8861,-0.9869,-1.0785,-1.1562,-1.2556,-1.3294,-1.3505,-1.3073,-1.2442,-1.1616,-1.127,-1.1075,-1.0981,-1.1019,-1.1519,-1.2582,-1.3427,-1.4516,-1.5802,-1.6678,-1.7517,-1.838,-1.8727,-1.906,-1.9331,-1.957,-1.9375,-1.8677,-1.6866,-1.4603,-1.2043,-0.9163,-0.6416,-0.397,0.0,0.0,0.0,0.0,0.0,0.0,0.0,0.0784,0.0151,0.0623,0.0807,0.1292,0.2304,0.2295,0.2434,0.2903,0.2096,0.0,0.0,0.0,0.0,0.0,0.0,0.0,0.1572,0.13,0.0704,-0.0217,0.0685,0.1931,0.3535,0.6398,0.6528,0.4415,0.5678,0.5675,0.0,0.0,0.0,0.0,0.0,0.0,0.3314,0.0,0.0,0.0,0.0,0.0,0.0,0.0,0.0,0.0,0.0,0.0,0.0,0.0,0.1221,0.341,0.5455,0.6601,0.728,0.7565,0.6379,0.4799,0.3473,0.16,-0.0206,-0.1372,-0.1883,-0.1995,-0.1664,-0.1633,-0.1893,-0.2641,-0.278,-0.302,-0.3667,-0.4282,-0.4776,-0.5106,-0.6585,-0.7929,-0.8924,-1.011,-1.1104,-1.19,-1.3118,-1.3788,-1.385,-1.3199,-1.2484,-1.1659,-1.117,-1.0864,-1.0725,-1.0725,-1.1166,-1.1993,-1.3018,-1.4113,-1.5184,-1.6235,-1.7101,-1.7827,-1.838,-1.8734,0.0,-1.9483,-1.909,-1.7992,-1.634,-1.4111,-1.1507,-0.8923,-0.6632,-0.4578,0.0,0.0,0.0,0.0,0.0,0.0,0.0,0.0755,0.0469,0.1642,0.129,0.1288,0.2224,0.2025,0.2056,0.2621,0.0,0.0,0.0,0.0,0.0,0.0,0.0,0.0,0.1296,0.1225,0.1135,0.1009,0.0338,0.2424,0.7017,0.4694,0.4437,0.5937,0.5866,0.5517,0.0,0.0,0.0,0.0,0.1872,0.1585,0.0,0.0,0.0,0.0,0.0,0.0,0.0,0.0,0.0,0.0,0.0,0.0,0.0,0.0,0.0,0.0,0.0,0.3917,0.5093,0.5149,0.4207,0.3118,0.2571,0.119,0.0,-0.1045,-0.1223,-0.1257,-0.1316,-0.1781,-0.2202,-0.2271,-0.2755,-0.3389,-0.4141,-0.4417,-0.4856,-0.5731,-0.6586,-0.7441,-0.8243,-0.9833,-1.1334,-1.2403,-1.332,-1.3857,-1.3872,-1.3054,-1.233,-1.1774,-1.1175,-1.0674,-1.0283,-1.0283,-1.0544,-1.1019,-1.2075,-1.3131,-1.4062,-1.5154,-1.6248,-1.7287,-1.7758,-1.7974,-1.8057,-1.9138,-1.8239,-1.6211,-1.5755,-1.3656,-1.0671,-0.9063,-0.7148,-0.5219,0.0,0.0,0.0,0.0,0.0,0.0,0.0,0.0,0.0,0.0,0.154,0.1396,0.1471,0.1854,0.2143,0.0,0.0,0.0,0.0,0.0,0.0,0.0,0.0,0.0,0.2337,0.3351,0.3333,0.2204,0.0724,0.0308,0.0938,0.3413,0.4514,0.4467,0.5608,0.5352,0.0,0.0,0.0,0.0,0.0627,0.0,0.0,0.0,0.0,0.0,0.0965,0.1057,0.0,0.0,0.0,0.0,0.0,0.0,0.0,0.0,-0.1252,-0.1031,-0.0184,0.0,0.2117,0.2774,0.2377,0.1823,0.0,0.1114,0.02,-0.0221,-0.0465,-0.0791,-0.1422,-0.174,-0.2149,-0.2918,-0.3251,-0.3704,-0.4551,-0.53,-0.6109,-0.6996,-0.781,-0.8586,-0.9303,-1.062,-1.1645,-1.2223,-1.3637,-1.4286,-1.3843,-1.34,-1.2938,-1.233,-1.1085,-1.0381,-1.0283,-1.0283,-1.0544,-1.1019,-1.2075,-1.2919,-1.3509,-1.4608,-1.5658,-1.6705,-1.6695,-1.7464,-1.8642,-1.8318,-1.7958,-1.7409,-1.5238,-1.3252,-1.1267,-0.8867,-0.7127,-0.5862,0.0,0.0,0.0,0.0,0.0,0.0,0.0,0.0,0.0,0.0,0.0,0.1335,0.1251,0.17,0.0,0.0,0.0,0.0,0.0,0.0,0.0,0.0,0.0,0.3163,0.4045,0.4308,0.4452,0.4486,0.251,0.1751,0.2129,0.3336,0.3857,0.3788,0.4411,0.4081,0.0,0.0,0.0,0.0,-0.0431,0.0,0.0,0.0,0.0,0.0,-0.0242,-0.011,0.0,-0.0841,-0.1181,-0.1363,0.0,0.0,0.0,0.0,-0.1541,-0.1474,-0.1161,-0.0311,0.0598,0.1079,0.115,0.1156,0.1336,0.1001,0.0512,0.0089,-0.0222,-0.0609,-0.1323,-0.1878,-0.2346,-0.2724,-0.3434,-0.4329,-0.5469,-0.6303,-0.7058,-0.7762,-0.8617,-0.934,-0.9821,-1.1081,-1.2088,-1.2589,-1.3655,-1.415,-1.3876,-1.3303,-1.2717,-1.2131,-1.0934,-1.0283,-1.0283,-1.0283,-1.0428,-1.0687,-1.1998,-1.2735,-1.3027,-1.4295,-1.5325,-1.6032,-1.6218,-1.6922,-1.7935,-1.7583,-1.7089,-1.6333,-1.4207,-1.2121,-1.0058,-0.8146,-0.691,-0.6093,0.0,0.0,0.0,0.0,0.0,0.0,0.0,0.0,0.0,0.0,0.0,0.0,0.0,0.0,0.0,0.0,0.0,0.0,0.0,0.0,0.0,0.0,0.4636,0.5251,0.5873,0.4907,0.5156,0.6745,0.4633,0.4211,0.5301,0.336,0.2695,0.3083,0.2728,0.2327,0.1883,0.0,0.0,0.0,-0.1213,0.0,0.0,0.0,0.0,0.0,0.0,0.0,0.0,-0.1338,-0.1408,-0.143,-0.1714,0.0,0.0,0.0,0.0,0.0,-0.1474,-0.0839,-0.0226,-0.0089,0.0334,0.0714,0.0757,0.0757,0.06,-0.0022,-0.0311,-0.0676,-0.1361,-0.2182,-0.265,-0.2367,-0.353,-0.4934,-0.622,-0.6985,-0.765,-0.8327,-0.9107,-0.9824,-1.0301,-1.1457,-1.2421,-1.3055,-1.3501,-1.3786,-1.3761,-1.2947,-1.2267,-1.1715,-1.0775,-1.0283,-1.0283,-1.0283,-1.04,-1.0554,-1.1844,-1.2544,-1.2758,-1.4124,-1.5016,-1.5525,-1.5921,-1.6444,-1.6992,-1.6872,-1.5955,-1.4554,-1.2923,-1.075,-0.8375,-0.7252,-0.6537,-0.6007,0.0,0.0,0.0,0.0,0.0,0.0,0.0,0.0,0.0,0.0,0.0,0.0,0.0,0.0,0.0,0.0,0.0,0.0,0.0,0.0,0.0,0.6534,0.5705,0.5707,0.67,0.6328,0.6385,0.696,0.53,0.3765,0.2347,0.1657,0.1203,0.0888,0.1051,0.0948,0.0681,0.0585,0.0,-0.0552,-0.1317,0.0,0.0,0.0,0.0,0.0,0.0,0.0,0.0,-0.1975,-0.1913,-0.1736,-0.1781,0.0,0.0,0.0,0.0,0.0,-0.1868,-0.1625,-0.1186,-0.0499,-0.0267,-0.0133,0.0088,0.0132,-0.0022,-0.0641,-0.0797,-0.1131,-0.2135,-0.2714,-0.2999,-0.2823,-0.3948,-0.4994,-0.545,-0.6397,-0.7485,-0.8647,-0.9133,-0.9939,-1.1405,-1.1959,-1.2383,-1.2888,-1.3464,-1.3569,-1.31,-1.2699,-1.2245,-1.1628,-1.0774,-1.0283,-1.0283,-1.0283,-1.0736,-1.159,-1.1815,-1.2326,-1.3136,-1.3754,-1.46,-1.5475,-1.5354,-1.6169,-1.7463,-1.5995,-1.5133,-1.4467,-1.1959,-0.9982,-0.8327,-0.6809,-0.5882,-0.5437,0.0,0.0,0.0,0.0,0.0,0.0,0.0,0.0,0.0,0.0,0.0,0.0,0.0,0.0,0.0,0.0,0.0,0.0,0.0,0.0,0.7392,0.9234,0.8472,0.8057,0.8188,0.7755,0.7741,0.8186,0.5842,0.3822,0.2141,0.0419,-0.0427,-0.0495,-0.0249,-0.0094,-0.0022,-0.0022,-0.0178,-0.0445,0.0,0.0,0.0,0.0,0.0,0.0,0.0,0.0,0.0,0.0,-0.1913,-0.1803,-0.1803,0.0,0.0,0.0,0.0,0.0,-0.1869,-0.1792,-0.1696,-0.1652,-0.1336,-0.1097,-0.1247,-0.139,-0.1587,-0.201,-0.21,-0.2273,-0.2933,-0.3327,-0.3822,-0.4558,-0.5044,-0.5583,-0.6385,-0.7067,-0.7965,-0.9205,-0.9798,-1.0621,-1.1882,-1.2661,-1.3148,-1.3362,-1.3637,-1.3826,-1.3884,-1.2888,-1.224,-1.2073,-1.1153,-1.0508,-1.0283,-1.0283,-1.0649,-1.1356,-1.1664,-1.2174,-1.2838,-1.331,-1.4047,-1.4967,-1.4847,-1.5358,-1.6222,-1.521,-1.4243,-1.3221,-1.0867,-0.8789,-0.6943,-0.5322,-0.476,-0.4913,0.0,0.0,0.0,0.0,0.0,0.0,0.0,0.0,0.0,0.0,0.0,0.0,0.0,0.0,0.0,0.0,0.0,0.0,0.0,0.0,0.7961,1.0206,1.0142,1.0209,1.0579,0.9333,0.8967,0.9511,0.6525,0.4011,0.1965,-0.0608,-0.1775,-0.1657,-0.1337,-0.0995,-0.0601,-0.0535,-0.0512,-0.0535,0.0,0.0,0.0,0.0,0.0,0.0,0.0,0.0,0.0,0.0,0.0,0.0,0.0,0.0,0.0,-0.1803,-0.1803,-0.1809,-0.1847,-0.1903,-0.2053,-0.256,-0.2221,-0.1911,-0.262,-0.2827,-0.2997,-0.3337,-0.3406,-0.3478,-0.3682,-0.3981,-0.4608,-0.5798,-0.5881,-0.6169,-0.7134,-0.7577,-0.8325,-0.9709,-1.0351,-1.1207,-1.2476,-1.3299,-1.3862,-1.4003,-1.3862,-1.405,-1.4652,-1.3129,-1.2283,-1.2499,-1.1458,-1.0713,-1.0283,-1.0283,-1.0544,-1.1019,-1.1542,-1.2066,-1.2508,-1.3104,-1.3735,-1.4374,-1.447,-1.4658,-1.4907,-1.4379,-1.3457,-1.2177,-0.9849,-0.7397,-0.5074,-0.3789,-0.3679,-0.4343,0.0,0.0,0.0,0.0,0.0,0.0,0.0,0.0,0.0,0.0,0.0,0.0,0.0,0.0,0.0,0.0,0.0,0.0,0.0,0.0,0.7255,0.7656,0.8712,1.0896,1.4332,1.118,0.9843,1.0509,0.7464,0.4087,0.0314,-0.1576,-0.2542,-0.2763,-0.2319,-0.1795,-0.123,-0.0961,-0.087,-0.087,-0.0892,0.0,0.0,0.0,0.0,0.0,0.0,0.0,0.0,0.0,0.0,0.0,0.0,0.0,-0.1803,-0.1803,-0.1803,-0.1837,-0.1957,-0.2163,-0.2399,-0.2652,-0.2437,-0.2457,-0.3612,-0.3663,-0.3603,-0.4185,-0.4305,-0.4312,-0.4343,-0.461,-0.4942,-0.5301,-0.5797,-0.6269,-0.6609,-0.7167,-0.8239,-1.0113,-1.0389,-1.1304,-1.3486,-1.3758,-1.405,-1.4606,-1.4097,-1.405,-1.4652,-1.3129,-1.2283,-1.2499,-1.1458,-1.0713,-1.0283,-1.0283,-1.0544,-1.1019,-1.1542,-1.2066,-1.2532,-1.3421,-1.3868,-1.3967,-1.4342,-1.4533,-1.4456,-1.3578,-1.2889,-1.2094,-0.9002,-0.5817,-0.2932,-0.2804,-0.3108,-0.3719,0.0,0.0,0.0,0.0,0.0,0.0,0.0,0.0,0.0,0.0,0.0,0.0,0.0,0.0,0.0,0.0,0.0,0.0,0.0,0.4762,0.5975,0.7928,0.771,0.8792,1.1519,1.0197,0.9195,0.8601,0.5139,0.2305,0.019,-0.1158,-0.1935,-0.2194,-0.1825,-0.1517,-0.1274,-0.1005,-0.0892,-0.0914,-0.1072,-0.1341,0.0,0.0,0.0,0.0,0.0,0.0,0.0,0.0,-0.2307,-0.2044,-0.2044,-0.1935,-0.1759,-0.1541,-0.157,-0.1641,-0.1479,-0.1728,-0.2157,-0.2689,-0.2861,-0.3187,-0.442,-0.4928,-0.5286,-0.5882,-0.6275,-0.6416,-0.6125,-0.672,-0.7095,-0.6569,-0.7387,-0.8062,-0.7797,-0.8639,-0.9737,-1.0862,-1.1156,-1.1944,-1.3653,-1.4143,-1.4595,-1.5231,-1.505,-1.5005,-1.5231,-1.3925,-1.3,-1.251,-1.1729,-1.0986,-1.0332,-1.0283,-1.04,-1.0582,-1.1057,-1.1726,-1.2508,-1.2883,-1.3353,-1.3901,-1.4052,-1.4117,-1.4084,-1.339,-1.2448,-1.1079,-0.7125,-0.4401,-0.2674,-0.2273,-0.2492,-0.324,0.0,0.0,0.0,0.0,0.0,0.0,0.0,0.0,0.0,0.0,0.0,0.0,0.0,0.0,0.0,0.0,0.0,0.0,0.2848,0.3364,0.4503,0.642,0.5997,0.631,0.7541,0.7528,0.7431,0.7318,0.4044,0.1801,0.051,-0.0392,-0.1068,-0.1499,-0.1176,-0.1125,-0.1271,-0.0911,-0.0914,-0.1181,-0.1274,-0.1496,0.0,0.0,0.0,0.0,0.0,0.0,0.0,0.0,-0.2481,-0.2193,-0.2193,-0.2022,-0.173,-0.1405,-0.15,-0.1657,-0.1339,-0.1697,-0.2298,-0.2887,-0.3464,-0.4192,-0.53,-0.5915,-0.6492,-0.7369,-0.7642,-0.7694,-0.7499,-0.7936,-0.8171,-0.7602,-0.852,-0.9201,-0.8928,-0.9766,-1.0663,-1.1456,-1.1701,-1.2355,-1.3674,-1.4329,-1.4971,-1.5543,-1.5588,-1.556,-1.5405,-1.4271,-1.3184,-1.234,-1.1689,-1.1006,-1.0332,-1.0283,-1.0283,-1.0283,-1.0611,-1.1207,-1.2018,-1.2354,-1.2849,-1.3454,-1.3602,-1.3602,-1.3421,-1.2891,-1.1472,-0.9307,-0.5889,-0.3818,-0.263,-0.2228,-0.2361,-0.2937,0.0,0.0,0.0,0.0,0.0,0.0,0.0,0.0,0.0,0.0,0.0,0.0,0.0,0.0,0.0,0.0,0.0,0.0,0.155,0.251,0.2852,0.2391,0.338,0.3709,0.3165,0.3237,0.4541,0.7137,0.487,0.292,0.127,0.0531,-0.019,-0.089,-0.0538,-0.0729,-0.1266,-0.0667,-0.0933,-0.1762,-0.143,-0.1496,-0.1825,0.0,0.0,0.0,0.0,0.0,0.0,0.0,-0.2481,-0.2215,-0.2215,-0.2022,-0.1732,-0.1405,-0.162,-0.1925,-0.167,-0.2247,-0.2974,-0.3234,-0.4264,-0.5435,-0.6298,-0.6494,-0.6931,-0.8413,-0.8144,-0.7754,-0.814,-0.7878,-0.7762,-0.8148,-0.8815,-0.9423,-0.969,-1.0101,-1.0757,-1.172,-1.1814,-1.2355,-1.3674,-1.4329,-1.4971,-1.5543,-1.5588,-1.5417,-1.5031,-1.3817,-1.2742,-1.1914,-1.1236,-1.0713,-1.0283,-1.0283,-1.0283,-1.0283,-1.0283,-1.0534,-1.1019,-1.2018,-1.2508,-1.2544,-1.2978,-1.2943,-1.2473,-1.1993,-0.9848,-0.6789,-0.5646,-0.4172,-0.2719,-0.2719,-0.2719,-0.2849,0.0,0.0,0.0,0.0,0.0,0.0,0.0,0.0,0.0,0.0,0.0,0.0,0.0,0.0,0.0,0.0,0.0,0.0,-0.0324,0.0067,0.0374,0.0562,0.0474,0.0342,0.0171,0.0299,0.1501,0.3818,0.2324,0.1447,0.1153,0.0512,-0.0055,-0.0537,-0.0246,-0.0554,-0.1266,-0.0659,-0.0933,-0.1781,-0.1692,-0.1714,-0.1803,0.0,0.0,0.0,0.0,0.0,0.0,0.0,0.0,0.0,-0.2611,-0.2198,-0.171,-0.1283,-0.1259,-0.137,-0.1391,-0.2067,-0.2841,-0.322,-0.4502,-0.5931,-0.6861,-0.7542,-0.8343,-0.957,-0.9897,-0.9805,-0.9282,-0.9357,-0.9309,-0.8723,-0.9908,-1.0832,-1.0499,-1.1443,-1.2271,-1.254,-1.2559,-1.289,-1.3721,-1.4329,-1.4971,-1.5543,-1.6008,-1.569,-1.4436,-1.4024,-1.3011,-1.1266,-1.0991,-1.0713,-1.0283,-1.0283,-1.0283,-1.0283,-1.0283,-1.0534,-1.1019,-1.1689,-1.2174,-1.2508,-1.265,-1.2615,-1.2389,-1.0768,-0.864,-0.6229,-0.5081,-0.384,-0.2719,-0.2719,-0.2719,-0.2849,0.0,0.0,0.0,0.0,0.0,0.0,0.0,0.0,0.0,0.0,-0.1472,-0.1746,0.0,0.0,0.0,0.0,0.0,0.0,-0.1554,-0.1336,-0.1172,-0.1076,-0.1473,-0.181,-0.2054,-0.1821,-0.096,0.0577,0.0514,0.0543,0.0565,0.0086,-0.031,-0.0588,-0.0529,-0.0887,-0.1468,-0.1101,-0.1293,-0.1803,-0.1913,-0.1891,-0.1803,0.0,0.0,0.0,0.0,0.0,0.0,0.0,0.0,0.0,-0.276,-0.2337,-0.1903,-0.162,-0.1658,-0.1851,-0.2039,-0.281,-0.3666,-0.4192,-0.5532,-0.704,-0.8227,-0.8891,-0.9502,-1.0396,-1.0507,-1.0318,-0.994,-0.9961,-0.9877,-0.9479,-1.0656,-1.1475,-1.1148,-1.1984,-1.2686,-1.2861,-1.2725,-1.275,-1.3154,-1.4082,-1.4677,-1.465,-1.5611,-1.5416,-1.3599,-1.3482,-1.262,-1.0724,-1.0654,-1.0537,-1.0283,-1.0283,-1.0283,-1.0283,-1.0283,-1.0467,-1.0725,-1.1244,-1.1653,-1.1909,-1.1667,-1.1594,-1.1435,-0.9573,-0.7747,-0.6029,-0.5105,-0.4077,-0.3078,-0.3078,-0.3078,-0.3167,0.0,0.0,0.0,0.0,0.0,0.0,0.0,0.0,0.0,-0.2405,-0.2386,-0.2443,0.0,0.0,0.0,-0.2617,-0.2413,-0.2286,-0.2225,-0.1952,-0.201,-0.2485,-0.2685,-0.3039,-0.364,-0.3194,-0.2767,-0.2319,-0.0757,-0.0084,-0.0267,-0.0597,-0.0748,-0.0817,-0.1113,-0.1407,-0.1687,-0.1706,-0.1775,-0.1891,-0.209,-0.2029,-0.1825,-0.1789,0.0,0.0,0.0,0.0,0.0,0.0,0.0,0.0,-0.2707,-0.2415,-0.2197,-0.2145,-0.2466,-0.29,-0.3237,-0.4019,-0.4937,-0.5728,-0.695,-0.8431,-1.0075,-1.039,-1.0467,-1.0905,-1.0352,-0.9916,-1.0282,-1.0036,-0.9851,-1.0292,-1.1008,-1.1547,-1.1591,-1.1969,-1.2383,-1.2773,-1.2471,-1.218,-1.218,-1.357,-1.4105,-1.3203,-1.4617,-1.4623,-1.2636,-1.2552,-1.1854,-1.0332,-1.0283,-1.0283,-1.0283,-1.0283,-1.0283,-1.0283,-1.0283,-1.0283,-1.0322,-1.0791,-1.1019,-1.0971,-1.0417,-1.0138,-0.9943,-0.8504,-0.7168,-0.5993,-0.5508,-0.4618,-0.3581,-0.3581,-0.3581,-0.3581,0.0,0.0,0.0,0.0,0.0,0.0,0.0,0.0,-0.2865,-0.3125,-0.3021,-0.298,-0.3138,-0.2996,0.0,-0.2626,-0.2462,-0.2374,-0.2354,-0.2492,-0.2796,-0.3315,-0.3832,-0.4301,-0.4741,-0.3958,-0.3432,-0.3214,-0.2092,-0.1252,-0.0745,-0.0938,-0.0671,-0.0054,-0.0594,-0.087,-0.0949,-0.1041,-0.1649,-0.2466,-0.2059,-0.1985,-0.2072,-0.1761,-0.1634,0.0,0.0,0.0,0.0,0.0,0.0,0.0,-0.2765,-0.2409,-0.2125,-0.1756,-0.1992,-0.2521,-0.3266,-0.3957,-0.4726,-0.5665,-0.7051,-0.8729,-1.0973,-1.1132,-1.0867,-1.0981,-1.1159,-1.1237,-1.0922,-1.0757,-1.0716,-1.0809,-1.0945,-1.1211,-1.1624,-1.1993,-1.2219,-1.2363,-1.2239,-1.218,-1.218,-1.2689,-1.2872,-1.2669,-1.3414,-1.3345,-1.2113,-1.2041,-1.1512,-1.0332,-1.0283,-1.0283,-1.0283,-1.0283,-1.0283,-1.0283,-1.0283,-1.0283,-1.0322,-1.0791,-1.1019,-1.0971,-1.0417,-0.9758,-0.895,-0.8193,-0.6923,-0.547,-0.5346,-0.4618,-0.3581,-0.3581,-0.3581,-0.3581,0.0,0.0,0.0,0.0,0.0,0.0,0.0,0.0,-0.3246,-0.3429,-0.3302,-0.317,-0.3112,-0.2896,0.0,0.0,-0.2442,-0.2403,-0.2403,-0.2657,-0.3146,-0.3937,-0.4623,-0.4945,-0.4865,-0.4074,-0.3482,-0.3161,-0.2387,-0.1695,-0.1107,-0.1462,-0.1229,-0.0556,-0.1311,-0.1555,-0.1457,-0.1936,-0.2267,-0.2457,-0.2304,-0.2178,-0.2071,-0.1732,-0.1542,-0.1466,-0.1565,0.0,0.0,0.0,0.0,0.0,0.0,0.0,-0.2605,-0.223,-0.2404,-0.2951,-0.4015,-0.4589,-0.5245,-0.6738,-0.7961,-0.9285,-1.1031,-1.1019,-1.0867,-1.1568,-1.1763,-1.1627,-1.1094,-1.1019,-1.0943,-1.0687,-1.0785,-1.1059,-1.156,-1.1608,-1.1713,-1.2132,-1.1811,-1.1602,-1.1602,-1.2126,-1.2299,-1.1815,-1.2549,-1.2551,-1.1524,-1.1464,-1.1126,-1.0322,-1.0283,-1.0283,-1.0283,-1.0283,-1.0283,-1.0283,-1.0283,-1.0283,-1.0322,-1.0534,-1.0524,-1.0244,-0.9728,-0.9022,-0.8275,-0.7697,-0.6628,-0.5303,-0.5303,-0.4618,-0.3578,-0.3262,-0.335,-0.3578,0.0,0.0,0.0,0.0,0.0,0.0,0.0,0.0,0.0,-0.3505,-0.3357,-0.3165,-0.2896,-0.2682,-0.2501,0.0,0.0,0.0,-0.2364,-0.2745,-0.3408,-0.4383,-0.5013,-0.5121,-0.4606,-0.3916,-0.3337,-0.2869,-0.2354,-0.1765,-0.1124,-0.1721,-0.167,-0.1069,-0.196,-0.2217,-0.2054,-0.2792,-0.2796,-0.228,-0.2426,-0.2294,-0.1955,-0.1643,-0.1428,-0.1328,-0.1488,-0.1741,-0.2073,-0.2525,0.0,0.0,0.0,0.0,-0.3137,-0.2796,-0.296,-0.3487,-0.4593,-0.5192,-0.5934,-0.7815,-0.8818,-0.9667,-1.0867,-1.0764,-1.084,-1.221,-1.2138,-1.1653,-1.1207,-1.1132,-1.0981,-1.0505,-1.0646,-1.0969,-1.1417,-1.1126,-1.1182,-1.1869,-1.1357,-1.0908,-1.0908,-1.1664,-1.1767,-1.0919,-1.1686,-1.1817,-1.0926,-1.0867,-1.0687,-1.0322,-1.0283,-1.0283,-1.0283,-1.0283,-1.0283,-1.0283,-1.0283,-1.0283,-1.0283,-1.0108,-0.9776,-0.9301,-0.8667,-0.8095,-0.7523,-0.693,-0.6076,-0.513,-0.513,-0.453,-0.3534,-0.3034,-0.3123,-0.3353,0.0,0.0,0.0,0.0,0.0,0.0,0.0,0.0,0.0,0.0,-0.3277,-0.3018,-0.2756,-0.2549,-0.2324,-0.2073,-0.2154,-0.2225,-0.2225,0.0,0.0,-0.4552,-0.4661,-0.4681,-0.4599,-0.3834,-0.334,-0.3147,-0.2733,-0.1772,-0.0365,-0.0961,-0.0806,-0.0025,-0.0677,-0.1066,-0.1255,-0.1501,-0.1962,-0.2491,-0.19,-0.1788,-0.1941,-0.1383,-0.1217,-0.1297,-0.1333,-0.1617,-0.2104,-0.2731,-0.319,0.0,0.0,0.0,-0.3084,-0.2469,-0.2646,-0.3146,-0.3598,-0.4743,-0.6176,-0.7534,-0.8329,-0.9301,-1.1234,-1.1282,-1.1196,-1.2282,-1.2138,-1.1774,-1.17,-1.17,-1.1516,-1.0981,-1.0623,-1.0537,-1.1005,-1.0985,-1.0957,-1.1074,-1.0986,-1.0908,-1.0908,-1.0705,-1.0518,-1.04,-1.0527,-1.0527,-1.04,-1.039,-1.0351,-1.0283,-1.0283,-1.0283,-1.0283,-1.0283,-1.0283,-1.0283,-1.0283,-1.0283,-1.0283,-0.9257,-0.8793,-0.8673,-0.768,-0.6897,-0.6295,-0.5765,-0.513,-0.4517,-0.4517,-0.4136,-0.3578,-0.349,-0.3214,-0.2807,0.0,0.0,0.0,0.0,0.0,0.0,0.0,0.0,0.0,0.0,0.0,-0.3109,-0.2841,-0.2568,-0.2354,-0.2235,-0.2275,-0.2393,-0.2577,-0.3394,-0.3995,-0.4305,-0.4758,-0.4783,-0.4329,-0.3973,-0.3616,-0.3258,-0.2821,-0.2142,-0.1258,-0.08,-0.0163,0.0557,-0.0107,-0.0598,-0.0896,-0.1267,-0.1696,-0.2114,-0.1681,-0.1697,-0.1933,-0.1334,-0.125,-0.1431,-0.1177,-0.1351,-0.1835,-0.2532,-0.3091,-0.3459,-0.3255,0.0,0.0,0.0,-0.2581,-0.3034,-0.3712,-0.5158,-0.6669,-0.7585,-0.848,-0.9549,-1.1008,-1.1169,-1.1196,-1.1957,-1.1957,-1.17,-1.1394,-1.1356,-1.1207,-1.0687,-1.0428,-1.044,-1.0865,-1.0706,-1.0645,-1.0879,-1.0703,-1.0557,-1.0557,-1.0391,-1.0283,-1.0283,-1.0544,-1.0687,-1.0687,-1.0992,-1.0992,-1.0687,-1.0687,-1.0582,-1.0283,-1.0283,-1.0283,-1.0283,-1.0283,-1.0118,-0.9795,-0.8649,-0.8148,-0.8107,-0.6961,-0.6174,-0.5631,-0.5384,-0.4957,-0.4387,-0.4387,-0.4092,-0.3578,-0.3214,-0.2943,-0.2674,0.0,0.0,0.0,0.0,0.0,0.0,0.0,0.0,0.0,0.0,0.0,-0.3147,-0.2878,0.0,0.0,0.0,-0.2413,-0.2597,-0.2935,-0.342,-0.3778,-0.3935,-0.4537,-0.4595,-0.3985,-0.3932,-0.372,-0.3319,-0.3026,-0.2643,-0.2182,-0.1228,-0.0332,0.0458,0.026,-0.0166,-0.0768,-0.1012,-0.1345,-0.1702,-0.1406,-0.1537,-0.1809,-0.1025,-0.1144,-0.166,-0.0893,-0.1032,-0.1673,-0.2284,-0.2817,-0.3213,-0.3155,-0.3409,0.0,0.0,0.0,-0.2843,-0.3698,-0.5013,-0.6387,-0.7379,-0.8414,-0.9496,-1.073,-1.0905,-1.0981,-1.1479,-1.1505,-1.1292,-1.0905,-1.0905,-1.0829,-1.04,-1.0283,-1.0391,-1.0703,-1.0478,-1.04,-1.0713,-1.0469,-1.0283,-1.0283,-1.0283,-1.0351,-1.0467,-1.0791,-1.1057,-1.1207,-1.1431,-1.1394,-1.1008,-1.0867,-1.0649,-1.0283,-1.0283,-1.0283,-1.0283,-1.0283,-1.0,-0.9439,-0.8018,-0.7258,-0.7058,-0.5933,-0.5144,-0.4648,-0.4648,-0.4478,-0.4176,-0.4176,-0.3965,-0.3534,-0.3078,-0.2851,-0.2627,0.0,0.0,0.0,0.0,0.0,0.0,0.0,0.0,0.0,0.0,0.0,-0.3009,-0.2738,-0.253,-0.2344,-0.2225,-0.2442,-0.2731,-0.3064,-0.3127,-0.3262,-0.3528,-0.3636,0.0,-0.3622,-0.35,-0.342,-0.3394,-0.3567,-0.3252,-0.2481,-0.2408,-0.1787,-0.0663,0.0642,0.0444,-0.085,-0.0307,-0.0634,-0.1467,-0.0942,-0.1096,-0.1484,-0.017,-0.0724,-0.1967,-0.0422,-0.0696,-0.1829,-0.2116,-0.2326,-0.2526,-0.2885,-0.3116,-0.315,0.0,0.0,0.0,-0.307,-0.3642,-0.4562,-0.6622,-0.7691,-0.8764,-1.0586,-1.0649,-1.0467,-1.0943,-1.0687,-1.0361,-1.0361,-1.0687,-1.0829,-1.04,-1.0283,-1.0332,-1.0312,-1.0293,-1.0332,-1.0312,-1.0293,-1.0283,-1.0283,-1.0283,-1.0467,-1.0943,-1.0981,-1.1207,-1.1737,-1.1319,-1.1019,-1.1019,-1.0582,-1.0322,-1.0283,-1.0283,-1.0283,-1.0283,-1.0283,-1.0,-0.943,-0.7127,-0.5828,-0.5269,-0.4136,-0.3325,-0.2849,-0.2849,-0.3167,-0.3622,-0.3622,-0.3622,-0.3581,-0.3578,-0.317,-0.2627,0.0,0.0,0.0,0.0,0.0,0.0,0.0,0.0,0.0,0.0,0.0,0.0,0.0,-0.2617,-0.251,-0.246,-0.2626,-0.2871,-0.3203,-0.3268,-0.3378,-0.3555,-0.3705,-0.3736,-0.3605,-0.3634,-0.3656,-0.3656,-0.3554,-0.3593,-0.3762,-0.2893,-0.2392,-0.2134,-0.0332,0.0218,-0.0171,0.0269,0.0013,-0.067,-0.0697,-0.0933,-0.1274,-0.1174,-0.1462,-0.1867,-0.1387,-0.1386,-0.1701,-0.2266,-0.2286,-0.219,-0.28,-0.297,-0.288,-0.2563,-0.2402,-0.2429,-0.2939,-0.3598,-0.4442,-0.5595,-0.7128,-0.8507,-0.9177,-1.0077,-1.0725,-1.0572,-1.0649,-1.0649,-1.0361,-1.0428,-1.0505,-1.0322,-1.0283,-1.0283,-1.0283,-1.0283,-1.0283,-1.0283,-1.0283,-1.0283,-1.0283,-1.0283,-1.0505,-1.0943,-1.1319,-1.1726,-1.221,-1.2354,-1.2126,-1.1542,-1.0987,-1.0389,-0.9795,-1.0127,-1.0283,-1.0283,-0.9961,-0.9518,-0.891,-0.6569,-0.5004,-0.4034,-0.248,-0.196,-0.214,-0.214,-0.223,-0.2455,-0.2455,-0.2677,-0.3034,-0.3034,-0.2898,-0.2627,0.0,0.0,0.0,0.0,0.0,0.0,0.0,0.0,0.0,-0.3386,0.0,0.0,0.0,0.0,-0.2834,-0.2929,-0.2854,-0.2944,-0.3281,-0.3361,-0.346,-0.3597,-0.3796,-0.3833,-0.3705,-0.3795,-0.3825,-0.3825,-0.3817,-0.3995,-0.4352,-0.3475,-0.306,-0.2993,-0.1313,-0.0454,-0.021,0.017,0.0014,-0.0512,-0.058,-0.0797,-0.1092,-0.1038,-0.1264,-0.1494,-0.0933,-0.0789,-0.0943,-0.141,-0.1375,-0.1327,-0.2275,-0.2611,-0.2642,-0.2505,-0.2373,-0.2356,-0.2765,-0.3323,-0.401,-0.4938,-0.628,-0.7633,-0.86,-0.9657,-1.0488,-1.0747,-1.0916,-1.0905,-1.0572,-1.039,-1.0283,-1.0283,-1.0283,-1.0283,-1.0283,-1.0283,-1.0283,-1.0283,-1.0283,-1.0283,-1.0283,-1.0283,-1.0582,-1.1207,-1.159,-1.1993,-1.2473,-1.265,-1.2198,-1.1046,-1.0474,-0.9943,-0.9518,-0.9843,-1.0118,-1.0283,-0.9755,-0.9102,-0.8317,-0.5983,-0.4285,-0.3137,-0.1382,-0.094,-0.1518,-0.1518,-0.1607,-0.1786,-0.1786,-0.2184,-0.2719,-0.2719,-0.2807,-0.2898,0.0,0.0,0.0,0.0,0.0,0.0,0.0,0.0,-0.331,-0.3298,0.0,0.0,0.0,0.0,0.0,-0.3604,-0.3136,-0.2967,-0.3314,-0.3374,-0.346,-0.3597,-0.3788,-0.3906,-0.3906,-0.3906,-0.3906,-0.3906,-0.4362,-0.4416,-0.4118,-0.4162,-0.3841,-0.3179,-0.2182,-0.151,-0.1109,-0.0613,-0.0652,-0.1028,-0.0596,-0.0679,-0.0934,0.034,0.0036,-0.0804,0.1054,0.1173,0.0425,0.0457,0.0415,0.0079,-0.1269,-0.2018,-0.2422,-0.2558,-0.2312,-0.2092,0.0,0.0,0.0,-0.4656,-0.5165,-0.6031,-0.8889,-0.937,-0.9686,-1.1369,-1.1291,-1.0929,-1.0971,-1.0611,-1.0283,-1.0283,-1.0283,-1.0283,-1.0283,-1.0283,-1.0283,-1.0283,-1.0283,-1.0283,-1.0283,-1.0322,-1.0725,-1.1737,-1.1811,-1.2029,-1.2473,-1.2029,-1.1046,-0.9518,-0.8958,-0.8958,-0.9478,-0.9478,-0.9765,-1.0283,-0.9716,-0.8884,-0.7706,-0.5371,-0.372,-0.2615,-0.0804,-0.0359,-0.0895,-0.0895,-0.1206,-0.1741,-0.1741,-0.214,-0.2672,-0.2672,-0.3078,-0.3435,0.0,0.0,0.0,0.0,0.0,-0.3952,-0.3568,-0.3559,-0.3491,0.0,0.0,0.0,-0.2888,-0.3062,-0.3465,-0.4126,-0.3682,-0.357,-0.3995,-0.3672,-0.352,-0.3597,-0.3742,-0.3832,-0.3832,-0.3869,-0.3906,-0.3906,-0.4031,-0.4199,-0.4382,-0.4109,-0.391,-0.3741,-0.2979,-0.2371,-0.1824,-0.0716,-0.0328,-0.0467,-0.0577,-0.0538,-0.0479,-0.0794,-0.0585,-0.0156,-0.016,0.0296,0.0783,0.01,0.017,0.033,-0.1107,-0.1876,-0.2285,-0.2412,-0.2313,-0.2185,-0.2402,0.0,0.0,0.0,0.0,0.0,-0.5899,-0.6819,-0.786,-0.9161,-0.9287,-0.9446,-1.0326,-1.04,-1.0283,-1.0283,-1.0283,-1.0283,-1.0283,-1.0283,-1.0283,-1.0283,-1.0283,-1.0283,-1.0283,-1.0611,-1.1094,0.0,-1.2102,-1.2354,-1.2496,-1.1324,-1.0079,-0.889,-0.8731,-0.8756,-0.8918,-0.9319,-0.9765,-1.0283,-0.9359,-0.8529,-0.7706,-0.5413,-0.3745,-0.2615,-0.125,-0.0493,-0.0269,-0.0269,-0.0359,-0.0493,-0.0493,-0.1118,-0.2051,-0.2051,-0.2626,-0.324,0.0,0.0,-0.444,-0.4217,-0.4396,-0.4474,-0.4165,-0.4042,-0.3949,0.0,0.0,0.0,-0.3531,-0.3807,-0.4185,-0.4646,-0.4127,-0.3901,-0.4205,-0.3764,-0.3528,-0.3597,-0.3726,-0.3809,-0.384,-0.3877,-0.3906,-0.3906,-0.3906,-0.3999,-0.4198,-0.385,-0.3666,-0.3599,-0.3037,-0.26,-0.222,-0.1268,-0.0717,-0.0516,-0.0708,-0.0706,-0.0613,-0.0842,-0.0553,-0.0039,0.0164,0.065,0.1121,0.0686,0.0353,-0.0022,-0.1015,-0.1692,-0.2137,-0.2277,-0.2304,-0.23,-0.2378,-0.2402,-0.2469,-0.2781,0.0,0.0,-0.5936,-0.6868,-0.8015,-1.0049,-1.0156,-1.0143,-1.1057,-1.0725,-1.0438,-1.084,-1.0421,-1.0078,-1.0254,-1.0283,-1.0283,-1.0283,-1.0283,-1.0283,-1.0283,-1.0725,-1.1132,-1.1431,-1.192,-1.2018,-1.1546,-1.0292,-0.9195,-0.8342,-0.8088,-0.8226,-0.8675,-0.8999,-0.9558,-1.0283,-0.9439,-0.8602,-0.7747,-0.5668,-0.4093,-0.297,-0.1782,-0.094,-0.0359,-0.0359,-0.0224,-0.0045,-0.0269,-0.0939,-0.183,-0.2095,-0.2649,-0.314,0.0,0.0,-0.5053,-0.4847,-0.5018,-0.5164,-0.5087,-0.4746,-0.4567,0.0,-0.446,-0.4349,-0.4666,-0.4918,-0.5151,-0.531,-0.4542,-0.411,-0.4206,-0.3766,-0.3528,-0.3597,-0.3726,-0.3832,-0.3891,-0.3898,-0.3906,-0.3906,-0.3906,-0.3869,-0.3786,-0.3531,-0.3298,-0.3106,-0.2709,-0.2443,-0.2256,-0.1999,-0.1596,-0.1107,-0.092,-0.0922,-0.0951,-0.0245,-0.0111,-0.007,0.1229,0.1537,0.1389,0.1625,0.0703,-0.0625,-0.1002,-0.148,-0.1989,-0.2178,-0.2352,-0.2474,-0.2514,-0.2539,-0.2667,-0.3087,-0.3136,0.0,-0.7138,-0.7854,-0.869,-1.1671,-1.1657,-1.1228,-1.1779,-1.082,-1.0213,-1.1105,-1.0199,-0.9619,-1.0195,-1.0234,-1.0225,-1.0196,-1.0322,-1.039,-1.039,-1.0878,-1.1121,-1.1094,-1.1431,-1.1185,-1.0176,-0.9142,-0.8357,-0.7829,-0.7363,-0.7599,-0.8675,-0.8756,-0.9319,-1.0361,-0.9834,-0.8996,-0.7903,-0.6235,-0.4805,-0.3625,-0.249,-0.165,-0.1073,-0.0939,-0.0538,-0.0045,-0.0668,-0.1242,-0.1862,-0.2434,-0.2922,-0.3137,-0.5382,-0.5348,-0.5308,-0.5473,-0.563,-0.5548,-0.4944,-0.4958,-0.4986,-0.4826,-0.4539,-0.4762,-0.5842,-0.5349,-0.5417,-0.6601,-0.534,-0.4593,-0.4883,-0.4015,-0.3528,-0.3597,-0.3726,-0.3802,-0.3817,-0.3869,-0.3906,-0.3906,-0.3906,-0.3869,-0.3786,-0.3531,-0.3353,-0.3243,-0.2896,-0.2292,-0.1554,-0.2181,-0.2477,-0.2392,-0.0992,-0.0469,-0.0505,-0.014,0.0275,0.0682,0.0954,0.1337,0.1637,0.1206,0.04,-0.0528,-0.0952,-0.1327,-0.1716,-0.2342,-0.27,-0.2949,-0.3218,-0.3434,-0.3541,-0.3266,-0.3662,0.0,-0.4004,-0.4473,-0.5248,-0.6427,-0.6522,-0.6726,-0.7722,-0.7676,-0.7544,-0.7729,-0.8021,-0.8703,-1.0029,-0.9951,-0.9733,-0.9679,-1.037,-1.0867,-1.0867,-1.1689,-1.2066,-1.1664,-1.096,-1.0244,-0.9573,-0.8618,-0.778,-0.7189,-0.753,-0.8028,-0.8675,-0.9119,-0.9864,-1.0867,-1.0312,-0.9672,-0.8972,-0.7762,-0.6354,-0.4805,-0.3662,-0.2841,-0.2264,-0.1294,-0.0538,-0.0045,-0.0561,-0.1104,-0.1701,-0.2333,-0.274,-0.2937,-0.5292,-0.5901,-0.6312,-0.5886,-0.6132,-0.6314,-0.6041,-0.5823,-0.5843,-0.6244,-0.615,-0.6162,-0.6461,-0.6134,-0.6112,-0.6618,-0.5391,-0.4738,-0.5036,-0.3958,-0.3386,-0.3597,-0.3726,-0.3817,-0.3847,-0.3884,-0.3934,-0.3998,-0.3998,-0.3985,-0.3935,-0.3736,-0.3844,-0.4162,-0.3398,-0.2895,-0.2624,-0.2333,-0.2196,-0.2159,-0.172,-0.1883,-0.232,-0.1616,-0.1177,-0.0755,0.0134,0.0848,0.1276,0.0668,-0.0036,-0.0752,-0.1437,-0.1947,-0.2377,-0.2822,-0.3093,-0.3251,-0.3254,-0.3495,-0.3747,-0.371,-0.393,0.0,0.0,-0.4882,-0.5454,-0.7013,-0.684,-0.6745,-0.7887,-0.7388,-0.6976,-0.7463,-0.7715,-0.7975,-0.8317,-0.891,-0.9359,-0.9527,-1.0128,-1.0637,-1.0931,-1.1757,-1.2152,-1.1836,-1.058,-0.9609,-0.9093,-0.8308,-0.7614,-0.7021,-0.7572,-0.816,-0.8675,-0.946,-1.0234,-1.1019,-1.0998,-1.0692,-1.005,-0.9002,-0.7747,-0.6402,-0.5285,-0.414,-0.3058,-0.2443,-0.1515,-0.0491,-0.0726,-0.1173,-0.176,-0.2389,-0.2768,-0.295,-0.5189,-0.631,-0.71,-0.611,-0.6573,-0.7073,-0.7042,-0.6678,-0.6699,-0.7512,-0.7628,-0.7395,-0.6723,-0.6715,-0.6691,-0.6448,-0.5273,-0.4706,-0.5105,-0.3938,-0.3407,-0.3832,-0.3823,-0.3933,-0.4184,-0.3995,-0.3963,-0.4096,-0.4075,-0.4075,-0.4096,-0.3963,-0.4239,-0.4851,-0.4216,-0.374,-0.338,-0.2859,-0.2394,-0.2035,-0.2352,-0.2992,-0.3602,-0.2609,-0.2224,-0.2017,-0.053,0.0313,0.0663,0.0122,-0.0434,-0.1037,-0.1869,-0.2568,-0.3107,-0.3284,-0.3524,-0.3655,-0.3393,-0.3601,-0.3923,-0.41,-0.4139,-0.4446,0.0,0.0,0.0,-0.8047,-0.7622,-0.7201,-0.8122,-0.7137,-0.6437,-0.7255,-0.7271,-0.6932,-0.6196,-0.7383,0.0,-0.8816,-0.969,-1.0359,-1.0651,-1.1503,-1.188,-1.1532,-1.0223,-0.9204,-0.8616,-0.8031,-0.7572,-0.7196,-0.7739,-0.8349,-0.899,-0.9982,-1.0778,-1.1398,-1.1959,-1.19,-1.1296,-1.0316,-0.9259,-0.8109,-0.6927,-0.5551,-0.4148,-0.3672,-0.2607,-0.1232,-0.1105,-0.1249,-0.1651,-0.2357,-0.2717,-0.2851,-0.5909,-0.632,-0.6578,-0.6147,-0.6978,-0.7402,-0.6533,-0.6802,-0.7064,-0.7013,-0.726,-0.717,-0.6502,-0.6396,-0.6623,-0.7219,-0.5467,-0.47,-0.557,-0.4378,-0.396,-0.472,-0.4193,-0.4317,-0.5213,-0.436,-0.3963,-0.4096,-0.3977,-0.3984,-0.4096,-0.3963,-0.3951,-0.4093,-0.5565,-0.4375,-0.145,-0.4436,-0.4972,-0.3673,-0.2047,-0.1345,-0.1237,-0.0698,-0.0485,-0.0456,-0.0129,0.0045,0.0044,-0.0243,-0.0582,-0.1028,-0.1659,-0.2328,-0.2984,-0.3364,-0.3944,-0.4478,-0.4495,-0.4716,-0.4782,-0.4104,-0.4463,-0.4712,-0.3722,0.0,-0.4439,-0.4314,0.0,-0.4095,-0.4233,0.0,0.0,-0.4038,-0.4559,-0.4887,-0.4665,-0.5378,-0.5992,-0.6189,-0.9141,-1.0819,-0.9936,-1.1062,-1.1447,-1.054,-0.9684,-0.8875,-0.8136,-0.7447,-0.7321,-0.7787,-0.8316,-0.9062,-1.0021,-1.1031,-1.1974,-1.2854,-1.3331,-1.3331,-1.2842,-1.2224,-1.122,-0.9837,-0.823,-0.719,-0.6428,-0.4362,-0.312,-0.2428,-0.1762,-0.1228,-0.0944,-0.1888,-0.2194,-0.2204,-0.5383,-0.606,-0.6453,-0.5755,-0.6169,-0.6595,-0.6649,-0.7684,-0.8272,-0.7683,-0.7828,-0.7731,-0.7047,-0.6238,-0.6135,-0.7195,-0.5529,-0.4811,-0.5756,-0.4603,-0.3947,-0.4134,-0.3873,-0.396,-0.4456,-0.4092,-0.3963,-0.4096,-0.412,-0.3747,-0.301,-0.3858,-0.3902,-0.3384,-0.6131,-0.5964,-0.3707,-0.4898,-0.4631,-0.3257,-0.1661,-0.0841,-0.0658,-0.1726,-0.1723,-0.1037,-0.0264,-0.0224,-0.0535,-0.0645,-0.1104,-0.179,-0.2558,-0.2894,-0.3101,-0.349,-0.3729,-0.3858,-0.389,-0.4421,-0.4927,-0.4655,-0.4881,-0.4948,-0.4142,-0.3987,-0.4073,-0.4308,0.0,0.0,0.0,0.0,0.0,0.0,-0.4305,-0.4622,0.0,0.0,-0.6584,0.0,0.0,0.0,-0.9897,-1.1086,-1.1458,-1.0653,-0.9508,-0.8585,-0.8046,-0.7725,-0.7799,-0.8302,-0.9116,-1.0031,-1.0994,-1.2011,-1.2842,-1.3498,-1.3985,-1.3979,-1.355,-1.2738,-1.1723,-1.054,-0.8961,-0.7803,-0.6862,-0.524,-0.3983,-0.3055,-0.2109,-0.1343,-0.086,-0.1288,-0.1571,-0.1798,-0.4938,-0.5746,-0.6159,-0.5241,-0.554,-0.6156,-0.6888,-0.7975,-0.8502,-0.7872,-0.7977,-0.7751,-0.6797,-0.5963,-0.5891,-0.6863,-0.5576,-0.5168,-0.6228,-0.4932,-0.427,-0.4595,-0.4052,-0.394,-0.4374,-0.4114,-0.3979,-0.3983,-0.3893,-0.3355,-0.2446,-0.3412,-0.3621,-0.3318,-0.6404,-0.7279,-0.6393,-0.5671,-0.4613,-0.3264,-0.1648,-0.0884,-0.0851,-0.2114,-0.2156,-0.1429,-0.0583,-0.0627,-0.1158,-0.1219,-0.1735,0.0,-0.3353,-0.3608,-0.3673,-0.4117,-0.4174,-0.4012,-0.3775,-0.4388,-0.5014,-0.466,-0.4798,-0.4875,-0.4416,-0.4212,-0.429,-0.4861,-0.4744,0.0,0.0,0.0,0.0,0.0,0.0,-0.4629,0.0,-0.5201,0.0,0.0,0.0,0.0,0.0,-1.037,-1.0678,-0.9892,0.0,-0.7945,-0.8052,-0.8005,-0.8309,-0.9015,-0.9905,-1.0903,-1.1989,-1.2976,-1.3697,-1.4178,-1.4631,-1.4596,-1.4019,-1.3187,-1.2106,-1.0833,-0.9473,-0.8285,-0.7168,-0.6033,-0.4817,-0.3614,-0.25,-0.1585,-0.0897,-0.0848,-0.1078,-0.1352,-0.5007,-0.5437,-0.5546,-0.4686,-0.5553,-0.658,-0.7198,-0.7117,-0.6991,-0.7034,-0.7214,-0.6714,-0.507,-0.5554,-0.6072,-0.632,-0.5665,-0.5829,-0.7172,-0.5525,-0.5291,-0.7109,-0.519,-0.4643,-0.5807,-0.4747,-0.4043,-0.3708,-0.2992,-0.2768,-0.2954,-0.25,-0.2944,-0.4249,-0.6441,-0.7861,-0.8519,-0.7278,-0.5981,-0.4514,-0.2154,-0.141,-0.1661,0.0,-0.056,-0.094,-0.0895,0.0,0.0,-0.2062,-0.2379,0.0,0.0,0.0,-0.4938,-0.5483,-0.582,-0.5826,-0.4979,-0.5157,-0.5203,-0.364,-0.3891,-0.4351,-0.3688,-0.4281,-0.5003,-0.517,-0.5684,-0.6129,-0.615,0.0,0.0,0.0,0.0,0.0,0.0,0.0,0.0,0.0,0.0,0.0,0.0,0.0,0.0,0.0,-0.6547,0.0,-0.8113,-0.8052,-0.8664,-1.0079,-1.0565,-1.1497,-1.306,-1.3912,-1.4589,-1.5059,-1.5536,-1.5329,-1.447,-1.3985,-1.2702,-1.0822,-0.9837,-0.8804,-0.7787,-0.6647,-0.547,-0.4262,-0.3121,-0.1944,-0.0894,-0.0744,-0.0707,-0.0775,-0.5005,-0.5143,-0.5129,-0.4701,-0.4875,-0.5382,-0.6302,-0.7193,-0.7608,-0.7188,-0.751,-0.7287,-0.5987,-0.5751,-0.6041,-0.6935,-0.6587,-0.668,-0.7584,-0.6466,-0.6137,-0.7002,-0.5201,-0.4545,-0.5363,-0.4601,-0.3994,-0.3561,-0.3579,-0.3598,-0.3601,-0.3589,-0.3833,-0.433,-0.5915,-0.6865,-0.7234,-0.6138,-0.5324,-0.4573,-0.2713,-0.1773,-0.1395,0.0,-0.099,-0.1429,-0.1029,-0.1297,0.0,-0.1898,-0.2664,-0.3633,-0.4104,-0.4389,-0.4665,-0.5063,-0.519,-0.519,0.0,0.0,-0.6045,-0.4028,-0.4893,-0.5725,-0.3806,-0.3976,-0.4688,-0.5225,-0.509,-0.4853,-0.4818,0.0,0.0,0.0,0.0,0.0,0.0,0.0,0.0,0.0,0.0,0.0,0.0,0.0,0.0,0.0,0.0,0.0,0.0,-0.9375,-1.0275,-1.1033,-1.2174,-1.3408,-1.472,-1.4836,-1.5211,-1.5896,-1.5521,-1.5043,-1.447,-1.3377,-1.213,-1.0833,-0.9503,-0.8545,-0.7829,-0.6689,-0.5739,-0.4885,-0.3712,-0.2507,-0.1396,-0.0556,-0.0247,-0.0269,-0.511,-0.5027,-0.4978,-0.4805,-0.4628,-0.4826,-0.5758,-0.6684,-0.7134,-0.6719,-0.7008,-0.6934,-0.6111,-0.5858,-0.6118,-0.7032,-0.6978,-0.71,-0.7627,-0.7164,-0.702,-0.7337,-0.6209,-0.5682,-0.5937,-0.5328,-0.4692,-0.4034,-0.4192,-0.4152,-0.3913,-0.4127,-0.4259,-0.4345,-0.5357,-0.6328,-0.7071,-0.5583,-0.515,-0.532,-0.3331,-0.2203,0.0,0.0,-0.1403,-0.1543,0.0,-0.1429,-0.214,-0.214,-0.304,-0.4203,-0.4615,-0.4868,-0.513,-0.5535,-0.5626,-0.5497,-0.5206,-0.5972,0.0,-0.5317,-0.5863,-0.626,-0.451,-0.4746,-0.5401,-0.5656,-0.5235,-0.4984,0.0,0.0,0.0,0.0,0.0,0.0,0.0,-0.3493,0.0,0.0,0.0,0.0,0.0,0.0,0.0,0.0,0.0,0.0,0.0,0.0,-1.1369,-1.1955,-1.3291,-1.4467,-1.5404,-1.5196,-1.5359,-1.5868,-1.521,-1.4582,-1.3966,-1.2901,-1.1757,-1.0578,-0.9253,-0.8398,-0.7836,-0.6859,-0.5996,-0.5187,-0.4139,-0.3066,-0.1901,-0.074,-0.0176,0.0,-0.5273,-0.5142,-0.511,-0.4966,-0.4817,-0.494,-0.5641,-0.5685,-0.5654,-0.5712,-0.59,-0.5839,-0.5399,-0.5929,-0.6426,-0.6626,-0.6984,-0.7266,-0.7521,-0.771,-0.7996,-0.8333,-0.8142,-0.7907,-0.7555,-0.686,-0.5999,-0.4975,-0.4691,-0.4325,-0.3855,-0.4019,-0.4169,-0.4293,-0.4804,-0.6183,-0.7959,-0.5652,-0.5484,-0.654,-0.3836,-0.2755,-0.2659,-0.2049,-0.165,-0.1307,-0.1042,-0.1697,-0.2672,-0.2716,-0.351,-0.4565,-0.5173,-0.5744,-0.6349,-0.6852,-0.6979,-0.6799,-0.6005,-0.6193,-0.6785,-0.724,-0.6778,0.0,0.0,-0.6493,-0.709,-0.6482,-0.6153,-0.6464,0.0,0.0,0.0,0.0,0.0,0.0,0.0,0.0,0.0,0.0,0.0,0.0,0.0,0.0,0.0,0.0,0.0,0.0,0.0,0.0,-1.1784,-1.2751,-1.3819,-1.4598,-1.5064,-1.5032,-1.5016,-1.5047,-1.4599,-1.3933,-1.306,-1.2554,-1.1538,-1.0138,-0.9142,-0.8398,-0.7836,-0.7238,-0.6325,-0.5204,-0.4523,-0.3521,-0.2361,-0.1324,-0.056,-0.0034,-0.528,-0.5619,-0.5974,-0.5686,-0.5114,-0.5112,-0.6337,-0.6253,-0.6079,-0.6132,-0.7008,-0.728,-0.6371,-0.7355,-0.7919,-0.7613,-0.8665,-0.9412,-0.9488,-0.9671,-0.9935,-1.0264,-0.939,-0.8666,-0.8169,-0.7031,-0.5848,-0.4627,-0.4209,-0.3737,-0.3243,-0.3818,-0.4075,-0.4012,-0.4152,-0.5145,-0.6626,-0.5176,-0.4749,-0.4933,-0.3825,-0.3223,-0.2974,0.0,-0.224,-0.1936,-0.1645,-0.1784,-0.214,-0.302,-0.4073,-0.5173,-0.5787,-0.6343,-0.681,-0.6937,-0.6979,-0.6974,-0.6747,-0.7102,-0.747,-0.7006,-0.8033,-0.8724,0.0,0.0,0.0,0.0,0.0,0.0,0.0,0.0,0.0,0.0,0.0,0.0,0.0,0.0,0.0,0.0,0.0,0.0,0.0,0.0,0.0,0.0,0.0,0.0,0.0,0.0,0.0,-1.2378,-1.3431,-1.4139,-1.4511,-1.4055,-1.3967,-1.4184,-1.335,-1.2798,-1.2554,-1.1718,-1.095,-1.0138,-0.9142,-0.8398,-0.7836,-0.7238,-0.6258,-0.5122,-0.4964,-0.3791,-0.2203,-0.1464,-0.0915,-0.0504,-0.5769,-0.6325,-0.6891,-0.69,-0.5833,-0.5295,-0.6256,-0.5816,-0.5391,-0.5464,-0.6538,-0.7049,-0.6442,-0.7555,-0.8316,-0.8234,-0.9062,-0.9492,-0.9329,-0.9965,-1.0284,-1.0134,-1.0267,-0.9982,-0.9244,-0.8436,-0.7203,-0.5502,-0.5266,-0.4509,-0.3268,-0.3383,-0.3613,-0.3906,-0.3862,-0.426,-0.4918,-0.4766,-0.4468,-0.4045,-0.3742,-0.3476,0.0,-0.2846,-0.2595,-0.242,-0.2234,-0.2184,-0.2317,-0.3193,-0.4291,-0.5394,-0.6007,-0.6562,-0.6979,-0.6979,-0.6979,-0.6979,-0.6979,-0.7447,-0.7858,-0.764,-0.8615,-0.927,-0.788,-0.7761,-0.7935,0.0,-0.7167,-0.6732,0.0,0.0,0.0,0.0,0.0,0.0,0.0,0.0,0.0,0.0,0.0,0.0,0.0,0.0,0.0,0.0,0.0,0.0,0.0,0.0,0.0,-1.2482,-1.2981,-1.3366,-1.3635,-1.2733,-1.2484,-1.2911,-1.2192,-1.1837,-1.1791,-1.1223,-1.0705,-1.0205,-0.939,-0.8756,-0.8177,-0.7488,-0.6344,-0.5029,-0.4407,-0.3442,-0.2373,-0.2029,-0.1507,-0.094,-0.6246,-0.6957,-0.7662,-0.796,-0.6587,-0.558,-0.6007,-0.5135,-0.4498,-0.4662,-0.5648,-0.6345,-0.6328,-0.7401,-0.8316,-0.8756,-0.8918,-0.8872,-0.8602,-0.9703,-1.0052,-0.9303,-1.0888,-1.133,-1.0322,-1.0088,-0.8998,-0.6913,-0.6804,-0.5633,-0.3458,-0.2991,-0.3152,-0.3818,-0.3672,-0.3594,-0.3614,-0.4596,-0.4552,-0.3794,-0.3641,-0.3581,-0.3534,-0.3034,-0.2807,-0.2807,-0.2807,-0.2763,-0.2804,-0.35,-0.4422,-0.5437,-0.6087,-0.6647,-0.6979,-0.6979,-0.6979,-0.6979,-0.6979,-0.7447,-0.8036,-0.8561,-0.8789,-0.8839,-0.8622,-0.8099,-0.7825,-0.8297,-0.7486,-0.7245,0.0,0.0,0.0,0.0,0.0,0.0,0.0,0.0,0.0,0.0,0.0,0.0,0.0,0.0,0.0,0.0,0.0,0.0,0.0,0.0,0.0,-1.252,-1.2361,-1.2295,-1.2316,-1.1198,-1.0878,-1.1379,-1.1058,-1.0927,-1.1019,-1.0943,-1.0725,-1.0351,-0.9755,-0.9199,-0.865,-0.7811,-0.6567,-0.5002,-0.3614,-0.2933,-0.2779,-0.2779,-0.2242,-0.144,-0.5462,-0.6719,-0.774,-0.7154,-0.6575,-0.639,-0.6976,-0.5965,-0.5389,-0.6123,-0.7057,-0.7654,-0.7583,-0.8567,-0.9239,-0.9359,-1.0128,-1.0558,-1.0518,-1.1148,-1.1281,-1.0677,-1.138,-1.133,-1.0322,-0.9739,-0.8821,-0.7557,-0.6499,-0.4896,-0.2788,-0.3386,-0.3578,-0.3385,-0.2876,-0.3474,-0.4864,-0.4976,0.0,-0.49,-0.3989,-0.3581,-0.3578,-0.349,-0.3442,-0.3442,-0.3442,-0.3126,-0.2937,-0.447,-0.513,-0.5475,-0.6507,-0.6937,-0.6979,-0.6979,-0.6979,-0.6979,-0.6979,-0.7447,-0.8036,-0.8561,-0.9027,-0.9369,-0.9377,-0.9532,-0.9649,-0.9403,-0.9701,-0.9653,-0.8599,0.0,0.0,0.0,0.0,0.0,0.0,0.0,0.0,0.0,0.0,0.0,0.0,0.0,0.0,0.0,0.0,0.0,0.0,0.0,0.0,0.0,-1.1122,0.0,0.0,0.0,-0.9686,-0.9807,-0.9836,-1.025,-1.0981,-1.0611,-1.0572,-1.0829,-0.9903,-0.9199,-0.8675,-0.8041,-0.6859,-0.534,-0.4221,-0.3559,-0.3196,-0.3196,-0.2871,-0.2377,-0.7153,-0.7801,-0.8445,-0.8594,-0.7534,-0.6969,-0.7921,-0.7176,-0.6346,-0.5963,-0.6945,-0.7666,-0.7584,-0.8725,-0.9597,-0.9883,-1.0341,-1.0649,-1.0649,-1.0878,-1.0916,-1.0649,-1.1132,-1.1019,-1.0322,-1.0226,-0.9182,-0.7131,-0.5979,-0.4586,-0.2983,-0.3496,-0.3644,-0.3454,-0.3403,-0.3816,-0.4541,0.0,0.0,-0.4781,-0.4238,-0.3836,-0.3581,-0.3581,-0.3751,-0.3965,-0.3707,-0.3788,-0.4164,-0.4995,-0.5524,-0.5916,-0.6725,-0.6979,-0.6979,-0.6979,-0.6979,-0.6979,-0.6979,-0.7648,-0.8309,-0.8325,-0.8932,-0.9545,-0.9604,-0.9596,-0.9715,-1.0161,-1.0431,-1.008,-0.8587,-0.7566,0.0,0.0,0.0,0.0,0.0,0.0,0.0,0.0,0.0,0.0,0.0,0.0,0.0,0.0,0.0,0.0,0.0,0.0,0.0,0.0,0.0,0.0,-0.9464,0.0,-0.9152,-0.952,-0.9552,-0.9965,-1.0649,-1.039,-1.0428,-1.0611,-0.9834,-0.9199,-0.861,-0.7212,-0.6032,-0.4975,-0.4273,-0.3858,-0.3658,-0.3658,-0.3397,-0.2904,-0.9147,-0.9254,-0.961,-1.0539,-0.9114,-0.8119,-0.8982,-0.846,-0.7475,-0.6047,-0.6914,-0.7682,-0.7775,-0.8807,-0.9755,-1.039,-1.0361,-1.0361,-1.0428,-1.0361,-1.0361,-1.0428,-1.0791,-1.0829,-1.0467,-1.0802,-0.9743,-0.7144,-0.5745,-0.4312,-0.2872,-0.3045,-0.3332,-0.3769,-0.4073,0.0,0.0,0.0,-0.4993,-0.4778,-0.4486,-0.4132,-0.3751,-0.3751,-0.4052,-0.4347,-0.4052,-0.4618,-0.548,-0.548,-0.5787,-0.6307,-0.681,-0.6979,-0.6979,-0.6979,-0.6979,-0.6979,-0.6979,-0.7848,-0.8593,-0.8106,-0.8809,-0.9573,-0.9485,-0.9281,-0.9427,-1.0556,-1.0598,-1.008,-0.9012,-0.8334,0.0,0.0,0.0,0.0,0.0,0.0,0.0,0.0,0.0,0.0,0.0,0.0,0.0,0.0,0.0,0.0,0.0,0.0,0.0,0.0,0.0,-0.9537,-0.9157,0.0,-0.9079,-0.9724,-0.9752,-1.0076,-1.0621,-1.0505,-1.0467,-1.0428,-0.9795,-0.9107,-0.8271,-0.6458,-0.5395,-0.4808,-0.4487,-0.4258,-0.4123,-0.4123,-0.3853,-0.3327,-0.9925,-1.0557,-1.1202,-1.1911,-1.1343,-1.0636,-1.0148,-0.9583,-0.8862,-0.7812,-0.8182,-0.8759,-0.9238,-0.9415,-0.9903,-1.0867,-1.0534,-1.0467,-1.0905,-1.0544,-1.0505,-1.0905,-1.0981,-1.0981,-1.0943,-1.0981,-1.0346,-0.8973,-0.6246,-0.3745,-0.149,-0.1511,-0.2488,-0.4221,0.0,0.0,0.0,-0.532,-0.5458,-0.5939,-0.4856,-0.4391,-0.4303,-0.4303,-0.4347,-0.4478,-0.4957,-0.5572,-0.6136,-0.6136,-0.6136,-0.6307,-0.681,-0.6979,-0.6979,-0.6979,-0.6979,-0.6979,-0.6979,-0.7848,-0.8593,-0.8106,-0.8809,-0.9495,-0.915,-0.9291,-0.9724,-1.0326,-1.0598,-1.0618,-1.0196,-0.9063,-0.791,0.0,0.0,0.0,0.0,0.0,0.0,0.0,0.0,0.0,0.0,0.0,0.0,0.0,0.0,0.0,0.0,0.0,0.0,-0.8298,-0.8646,-0.8262,-0.7079,-0.8578,-0.9584,-1.005,-1.0232,-1.0794,-1.1627,-1.1169,-1.0943,-1.0867,-0.9903,-0.8745,-0.7462,-0.6795,-0.6125,-0.5603,-0.5569,-0.514,-0.4538,-0.4538,-0.428,-0.3858,-1.3199,-1.2868,-1.2789,-1.3614,-1.244,-1.1473,-1.1792,-1.1253,-1.054,-0.9761,-0.9354,-0.935,-0.9884,-1.0205,-1.0799,-1.1754,-1.1457,-1.1383,-1.1827,-1.1148,-1.0791,-1.0981,-1.0725,-1.0572,-1.0572,-1.0572,-0.9808,-0.8193,-0.6571,-0.4392,-0.1742,-0.2883,-0.4169,-0.5568,0.0,-0.5937,-0.6338,-0.6253,-0.6001,-0.561,-0.513,-0.4526,-0.3965,-0.4264,-0.4609,-0.4957,-0.5216,-0.6118,-0.7112,-0.6435,-0.6435,-0.6732,-0.6937,-0.6768,-0.6605,-0.6894,-0.6774,-0.6598,-0.6894,-0.7848,-0.8543,-0.7808,-0.8639,-0.9417,-0.8779,-0.9391,-1.023,-1.0723,-1.0862,-1.0618,-0.9701,-0.8592,-0.7657,-0.713,0.0,0.0,0.0,0.0,0.0,0.0,0.0,0.0,0.0,0.0,0.0,0.0,0.0,0.0,0.0,0.0,0.0,-0.753,0.0,-0.9751,-0.8189,-0.9897,-1.0868,-1.1069,-1.117,-1.1256,-1.1319,-1.1094,-1.0514,-0.96,-0.8984,-0.794,-0.6645,-0.6242,-0.5825,-0.5451,-0.5451,-0.5287,-0.5023,-0.5023,-0.473,-0.4361,-1.5978,-1.5235,-1.4828,-1.5835,-1.4363,-1.3133,-1.3377,-1.2712,-1.1852,-1.0951,-1.0321,-1.005,-1.0417,-1.0771,-1.1435,-1.2519,-1.2103,-1.197,-1.239,-1.1509,-1.1019,-1.1019,-1.0687,-1.0582,-1.0736,-1.0582,-0.9703,-0.8069,-0.7136,-0.5455,-0.3177,-0.4434,-0.5557,0.0,-0.6747,-0.6867,-0.6926,-0.6996,-0.6465,-0.5567,-0.5389,-0.4831,-0.4144,-0.4526,-0.5043,-0.5567,-0.5733,-0.6592,-0.753,-0.6689,-0.6689,-0.6979,-0.6979,-0.6647,-0.6307,-0.6852,-0.6598,-0.6349,-0.7063,-0.7979,-0.8542,-0.782,-0.854,-0.9194,-0.8379,-0.9036,-0.998,-1.0552,-1.0835,-1.0545,-0.9055,-0.8029,-0.7214,-0.653,0.0,0.0,0.0,-0.783,0.0,0.0,-0.7172,-0.6606,-0.6523,0.0,0.0,0.0,0.0,0.0,0.0,0.0,0.0,0.0,0.0,0.0,-0.9194,-1.0924,-1.1898,-1.2054,-1.2037,-1.1737,-1.1244,-1.0943,-1.0011,-0.8707,-0.8442,-0.7532,-0.6182,-0.6019,-0.5698,-0.5322,-0.5371,-0.5357,-0.5309,-0.5309,-0.5087,-0.483,-1.7547,-1.7479,-1.7505,-1.8656,-1.7681,-1.6264,-1.4892,-1.3779,-1.2577,-1.1185,-1.0981,-1.0981,-1.0981,-1.1019,-1.1571,-1.2958,-1.2307,-1.197,-1.239,-1.1509,-1.1019,-1.1019,-1.0971,-1.1244,-1.1774,-1.1244,-1.0446,-0.9397,-0.7974,-0.6786,-0.584,-0.568,-0.5976,-0.6686,-0.6686,-0.7132,-0.7855,-0.7273,-0.6689,-0.6136,-0.5524,-0.5303,-0.5265,-0.5303,-0.5653,-0.6264,-0.6768,-0.6979,-0.7021,-0.6979,-0.6979,-0.6979,-0.6979,-0.6647,-0.6307,-0.6852,-0.6598,-0.6435,-0.7579,-0.8275,-0.8621,-0.8281,-0.8593,-0.8789,-0.79,-0.8076,-0.8634,-0.945,-1.0371,-1.044,-0.8641,-0.7588,-0.6582,-0.5244,0.0,0.0,0.0,-0.688,0.0,-0.6691,-0.3886,-0.2807,-0.492,0.0,0.0,0.0,0.0,0.0,0.0,0.0,0.0,-0.8542,-0.8861,0.0,-0.939,-1.1199,-1.2348,-1.2899,-1.2626,-1.2246,-1.1774,-1.0764,-0.9716,-0.8716,-0.8716,-0.7749,-0.6216,-0.6466,-0.6065,-0.5342,-0.5598,-0.5531,-0.5309,-0.5309,-0.5309,-0.526,-1.9519,-1.915,-1.8742,-1.864,-1.75,-1.6311,-1.5442,-1.4363,-1.3234,-1.2105,-1.1704,-1.1394,-1.1057,-1.1019,-1.1435,-1.2519,-1.2139,-1.197,-1.239,-1.1509,-1.1019,-1.1019,-1.0687,-1.0611,-1.0764,-1.0621,-0.9981,-0.8941,0.0,0.0,-0.6327,-0.6623,-0.7405,-0.8601,-0.8223,-0.7976,-0.7777,-0.6839,-0.5867,-0.5,-0.5216,-0.5043,-0.4783,-0.561,-0.605,-0.6264,-0.681,-0.728,-0.7538,-0.7147,-0.728,-0.753,-0.7154,-0.6337,-0.5782,-0.6725,-0.6337,-0.591,-0.7489,-0.8275,-0.868,-0.8644,-0.8824,-0.8924,-0.8582,-0.8887,-0.936,-0.9909,-0.9863,-0.9321,-0.8069,-0.7202,-0.6337,-0.5346,-0.5558,0.0,-0.5931,0.0,-0.5755,-0.5291,-0.4801,-0.455,0.0,-0.5356,0.0,0.0,0.0,0.0,0.0,0.0,0.0,0.0,-0.9623,0.0,-0.9742,-1.1795,-1.2762,-1.2626,-1.2531,-1.2066,-1.1207,-1.0215,-0.9359,-0.8667,-0.8087,-0.7314,-0.6465,-0.6119,-0.5825,-0.5564,-0.5458,-0.5364,-0.5309,-0.5309,-0.5309,-0.5324,-2.0416,-2.0041,-1.9541,-1.8947,-1.78,-1.6686,-1.5848,-1.4823,-1.3663,-1.2342,-1.197,-1.1516,-1.0802,-1.0725,0.0,-1.2319,-1.2031,-1.1898,-1.214,-1.1435,-1.0905,-1.0753,-1.0467,-1.039,-1.0572,-1.0186,0.0,-0.8973,-0.799,-0.7336,-0.7038,-0.7795,-0.8508,-0.9199,-0.8837,-0.8244,-0.7432,-0.6592,-0.5524,-0.4434,-0.5043,-0.5087,-0.4826,-0.583,-0.6307,-0.6562,-0.6894,-0.7238,-0.7489,-0.7105,-0.7238,-0.7447,-0.6901,-0.6039,-0.5518,-0.6677,-0.6204,-0.5728,-0.7682,-0.8439,-0.8745,-0.902,-0.9059,-0.8914,-0.8521,-0.8957,-0.9436,-0.9507,-0.9297,-0.8766,-0.7619,-0.692,-0.6183,-0.5207,-0.5023,-0.5112,-0.5383,-0.5669,-0.5586,0.0,0.0,0.0,0.0,-0.4897,-0.5568,0.0,0.0,0.0,0.0,0.0,0.0,-0.8155,-1.0088,-1.0934,-1.0546,-1.2123,-1.2791,-1.2508,-1.2138,-1.1605,-1.0971,-0.9973,-0.9175,-0.8492,-0.7777,-0.7026,-0.6233,-0.5865,-0.5645,-0.5531,-0.5351,-0.5309,-0.5309,-0.5309,-0.5309,-0.5324,-2.0408,-2.0231,-1.9915,-1.9417,-1.8483,-1.7337,-1.603,-1.5066,-1.3848,-1.2054,-1.1811,-1.1404,-1.04,-1.0283,-1.0819,-1.214,0.0,0.0,-1.1597,-1.1185,-1.0764,-1.0322,-1.0244,-1.0467,-1.0905,-0.9942,-0.9381,-0.9306,-0.8341,-0.7912,-0.7995,-0.8999,-0.9239,-0.8756,-0.8675,-0.7998,-0.6904,-0.6337,-0.5394,-0.4391,-0.5043,-0.5303,-0.5389,-0.6007,-0.6562,-0.6979,-0.6979,-0.6979,-0.6979,-0.6979,-0.6979,-0.6894,-0.6392,-0.583,-0.5561,-0.6634,-0.6167,-0.5808,-0.8088,-0.8716,-0.8833,-0.9469,-0.9336,-0.8812,-0.789,-0.8389,-0.893,-0.8487,-0.8684,-0.8592,-0.7332,-0.6702,-0.6021,-0.4788,-0.457,-0.457,-0.4602,-0.5823,-0.6331,-0.5255,0.0,0.0,0.0,-0.4011,-0.443,0.0,0.0,0.0,0.0,0.0,-0.6887,-0.9666,-1.022,-1.0783,-1.1558,-1.2155,-1.2437,-1.2389,-1.1431,-1.0943,-1.0922,-0.9962,-0.9078,-0.8223,-0.7731,-0.6861,-0.5772,-0.5731,-0.5551,-0.5342,-0.5322,-0.5309,-0.5309,-0.5309,-0.5309,-0.5349,-2.04,-2.0098,-1.9619,-1.8861,-1.8083,-1.7037,-1.5443,-1.4805,-1.3848,-1.2054,-1.1811,-1.1404,-1.04,-1.0283,-1.0428,-1.0781,-1.0725,-1.0659,-1.0639,-1.0534,-1.0428,-1.0283,-0.9922,-0.9755,-0.9864,-0.9239,-0.8675,-0.8267,-0.8036,-0.8118,-0.8521,-0.9199,-0.9439,-0.9279,-0.8391,-0.7383,-0.6253,-0.5245,-0.4439,-0.388,-0.4874,-0.5303,-0.5389,-0.6422,-0.6894,-0.6979,-0.6979,-0.6979,-0.6979,-0.6979,-0.6979,-0.6979,-0.6852,-0.6428,-0.605,-0.6307,-0.5873,-0.5808,-0.8088,-0.8716,-0.8941,-0.9877,-0.9802,-0.9164,-0.798,-0.8115,-0.8448,-0.8342,-0.7931,-0.7456,-0.7088,-0.6199,-0.53,-0.4692,-0.4344,-0.4248,-0.4564,-0.4903,-0.4922,-0.4366,-0.431,-0.4072,-0.3421,-0.3788,-0.4178,0.0,0.0,0.0,-0.6987,-0.6833,-0.7542,-0.9367,-0.9716,-1.0295,-1.1124,-1.1699,-1.1763,-1.1356,-1.0764,-1.0467,-1.0418,-0.9441,-0.8855,-0.851,-0.7459,-0.6745,-0.6346,-0.5898,-0.5671,-0.5585,-0.5364,-0.5309,-0.5309,-0.5309,-0.5309,-0.5322,-2.0354,-2.0059,-1.9532,-1.8649,-1.7795,-1.6727,-1.5213,-1.4554,-1.363,-1.2018,-1.1811,-1.1404,-1.04,-1.0283,-1.0283,-1.0283,-1.0283,-1.0283,-1.0283,-1.0283,-1.0283,-1.0283,-0.9804,-0.9518,-0.9518,-0.8716,-0.807,-0.7489,-0.8028,-0.8398,-0.8716,-0.9239,-0.9359,-0.9079,-0.7934,-0.68,-0.5669,-0.4774,-0.422,-0.4052,-0.4961,-0.548,-0.5787,-0.6677,-0.6979,-0.6979,-0.6979,-0.6979,-0.6979,-0.6979,-0.6979,-0.6937,-0.6732,-0.6435,-0.6184,-0.6184,-0.5959,-0.6161,-0.817,-0.8716,-0.8916,-0.9763,-0.9661,-0.9051,-0.7978,-0.7753,-0.7715,-0.7501,-0.7118,-0.6743,-0.6545,-0.5783,-0.5023,-0.4403,-0.4151,-0.4086,-0.428,-0.4488,-0.4451,-0.4058,-0.3926,-0.3755,-0.3355,-0.3723,-0.4151,-0.4462,-0.5229,0.0,-0.6585,-0.7258,-0.8069,-0.9079,-0.9691,-1.0331,-1.0948,-1.1275,-1.1169,-1.0687,-1.0428,-1.0283,-1.0264,-0.9526,-0.9038,-0.8777,-0.7732,-0.699,-0.6505,-0.599,-0.5676,-0.5498,-0.5344,-0.5309,-0.5309,-0.5309,-0.5309,-0.5309,-2.028,-2.003,-1.9488,-1.8548,-1.7559,-1.6447,-1.5139,-1.4256,-1.3293,-1.1982,-1.1737,-1.133,-1.039,-1.0283,-1.0283,-1.0283,-1.0283,-1.0283,-1.0283,-1.0283,-1.0244,-1.0166,-0.9677,-0.9359,-0.9279,-0.8275,-0.753,-0.6979,-0.8136,-0.8716,-0.8716,-0.9239,-0.9199,-0.8635,-0.7404,-0.6271,-0.526,-0.4565,-0.4303,-0.443,-0.4957,-0.5567,-0.6264,-0.6683,-0.6937,-0.6979,-0.6979,-0.6979,-0.6979,-0.6979,-0.6979,-0.6937,-0.6477,-0.6307,-0.6307,-0.6307,-0.6319,-0.671,-0.8285,-0.8797,-0.9063,-0.9478,-0.933,-0.8873,-0.7992,-0.7503,-0.7071,-0.6587,-0.6457,-0.6275,-0.5875,-0.5369,-0.4745,-0.3929,-0.3851,-0.3834,-0.3707,-0.4056,-0.4194,-0.3853,-0.37,-0.3533,-0.3323,-0.3723,-0.4199,-0.4654,-0.5684,-0.6323,-0.6367,-0.7505,-0.8362,-0.876,-0.9757,-1.0439,-1.081,-1.093,-1.0764,-1.0283,-1.0283,-1.0283,-1.0264,-0.9834,-0.9402,-0.9031,-0.8114,-0.7272,-0.654,-0.6007,-0.5617,-0.5309,-0.5309,-0.5309,-0.5316,-0.5372,-0.5368,-0.5337,-2.0165,-1.9947,-1.9404,-1.8141,-1.7354,-1.6371,-1.4836,-1.3789,-1.2879,-1.1909,-1.1394,-1.0905,-1.0361,-1.0283,-1.0283,-1.0283,-1.0283,-1.0283,-1.0283,-1.0283,-1.0079,-0.9637,-0.9119,-0.8594,-0.816,-0.7482,-0.7105,-0.6979,-0.8136,-0.8716,-0.8716,-0.9239,-0.9199,-0.8635,-0.6967,-0.5876,-0.5221,-0.4184,-0.3965,-0.4391,-0.4522,-0.5216,-0.6227,-0.6307,-0.6605,-0.6979,-0.6979,-0.6979,-0.6979,-0.6979,-0.6979,-0.6979,-0.6894,-0.6894,-0.6894,-0.6894,-0.6956,-0.7292,-0.8391,-0.9359,-0.9983,-0.9672,-0.9544,-0.922,-0.8056,-0.7739,-0.7458,-0.6676,-0.6213,-0.5844,-0.5394,-0.468,-0.3888,-0.3051,-0.3181,-0.315,-0.2409,-0.2719,-0.2955,-0.2896,-0.2537,-0.257,-0.3225,-0.3723,-0.4268,-0.4979,-0.5807,-0.6427,-0.67,-0.7555,-0.8061,-0.8143,-0.9178,-0.9952,-1.0396,-1.0799,-1.0764,-1.0283,-1.0283,-1.0283,-1.0264,-0.9834,-0.9526,-0.9325,-0.7861,-0.7097,-0.6841,-0.5819,-0.534,-0.5309,-0.5309,-0.5309,-0.534,-0.5672,-0.5748,-0.5605,-1.9616,-1.9227,-1.8618,-1.7417,-1.6415,-1.5406,-1.4287,-1.3369,-1.2449,-1.1494,-1.1159,-1.0829,-1.0351,-1.0283,-1.0283,-1.0283,-1.0283,-1.0283,-1.0283,-1.0283,-1.004,-0.9518,-0.8999,-0.8144,-0.7027,-0.6732,-0.6562,-0.6562,-0.769,-0.8275,-0.8275,-0.8521,-0.8521,-0.8193,-0.6784,-0.5856,-0.526,-0.4395,-0.4176,-0.4387,-0.4387,-0.513,-0.6184,-0.6184,-0.652,-0.6979,-0.6979,-0.681,-0.6562,-0.6562,-0.6343,-0.6124,-0.6471,-0.6562,-0.6647,-0.6894,-0.7294,-0.781,-0.8562,-0.9316,-0.9941,-0.9971,-0.9805,-0.9284,-0.8059,-0.7449,-0.6787,-0.5684,-0.5156,-0.4814,-0.459,-0.4043,-0.3433,-0.2789,-0.286,-0.2741,-0.2099,-0.2412,-0.2695,-0.2695,-0.2507,-0.2576,-0.3029,-0.3518,-0.3948,-0.4374,-0.5117,-0.5732,-0.6175,-0.6706,-0.7145,-0.7441,-0.8833,-0.9647,-0.9873,-1.038,-1.0505,-1.0283,-1.0283,-1.0283,-1.0273,-1.0078,-0.9696,-0.9194,-0.8202,-0.7407,-0.6658,-0.5923,-0.5491,-0.5309,-0.5309,-0.5371,-0.5544,-0.5735,-0.5758,-0.5657,-1.9146,-1.8612,-1.7905,-1.6571,-1.5391,-1.437,-1.3568,-1.2714,-1.1872,-1.1084,-1.0905,-1.0687,-1.0361,-1.0283,-1.0283,-1.0283,-1.0283,-1.0244,-1.0118,-1.0118,-0.9883,-0.9319,-0.8545,-0.7558,-0.6392,-0.627,-0.627,-0.6392,-0.7405,-0.7919,-0.7919,-0.7919,-0.7919,-0.7836,-0.6689,-0.5873,-0.526,-0.4648,-0.4387,-0.4387,-0.4387,-0.513,-0.6184,-0.6184,-0.652,-0.6979,-0.6979,-0.6647,-0.6184,-0.6184,-0.5791,-0.5365,-0.599,-0.618,-0.6229,-0.6833,-0.7456,-0.813,-0.8688,-0.9291,-0.9863,-1.0195,-0.9953,-0.9272,-0.806,-0.7105,-0.6104,-0.4849,-0.428,-0.3956,-0.3858,-0.356,-0.3135,-0.2606,-0.2622,-0.2472,-0.1795,-0.2188,-0.2494,-0.2398,-0.2502,-0.2675,-0.2864,-0.3368,-0.3721,-0.3866,-0.4529,-0.5101,-0.5544,-0.5794,-0.6132,-0.6609,-0.8228,-0.9222,-0.9478,-0.9922,-1.0166,-1.0283,-1.0283,-1.0283,-1.0283,-1.0283,-0.9811,-0.8967,-0.8468,-0.7577,-0.6471,-0.5953,-0.5522,-0.5151,-0.5246,-0.5392,-0.5568,-0.5591,-0.5623,-0.5548,-1.9023,-1.86,-1.7715,-1.5591,-1.4646,-1.3753,-1.2602,-1.1675,-1.1084,-1.1008,-1.0611,-1.0361,-1.0283,-1.0283,-1.0283,-1.0283,-1.0283,-1.0088,-0.9597,-0.9558,-0.9319,-0.8797,-0.7224,-0.6556,-0.6937,-0.6477,-0.6435,-0.6937,-0.7579,-0.7919,-0.7919,-0.7919,-0.7919,-0.7836,-0.6689,-0.5873,-0.526,-0.4648,-0.4387,-0.4387,-0.4387,-0.513,-0.6184,-0.6184,-0.652,-0.6979,-0.6979,-0.6647,-0.6184,-0.6184,-0.5717,-0.5234,-0.5975,-0.6056,-0.6058,-0.6774,-0.7456,-0.813,-0.8809,-0.962,-1.0244,-1.0273,-0.9903,-0.9196,-0.8048,-0.7047,-0.5989,-0.4826,-0.428,-0.3858,-0.3425,-0.3327,-0.3023,-0.2195,-0.2428,-0.2246,-0.0978,-0.1523,-0.1894,-0.147,-0.1887,-0.2418,-0.2871,-0.3444,-0.3875,-0.4134,-0.4604,-0.4974,-0.5131,-0.5266,-0.5389,-0.5432,-0.7051,-0.8423,-0.9478,-0.9518,-0.9804,-1.0283,-1.0283,-1.0283,-1.0283,-1.0283,-0.9811,-0.8967,-0.8183,-0.7345,-0.6438,-0.5648,-0.5081,-0.4698,-0.5119,-0.5228,-0.5159,-0.5216,-0.536,-0.5334,-1.8365,-1.7567,-1.6493,-1.436,-1.3115,-1.2219,-1.1611,-1.0641,-1.0147,-1.0534,-1.0108,-0.9922,-1.0244,-1.0283,-1.0166,-0.9834,-0.9804,-0.9558,-0.9039,-0.8675,-0.8259,-0.766,-0.6368,-0.5567,-0.5379,-0.5168,-0.5389,-0.5947,-0.6556,-0.7027,-0.7321,-0.7321,-0.7321,-0.7321,-0.6901,-0.6167,-0.5303,-0.5043,-0.4735,-0.4387,-0.4387,-0.513,-0.6184,-0.6184,-0.652,-0.6937,-0.6647,-0.613,-0.5567,-0.5216,-0.4694,-0.4333,-0.5121,-0.5332,-0.5568,-0.6951,-0.7378,-0.7565,-0.8406,-0.9035,-0.9546,-0.9751,-0.9091,-0.812,-0.7116,-0.5789,-0.4611,-0.393,-0.3229,-0.2805,-0.2907,-0.294,-0.2737,-0.2088,-0.192,-0.158,-0.0791,-0.0978,-0.1136,-0.094,-0.1686,-0.2312,-0.2616,-0.3174,-0.3574,-0.3824,-0.386,-0.4082,-0.4532,-0.4605,-0.4829,-0.5303,-0.593,-0.6967,-0.8423,-0.9133,-0.9765,-1.0283,-1.0283,-1.0283,-1.0283,-0.9961,-0.9241,-0.8227,-0.7572,-0.67,-0.5716,-0.542,-0.5182,-0.5023,-0.4922,-0.4958,-0.5073,-0.4796,-0.456,-0.4281,-1.7803,-1.6632,-1.5145,-1.2932,-1.171,-1.0803,-1.0186,-0.9563,-0.9412,-0.9952,-0.9725,-0.9725,-1.0244,-1.0166,-0.9922,-0.9518,-0.9359,-0.9039,-0.848,-0.778,-0.7189,-0.6748,-0.5813,-0.5087,-0.4696,-0.4478,-0.4691,-0.5303,-0.5916,-0.6392,-0.6768,-0.6937,-0.6979,-0.6979,-0.6979,-0.638,-0.5308,-0.548,-0.513,-0.443,-0.4826,-0.548,-0.6221,-0.6392,-0.6683,-0.6937,-0.6392,-0.583,-0.5216,-0.4826,-0.4275,-0.396,-0.4866,-0.5209,-0.5582,-0.7002,-0.7229,-0.7185,-0.7982,-0.8198,-0.8286,-0.8648,-0.799,-0.7008,-0.6001,-0.4681,-0.3547,-0.3191,-0.2504,-0.2147,-0.2613,-0.2712,-0.2547,-0.2081,-0.1609,-0.1104,-0.057,-0.0605,-0.0643,-0.0481,-0.1404,-0.2069,-0.2221,-0.2731,-0.3121,-0.3262,-0.3255,-0.3438,-0.3838,-0.3838,-0.4205,-0.4942,-0.5182,-0.6095,-0.7788,-0.8763,-0.9518,-1.004,-1.004,-1.004,-1.004,-0.9478,-0.8626,-0.7515,-0.7149,-0.6282,-0.5087,-0.5087,-0.4922,-0.466,-0.4473,-0.4521,-0.4622,-0.4059,-0.3721,-0.3396,-1.743,-1.588,-1.3804,-1.1333,-1.0508,-0.9702,-0.8319,-0.8455,-0.8878,-0.9439,-0.9518,-0.9725,-1.0244,-0.9843,-0.9518,-0.9478,-0.8999,-0.848,-0.7912,-0.6816,-0.6179,-0.6179,-0.561,-0.5303,-0.5303,-0.4691,-0.4696,-0.5303,-0.5873,-0.6179,-0.6227,-0.6732,-0.6979,-0.6979,-0.6979,-0.638,-0.5351,-0.5964,-0.5524,-0.4517,-0.5701,-0.6184,-0.627,-0.6816,-0.6979,-0.6937,-0.6392,-0.583,-0.5303,-0.5303,-0.4824,-0.4373,-0.5383,-0.5925,-0.63,-0.6825,-0.6998,-0.7106,-0.7621,-0.7152,-0.6566,-0.7009,-0.6665,-0.5969,-0.4848,-0.3809,-0.3014,-0.2726,-0.2308,-0.2147,-0.2613,-0.2679,-0.2547,-0.2081,-0.1609,-0.1003,-0.01,-0.0402,-0.0514,-0.0036,-0.0948,-0.1566,-0.1605,-0.2123,-0.2506,-0.2512,-0.285,-0.3078,-0.3082,-0.3082,-0.3424,-0.4164,-0.4895,-0.6095,-0.7788,-0.8407,-0.8958,-0.9518,-0.9478,-0.9478,-0.9469,-0.891,-0.8077,-0.6998,-0.6962,-0.6068,-0.4602,-0.4602,-0.4075,-0.3355,-0.3793,-0.3918,-0.3682,-0.2952,-0.2856,-0.2785,-1.6282,-1.4894,-1.3102,-1.0561,-0.9477,-0.8685,-0.7878,-0.7982,-0.848,-0.9399,-0.9518,-0.9725,-1.0244,-1.0157,-0.9755,-0.8999,-0.8797,-0.8308,-0.7314,-0.6605,-0.6007,-0.5567,-0.5,-0.4482,-0.41,-0.3924,-0.4092,-0.4652,-0.487,-0.5173,-0.5567,-0.6173,-0.6435,-0.6477,-0.6852,-0.6598,-0.5964,-0.6136,-0.6007,-0.5696,-0.605,-0.6435,-0.6768,-0.6937,-0.6979,-0.6937,-0.6392,-0.5761,-0.5153,-0.5034,-0.4665,-0.4373,-0.5383,-0.5757,-0.5943,-0.638,-0.6193,-0.5821,-0.5938,-0.5568,-0.5392,-0.6293,-0.5342,-0.4083,-0.366,-0.2445,-0.1467,-0.1676,-0.1373,-0.131,-0.2078,-0.1942,-0.1671,-0.1534,-0.0867,-0.0167,0.0401,0.0726,0.0915,0.0928,0.037,-0.0154,-0.0595,-0.1161,-0.1662,-0.1991,-0.2304,-0.2597,-0.2934,-0.2971,-0.3298,-0.4043,-0.4792,-0.5599,-0.6446,-0.7964,-0.8862,-0.9139,-0.9382,-0.8893,-0.7793,-0.7525,-0.6777,-0.5722,-0.5321,-0.4797,-0.4183,-0.4183,-0.3849,-0.3277,-0.3155,-0.2852,-0.2475,-0.1911,-0.1587,-0.1265,-1.5113,-1.3598,-1.1759,-0.9439,-0.845,-0.7739,-0.7157,-0.7327,-0.7938,-0.9039,-0.9199,-0.9478,-1.0205,-0.9922,-0.9399,-0.8756,-0.8095,-0.7433,-0.6725,-0.5953,-0.5216,-0.4596,-0.4033,-0.3693,-0.3581,-0.3581,-0.3751,-0.4092,-0.4303,-0.4696,-0.5308,-0.5916,-0.6307,-0.652,-0.6852,-0.6683,-0.6221,-0.6435,-0.6392,-0.6221,-0.6435,-0.6732,-0.6979,-0.6979,-0.6979,-0.6937,-0.6392,-0.5711,-0.509,-0.5015,-0.4879,-0.4848,-0.5638,-0.5913,-0.5935,-0.6047,-0.5645,-0.5196,-0.4998,-0.4419,-0.3996,-0.4698,-0.3971,-0.29,-0.229,-0.1404,-0.0773,-0.1007,-0.0873,-0.0907,-0.1609,-0.1507,-0.1203,-0.0833,-0.0199,0.0532,0.1364,0.1782,0.1954,0.1864,0.1492,0.1007,0.0436,-0.0074,-0.0674,-0.1326,-0.1824,-0.2253,-0.2539,-0.2769,-0.3198,-0.3882,-0.4413,-0.5034,-0.5809,-0.6951,-0.7795,-0.8379,-0.8295,-0.7704,-0.6752,-0.6293,-0.5609,-0.4854,-0.4332,-0.3873,-0.3458,-0.3286,-0.2918,-0.2488,-0.223,-0.1864,-0.1462,-0.1171,-0.067,-0.0067,-1.3862,-1.2087,-1.0049,-0.8117,-0.7402,-0.6896,-0.626,-0.666,-0.7474,-0.8553,-0.8797,-0.9199,-1.0196,-0.9399,-0.8756,-0.8716,-0.7182,-0.6184,-0.6184,-0.5,-0.4077,-0.3544,-0.2934,-0.2898,-0.3445,-0.3445,-0.3445,-0.3534,-0.4001,-0.4565,-0.5216,-0.583,-0.6386,-0.6937,-0.6979,-0.6725,-0.6307,-0.681,-0.6732,-0.6307,-0.681,-0.6979,-0.6979,-0.6979,-0.6965,-0.6904,-0.6398,-0.5708,-0.5033,-0.5009,-0.5236,-0.5596,-0.6063,-0.6219,-0.6176,-0.5838,-0.5456,-0.5031,-0.4639,-0.3644,-0.2695,-0.2596,-0.2531,-0.2131,-0.0905,-0.0571,-0.0537,-0.0537,-0.0538,-0.0671,-0.1071,-0.1136,-0.0836,-0.0033,0.0497,0.1255,0.256,0.2732,0.2717,0.2743,0.2371,0.1906,0.1476,0.104,0.0421,-0.0502,-0.1412,-0.1926,-0.2029,-0.2586,-0.3154,-0.3708,-0.3882,-0.4493,-0.5511,-0.5511,-0.6081,-0.7204,-0.6516,-0.6109,-0.5947,-0.5079,-0.4457,-0.4107,-0.3664,-0.3121,-0.2498,-0.2057,-0.1597,-0.1136,-0.1136,-0.0903,-0.0568,-0.0503,0.0067,0.0868,-1.2256,-1.0656,-0.8971,-0.7115,-0.6219,-0.5764,-0.5791,-0.6841,-0.7893,-0.8594,-0.9439,-1.004,-1.0283,-0.9716,-0.9159,-0.8716,-0.7182,-0.6184,-0.6184,-0.4639,-0.3632,-0.35,-0.2534,-0.2053,-0.2186,-0.2186,-0.2408,-0.2898,-0.3028,-0.3595,-0.4604,-0.5216,-0.583,-0.6392,-0.681,-0.6937,-0.6852,-0.6937,-0.6937,-0.6852,-0.6937,-0.6979,-0.6979,-0.6979,-0.688,-0.6687,-0.6566,-0.5651,-0.452,-0.4314,-0.4795,-0.5587,-0.6048,-0.6359,-0.6478,-0.6182,-0.5608,-0.4963,-0.4312,-0.3425,-0.2531,-0.1802,-0.11,-0.05,-0.0234,0.0368,0.087,0.087,0.0603,0.0369,0.0267,0.0268,0.0435,0.0932,0.1694,0.2455,0.3093,0.328,0.3332,0.3194,0.2895,0.2637,0.242,0.1996,0.1341,0.0397,-0.0587,-0.1421,-0.2103,-0.2636,-0.2943,-0.3083,-0.3576,-0.3949,-0.4189,-0.4175,-0.4651,-0.5676,-0.5402,-0.4653,-0.3466,-0.3121,-0.2599,-0.1967,-0.1866,-0.155,-0.1133,-0.1033,-0.05,0.0267,0.0267,0.0334,0.0469,0.1165,0.1296,0.1652,-1.1563,-0.9839,-0.8189,-0.6851,-0.578,-0.5259,-0.5648,-0.6445,-0.7453,-0.8553,-0.9199,-0.9637,-0.9883,-0.9439,-0.8667,-0.7599,-0.6465,-0.5524,-0.4942,-0.3807,-0.2843,-0.2266,-0.1695,-0.1251,-0.0939,-0.094,-0.1385,-0.2273,-0.2541,-0.3287,-0.4422,-0.4995,-0.5739,-0.6605,-0.6852,-0.6979,-0.6979,-0.6979,-0.6979,-0.6979,-0.6979,-0.6979,-0.6979,-0.6979,-0.684,-0.6587,-0.6587,-0.5645,-0.4337,-0.3944,-0.4448,-0.5284,-0.5792,-0.6356,-0.674,-0.6485,-0.5745,-0.4859,-0.4088,-0.2981,-0.1869,-0.1173,-0.0335,0.0335,0.0335,0.0837,0.1305,0.1305,0.1139,0.0972,0.0969,0.0972,0.1139,0.1569,0.2392,0.3151,0.3556,0.3885,0.3981,0.3672,0.3525,0.3407,0.3335,0.2725,0.2021,0.1321,0.0174,-0.0858,-0.1711,-0.2004,-0.2226,-0.2454,-0.2791,-0.285,-0.2603,-0.2809,-0.3041,-0.3331,-0.3483,-0.3159,-0.2359,-0.2023,-0.1577,-0.1003,-0.0768,-0.0434,0.0,0.0432,0.0864,0.1363,0.1749,0.2044,0.2315,0.2959,0.3454,0.4282,-1.1102,-0.9272,-0.7639,-0.6586,-0.542,-0.4827,-0.5397,-0.5865,-0.6713,-0.8211,-0.8667,-0.8999,-0.9439,-0.895,-0.7923,-0.6349,-0.5475,-0.4552,-0.3544,-0.2802,-0.1962,-0.094,-0.0806,-0.0493,0.0,0.0,-0.0538,-0.1652,-0.2228,-0.3193,-0.4413,-0.5034,-0.5905,-0.6979,-0.6979,-0.6979,-0.6979,-0.6979,-0.6979,-0.6979,-0.6979,-0.6979,-0.6979,-0.6979,-0.684,-0.6587,-0.6587,-0.5645,-0.4317,-0.3788,-0.4076,-0.4819,-0.5325,-0.607,-0.6704,-0.6468,-0.5571,-0.4539,-0.3841,-0.2387,-0.1004,-0.0772,0.0067,0.0807,0.0807,0.1107,0.1406,0.1406,0.1406,0.144,0.154,0.1471,0.1607,0.2142,0.2893,0.3575,0.4053,0.4377,0.4473,0.4151,0.4091,0.4091,0.4091,0.3458,0.2787,0.2252,0.0951,-0.0179,-0.1055,-0.1252,-0.1544,-0.1909,-0.1888,-0.1742,-0.144,-0.1642,-0.1609,-0.1305,-0.153,-0.1694,-0.176,-0.1303,-0.0837,-0.0435,-0.0033,0.0468,0.11,0.189,0.2359,0.2639,0.3464,0.3995,0.441,0.5069,0.6281,0.796,-1.0086,-0.8654,-0.7261,-0.5443,-0.4224,-0.3765,-0.4457,-0.5433,-0.6379,-0.7113,-0.848,-0.9399,-0.9478,-0.8545,-0.7439,-0.6307,-0.4682,-0.3676,-0.35,-0.2002,-0.1073,-0.0895,-0.0404,-0.009,0.0,0.0,-0.0314,-0.1029,-0.1607,-0.2752,-0.4413,-0.5034,-0.5905,-0.6979,-0.6979,-0.6979,-0.6979,-0.6979,-0.6979,-0.6979,-0.6979,-0.6979,-0.6979,-0.6979,-0.684,-0.6587,-0.6587,-0.5645,-0.4317,-0.3788,-0.3765,-0.4034,-0.4573,-0.5202,-0.5693,-0.5512,-0.4703,-0.3752,-0.3164,-0.1625,-0.0267,-0.0604,0.0268,0.1204,0.1204,0.1575,0.1911,0.1911,0.1911,0.2045,0.2444,0.2178,0.2175,0.2999,0.3556,0.4053,0.4468,0.457,0.457,0.4532,0.4505,0.4505,0.4505,0.4403,0.4001,0.3171,0.1771,0.0562,-0.0287,-0.1131,-0.1592,-0.1655,-0.1476,-0.1573,-0.1911,-0.1209,-0.1007,-0.1305,-0.0603,-0.0469,-0.0873,-0.0403,0.0067,0.0504,0.0571,0.1305,0.2461,0.2936,0.3775,0.487,0.5781,0.6142,0.6331,0.7899,1.0086,1.2515,-1.0351,-0.8549,-0.6892,-0.5774,-0.4397,-0.367,-0.4291,-0.512,-0.6089,-0.73,-0.8399,-0.9039,-0.9039,-0.7452,-0.5837,-0.4388,-0.3212,-0.2115,-0.1103,-0.031,0.0089,0.0089,0.0358,0.0179,-0.0493,-0.0493,-0.0806,-0.1385,-0.165,-0.2708,-0.4413,-0.5034,-0.6076,-0.7489,-0.7147,-0.7196,-0.7482,-0.697,-0.678,-0.678,-0.678,-0.678,-0.68,-0.6961,-0.684,-0.6527,-0.613,-0.5296,-0.4337,-0.3948,-0.3804,-0.385,-0.4159,-0.4683,-0.5103,-0.4781,-0.3862,-0.2817,-0.2075,-0.0761,0.0401,0.0402,0.087,0.1305,0.1305,0.1676,0.2081,0.2347,0.238,0.2447,0.265,0.2709,0.2867,0.3225,0.3881,0.4409,0.457,0.4602,0.4602,0.4602,0.4602,0.4788,0.5289,0.4884,0.4322,0.3671,0.2621,0.149,0.0347,0.0109,-0.022,-0.0694,-0.0609,-0.0669,-0.0873,-0.0773,-0.0672,-0.057,0.0067,0.0269,0.0101,0.0535,0.1135,0.1835,0.2062,0.2747,0.3797,0.4199,0.4947,0.605,0.7919,0.9617,1.1068,1.193,1.3274,1.4889]}]]